[[{"header":{"parameterUnit":"m.s-1","parameterCategory":1,"la1":31.0,"la2":29.5877,"lo1":-88.7671,"lo2":-86.6584,"dy":0.0162,"dx":0.0185,"nx":115,"ny":88,"refTime":"2023-05-30T06:00:00:Z","depth":0,"parameterNumber":2,"parameterNumberName":"U-component_of_WINDS"},"data":[0.0,0.0,0.0,0.0,0.0,0.0,0.0,0.0,0.0,0.0,0.0,0.0,0.0,0.0,0.0,0.0,0.0,0.0,0.0,0.0,0.0,0.0,0.0,0.0,0.0,0.0,0.0,0.0,0.0,0.0,0.0,0.0,0.0,0.0,0.0,0.0,0.0,0.0,0.0,0.0,0.0,0.0,0.0,0.0,0.0,0.0,0.0,0.0,0.0,0.0,0.0,0.0,0.0,0.0,0.0,0.0,0.0,0.0,0.0,0.0,0.0,0.0,0.0,0.0,0.0,0.0,0.0,0.0,0.0,0.0,0.0,0.0,0.0,0.0,0.0,0.0,0.0,0.0,0.0,0.0,0.0,0.0,0.0,0.0,0.0,0.0,0.0,0.0,0.0,0.0,0.0,0.0,0.0,0.0,0.0,0.0,0.0,0.0,0.0,0.0,0.0,0.0,0.0,0.0,0.0,0.0,0.0,0.0,0.0,0.0,0.0,0.0,0.0,0.0,0.0,0.0,0.0,0.0,0.0,0.0,0.0,0.0,0.0,0.0,0.0,0.0,0.0,0.0,0.0,0.0,0.0,0.0,0.0,0.0,0.0,0.0,0.0,0.0,0.0,0.0,0.0,0.0,0.0,0.0,0.0,0.0,0.0,0.0,0.0,0.0,0.0,0.0,0.0,0.0,0.0,0.0,0.0,0.0,0.0,0.0,0.0,0.0,0.0,0.0,0.0,0.0,0.0,0.0,0.0,0.0,0.0,0.0,0.0,0.0,0.0,0.0,0.0,0.0,0.0,0.0,0.0,0.0,0.0,0.0,0.0,0.0,0.0,0.0,0.0,0.0,0.0,0.0,0.0,0.0,0.0,0.0,0.0,0.0,0.0,0.0,0.0,0.0,0.0,0.0,0.0,0.0,0.0,0.0,0.0,0.0,0.0,0.0,0.0,0.0,0.0,0.0,0.0,0.0,0.0,0.0,0.0,0.0,0.0,0.0,0.0,0.0,0.0,0.0,0.0,0.0,0.0,0.0,0.0,0.0,0.0,0.0,0.0,0.0,0.0,0.0,0.0,0.0,0.0,0.0,0.0,0.0,0.0,0.0,0.0,0.0,0.0,0.0,0.0,0.0,0.0,0.0,0.0,0.0,0.0,0.0,0.0,0.0,0.0,0.0,0.0,0.0,0.0,0.0,0.0,0.0,0.0,0.0,0.0,0.0,0.0,0.0,0.0,0.0,0.0,0.0,0.0,0.0,0.0,0.0,0.0,0.0,0.0,0.0,0.0,0.0,0.0,0.0,0.0,0.0,0.0,0.0,0.0,0.0,0.0,0.0,0.0,0.0,0.0,0.0,0.0,0.0,0.0,0.0,0.0,0.0,0.0,0.0,0.0,0.0,0.0,0.0,0.0,0.0,0.0,0.0,0.0,0.0,0.0,0.0,0.0,0.0,0.0,0.0,0.0,0.0,0.0,0.0,0.0,0.0,0.0,0.0,0.0,0.0,0.0,0.0,0.0,0.0,0.0,0.0,0.0,0.0,0.0,0.0,0.0,0.0,0.0,0.0,0.0,0.0,0.0,0.0,0.0,0.0,0.0,0.0,0.0,0.0,0.0,0.0,0.0,0.0,0.0,0.0,0.0,0.0,0.0,0.0,0.0,0.0,0.0,0.0,0.0,0.0,0.0,0.0,0.0,0.0,0.0,0.0,0.0,0.0,0.0,0.0,0.0,0.0,0.0,0.0,0.0,0.0,0.0,0.0,0.0,0.0,0.0,0.0,0.0,0.0,0.0,0.0,0.0,0.0,0.0,0.0,0.0,0.0,0.0,0.0,0.0,0.0,0.0,0.0,0.0,0.0,0.0,0.0,0.0,0.0,0.0,0.0,0.0,0.0,0.0,0.0,0.0,0.0,0.0,0.0,0.0,0.0,0.0,0.0,0.0,0.0,0.0,0.0,0.0,0.0,0.0,0.0,0.0,0.0,0.0,0.0,0.0,0.0,0.0,0.0,0.0,0.0,0.0,0.0,0.0,0.0,0.0,0.0,0.0,0.0,0.0,0.0,0.0,0.0,0.0,0.0,0.0,0.0,0.0,0.0,0.0,0.0,0.0,0.0,0.0,0.0,0.0,0.0,0.0,0.0,0.0,0.0,0.0,0.0,0.0,0.0,0.0,0.0,0.0,0.0,0.0,0.0,0.0,0.0,0.0,0.0,0.0,0.0,0.0,0.0,0.0,0.0,0.0,0.0,0.0,0.0,0.0,0.0,0.0,0.0,0.0,0.0,0.0,0.0,0.0,0.0,0.0,0.0,0.0,0.0,0.0,0.0,0.0,0.0,0.0,0.0,0.0,0.0,0.0,0.0,0.0,0.0,0.0,0.0,0.0,0.0,0.0,0.0,0.0,0.0,0.0,0.0,0.0,0.0,0.0,0.0,0.0,0.0,0.0,0.0,0.0,0.0,0.0,0.0,0.0,0.0,0.0,0.0,0.0,0.0,0.0,0.0,0.0,0.0,0.0,0.0,0.0,0.0,0.0,0.0,0.0,0.0,0.0,0.0,0.0,0.0,0.0,0.0,0.0,0.0,0.0,0.0,0.0,0.0,0.0,0.0,0.0,0.0,0.0,0.0,0.0,0.0,0.0,0.0,0.0,0.0,0.0,0.0,0.0,0.0,0.0,0.0,0.0,0.0,0.0,0.0,0.0,0.0,0.0,0.0,0.0,0.0,0.0,0.0,0.0,0.0,0.0,0.0,0.0,0.0,0.0,0.0,0.0,0.0,0.0,0.0,0.0,0.0,0.0,0.0,0.0,0.0,0.0,0.0,0.0,0.0,0.0,0.0,0.0,0.0,0.0,0.0,0.0,0.0,0.0,0.0,0.0,0.0,0.0,0.0,0.0,0.0,0.0,0.0,0.0,0.0,0.0,0.0,0.0,0.0,0.0,0.0,0.0,0.0,0.0,0.0,0.0,0.0,0.0,0.0,0.0,0.0,0.0,0.0,0.0,0.0,0.0,0.0,0.0,0.0,0.0,0.0,0.0,0.0,0.0,0.0,0.0,0.0,0.0,0.0,0.0,0.0,0.0,0.0,0.0,0.0,0.0,0.0,0.0,0.0,0.0,0.0,0.0,0.0,0.0,0.0,0.0,0.0,0.0,0.0,0.0,0.0,0.0,0.0,0.0,0.0,0.0,0.0,0.0,0.0,0.0,0.0,0.0,0.0,0.0,0.0,0.0,0.0,0.0,0.0,0.0,0.0,0.0,0.0,0.0,0.0,0.0,0.0,0.0,0.0,0.0,0.0,0.0,0.0,0.0,0.0,0.0,0.0,0.0,0.0,0.0,0.0,0.0,0.0,0.0,0.0,0.0,0.0,0.0,0.0,0.0,0.0,0.0,0.0,0.0,0.0,0.0,0.0,0.0,0.0,0.0,0.0,0.0,0.0,0.0,0.0,0.0,0.0,0.0,0.0,0.0,0.0,0.0,0.0,0.0,0.0,0.0,0.0,0.0,0.0,0.0,0.0,0.0,0.0,0.0,0.0,0.0,0.0,0.0,0.0,0.0,0.0,0.0,0.0,0.0,0.0,0.0,0.0,0.0,0.0,0.0,0.0,0.0,0.0,0.0,0.0,0.0,0.0,0.0,0.0,0.0,0.0,0.0,0.0,0.0,0.0,0.0,0.0,0.0,0.0,0.0,0.0,0.0,0.0,0.0,0.0,0.0,0.0,0.0,0.0,0.0,0.0,0.0,0.0,0.0,0.0,0.0,0.0,0.0,0.0,0.0,0.0,0.0,0.0,0.0,0.0,0.0,0.0,0.0,0.0,0.0,0.0,0.0,0.0,0.0,0.0,0.0,0.0,0.0,0.0,0.0,0.0,0.0,0.0,0.0,0.0,0.0,0.0,0.0,0.0,0.0,0.0,0.0,0.0,0.0,0.0,0.0,0.0,0.0,0.0,0.0,0.0,0.0,0.0,0.0,0.0,0.0,0.0,0.0,0.0,0.0,0.0,0.0,0.0,0.0,0.0,0.0,0.0,0.0,0.0,0.0,0.0,0.0,0.0,0.0,0.0,0.0,0.0,0.0,0.0,0.0,0.0,0.0,0.0,0.0,0.0,0.0,0.0,0.0,0.0,0.0,0.0,0.0,0.0,0.0,0.0,0.0,0.0,0.0,0.0,0.0,0.0,0.0,0.0,0.0,0.0,0.0,0.0,0.0,0.0,0.0,0.0,0.0,0.0,0.0,0.0,0.0,0.0,0.0,0.0,0.0,0.0,0.0,0.0,2.9711,0.0,0.0,0.0,0.0,0.0,0.0,0.0,0.0,0.0,0.0,0.0,0.0,0.0,0.0,0.0,0.0,0.0,0.0,0.0,0.0,0.0,0.0,0.0,0.0,0.0,0.0,0.0,0.0,0.0,0.0,0.0,0.0,0.0,0.0,0.0,0.0,0.0,0.0,0.0,0.0,0.0,0.0,0.0,0.0,0.0,0.0,0.0,0.0,0.0,0.0,0.0,0.0,0.0,0.0,0.0,0.0,0.0,0.0,0.0,0.0,0.0,0.0,0.0,0.0,0.0,0.0,0.0,0.0,0.0,0.0,0.0,0.0,0.0,0.0,0.0,0.0,0.0,0.0,0.0,0.0,0.0,0.0,0.0,0.0,0.0,0.0,0.0,0.0,0.0,0.0,0.0,0.0,0.0,0.0,0.0,0.0,0.0,0.0,0.0,0.0,0.0,0.0,0.0,0.0,0.0,0.0,0.0,0.0,0.0,0.0,3.182,3.0617,3.2207,3.1924,2.9552,0.0,0.0,0.0,0.0,0.0,0.0,0.0,0.0,0.0,0.0,0.0,0.0,0.0,0.0,0.0,0.0,0.0,0.0,0.0,0.0,0.0,0.0,0.0,0.0,0.0,0.0,0.0,0.0,0.0,0.0,0.0,0.0,0.0,0.0,0.0,0.0,0.0,0.0,0.0,0.0,0.0,0.0,0.0,0.0,0.0,0.0,0.0,0.0,0.0,0.0,0.0,0.0,0.0,0.0,0.0,0.0,0.0,0.0,0.0,0.0,0.0,0.0,0.0,0.0,0.0,0.0,0.0,0.0,0.0,0.0,0.0,0.0,0.0,0.0,0.0,0.0,0.0,0.0,0.0,0.0,0.0,0.0,0.0,0.0,0.0,0.0,0.0,0.0,0.0,0.0,0.0,0.0,0.0,0.0,0.0,0.0,0.0,0.0,0.0,0.0,0.0,0.0,0.0,0.0,0.0,0.0,0.0,0.0,0.0,0.0,0.0,0.0,3.2674,3.2385,3.0388,0.0,0.0,0.0,0.0,0.0,0.0,0.0,0.0,0.0,0.0,0.0,0.0,0.0,0.0,0.0,0.0,0.0,0.0,0.0,0.0,0.0,0.0,0.0,0.0,0.0,0.0,0.0,0.0,0.0,0.0,0.0,0.0,0.0,0.0,0.0,0.0,0.0,0.0,0.0,0.0,0.0,0.0,0.0,0.0,0.0,0.0,0.0,0.0,0.0,0.0,0.0,0.0,0.0,0.0,0.0,0.0,0.0,0.0,0.0,0.0,0.0,0.0,0.0,0.0,0.0,0.0,0.0,0.0,0.0,0.0,0.0,0.0,0.0,0.0,0.0,0.0,0.0,0.0,0.0,0.0,0.0,0.0,0.0,0.0,0.0,0.0,0.0,0.0,0.0,0.0,0.0,0.0,0.0,0.0,0.0,0.0,0.0,0.0,0.0,0.0,0.0,0.0,0.0,0.0,0.0,0.0,0.0,0.0,0.0,0.0,3.0994,3.4029,3.4237,0.0,3.2931,0.0,0.0,0.0,0.0,0.0,0.0,0.0,0.0,0.0,0.0,0.0,0.0,0.0,0.0,0.0,0.0,0.0,0.0,0.0,0.0,0.0,0.0,0.0,0.0,0.0,0.0,0.0,0.0,0.0,0.0,0.0,0.0,0.0,0.0,0.0,0.0,0.0,0.0,0.0,0.0,0.0,0.0,0.0,0.0,0.0,0.0,0.0,0.0,0.0,0.0,0.0,0.0,0.0,0.0,0.0,0.0,0.0,0.0,0.0,0.0,0.0,0.0,0.0,0.0,0.0,0.0,0.0,0.0,0.0,0.0,0.0,0.0,0.0,0.0,0.0,0.0,0.0,0.0,0.0,0.0,0.0,0.0,0.0,0.0,0.0,0.0,0.0,0.0,0.0,0.0,0.0,0.0,0.0,0.0,0.0,0.0,0.0,0.0,0.0,0.0,0.0,0.0,0.0,0.0,0.0,0.0,0.0,0.0,0.0,0.0,3.0607,3.2895,3.246,3.199,0.0,0.0,0.0,0.0,0.0,0.0,0.0,0.0,0.0,0.0,0.0,0.0,0.0,0.0,0.0,0.0,0.0,0.0,0.0,0.0,0.0,0.0,0.0,0.0,0.0,0.0,0.0,0.0,0.0,0.0,0.0,0.0,0.0,0.0,0.0,0.0,0.0,0.0,0.0,0.0,0.0,0.0,0.0,0.0,0.0,0.0,0.0,0.0,0.0,0.0,0.0,0.0,0.0,0.0,0.0,0.0,0.0,0.0,0.0,0.0,0.0,0.0,0.0,0.0,0.0,0.0,0.0,0.0,0.0,0.0,0.0,0.0,0.0,0.0,0.0,0.0,0.0,0.0,0.0,0.0,0.0,0.0,0.0,0.0,0.0,0.0,0.0,0.0,0.0,0.0,0.0,0.0,0.0,0.0,0.0,0.0,0.0,0.0,0.0,0.0,0.0,0.0,0.0,0.0,0.0,0.0,0.0,0.0,0.0,0.0,2.9911,3.0856,3.2765,3.1816,3.0944,3.0334,0.0,0.0,0.0,0.0,0.0,0.0,0.0,0.0,0.0,0.0,0.0,0.0,0.0,0.0,0.0,0.0,0.0,0.0,0.0,0.0,0.0,0.0,0.0,0.0,0.0,0.0,0.0,0.0,0.0,0.0,0.0,0.0,0.0,0.0,0.0,0.0,0.0,0.0,0.0,0.0,0.0,0.0,0.0,0.0,0.0,0.0,0.0,0.0,0.0,0.0,0.0,0.0,0.0,0.0,0.0,0.0,0.0,0.0,0.0,0.0,0.0,0.0,0.0,0.0,0.0,0.0,0.0,0.0,0.0,0.0,0.0,0.0,0.0,0.0,0.0,0.0,0.0,0.0,0.0,0.0,0.0,0.0,0.0,0.0,0.0,0.0,0.0,0.0,0.0,0.0,0.0,0.0,0.0,0.0,0.0,0.0,0.0,0.0,0.0,0.0,0.0,0.0,0.0,0.0,0.0,0.0,0.0,0.0,3.3723,3.1676,3.2065,3.4991,3.3661,3.1892,0.0,0.0,0.0,0.0,0.0,0.0,0.0,0.0,0.0,0.0,0.0,0.0,0.0,0.0,0.0,0.0,0.0,0.0,0.0,0.0,0.0,0.0,0.0,0.0,0.0,0.0,0.0,0.0,0.0,0.0,0.0,0.0,0.0,0.0,0.0,0.0,0.0,0.0,0.0,0.0,0.0,0.0,0.0,0.0,0.0,0.0,0.0,0.0,0.0,0.0,0.0,0.0,0.0,0.0,0.0,0.0,0.0,0.0,0.0,0.0,0.0,0.0,0.0,0.0,0.0,0.0,0.0,0.0,0.0,0.0,0.0,0.0,0.0,0.0,0.0,0.0,0.0,0.0,0.0,0.0,0.0,0.0,0.0,0.0,0.0,0.0,0.0,0.0,0.0,0.0,0.0,0.0,0.0,0.0,0.0,0.0,0.0,0.0,0.0,0.0,0.0,0.0,0.0,0.0,0.0,0.0,0.0,0.0,0.0,2.4245,2.4569,2.4927,2.5383,2.8059,2.9187,0.0,0.0,0.0,0.0,0.0,0.0,0.0,0.0,0.0,0.0,0.0,0.0,0.0,0.0,0.0,0.0,0.0,0.0,0.0,0.0,0.0,0.0,0.0,0.0,0.0,0.0,0.0,0.0,0.0,0.0,0.0,0.0,0.0,0.0,0.0,0.0,0.0,0.0,0.0,0.0,0.0,0.0,0.0,0.0,0.0,0.0,0.0,0.0,0.0,0.0,0.0,0.0,0.0,0.0,0.0,0.0,0.0,0.0,0.0,0.0,0.0,0.0,0.0,0.0,0.0,0.0,0.0,0.0,0.0,0.0,0.0,0.0,0.0,0.0,0.0,0.0,0.0,0.0,0.0,0.0,0.0,0.0,0.0,0.0,0.0,0.0,0.0,0.0,0.0,0.0,0.0,0.0,0.0,0.0,0.0,0.0,0.0,0.0,0.0,0.0,0.0,0.0,0.0,0.0,0.0,0.0,0.0,0.0,0.0,1.5435,0.0,1.6092,1.6118,2.0384,2.2965,0.0,0.0,0.0,0.0,0.0,0.0,0.0,0.0,0.0,0.0,0.0,0.0,0.0,0.0,0.0,0.0,0.0,0.0,0.0,0.0,0.0,0.0,0.0,0.0,0.0,0.0,0.0,0.0,0.0,0.0,0.0,0.0,0.0,0.0,0.0,0.0,0.0,0.0,0.0,0.0,0.0,0.0,0.0,0.0,0.0,0.0,0.0,0.0,0.0,0.0,0.0,0.0,0.0,0.0,0.0,0.0,0.0,0.0,0.0,0.0,0.0,0.0,0.0,0.0,0.0,0.0,0.0,0.0,0.0,0.0,0.0,0.0,0.0,0.0,0.0,0.0,0.0,0.0,0.0,0.0,0.0,0.0,0.0,0.0,0.0,0.0,0.0,0.0,0.0,0.0,0.0,0.0,0.0,0.0,0.0,0.0,0.0,0.0,0.0,0.0,0.0,0.0,0.0,0.0,0.0,0.0,0.0,0.0,1.4055,0.8384,0.6071,0.5922,0.8248,1.0939,1.324,0.0,0.0,0.0,0.0,0.0,0.0,0.0,0.0,0.0,0.0,0.0,0.0,0.0,0.0,0.0,0.0,0.0,0.0,0.0,0.0,0.0,0.0,0.0,0.0,0.0,0.0,0.0,0.0,0.0,0.0,0.0,0.0,0.0,0.0,0.0,0.0,0.0,0.0,0.0,0.0,0.0,0.0,0.0,0.0,0.0,0.0,0.0,0.0,0.0,0.0,0.0,0.0,0.0,0.0,0.0,0.0,0.0,0.0,0.0,0.0,0.0,0.0,0.0,0.0,0.0,0.0,0.0,0.0,0.0,0.0,0.0,0.0,0.0,0.0,0.0,0.0,0.0,0.0,0.0,0.0,0.0,0.0,0.0,0.0,0.0,0.0,0.0,0.0,0.0,0.0,0.0,0.0,0.0,0.0,0.0,0.0,0.0,0.0,0.0,0.0,0.0,0.0,0.0,0.0,0.0,0.0,0.0,0.0,0.0,-0.4932,-0.552,-0.5888,-0.5857,0.0566,0.5973,0.0,0.0,0.0,0.0,0.0,0.0,0.0,0.0,0.0,0.0,0.0,0.0,0.0,0.0,0.0,0.0,0.0,0.0,0.0,0.0,0.0,0.0,0.0,0.0,0.0,0.0,0.0,0.0,0.0,0.0,0.0,0.0,0.0,0.0,0.0,0.0,0.0,0.0,0.0,0.0,0.0,0.0,0.0,0.0,0.0,0.0,0.0,0.0,0.0,0.0,0.0,0.0,0.0,0.0,0.0,0.0,0.0,0.0,0.0,0.0,0.0,0.0,0.0,0.0,0.0,0.0,0.0,0.0,0.0,0.0,0.0,0.0,0.0,0.0,0.0,0.0,0.0,0.0,0.0,0.0,0.0,0.0,0.0,0.0,0.0,0.0,0.0,0.0,0.0,0.0,0.0,0.0,0.0,0.0,0.0,0.0,0.0,0.0,0.0,0.0,0.0,0.0,0.0,0.0,0.0,0.0,0.0,0.0,0.0,-1.719,-1.7543,-1.7493,-1.698,-1.0005,-0.3407,0.2511,0.0,0.0,0.0,0.0,0.0,0.0,0.0,0.0,0.0,0.0,0.0,0.0,0.0,0.0,0.0,0.0,0.0,0.0,0.0,0.0,0.0,0.0,0.0,0.0,0.0,0.0,0.0,0.0,0.0,0.0,0.0,0.0,0.0,0.0,0.0,0.0,0.0,0.0,0.0,0.0,0.0,0.0,0.0,0.0,0.0,0.0,0.0,0.0,0.0,0.0,0.0,0.0,0.0,0.0,0.0,0.0,0.0,0.0,0.0,0.0,0.0,0.0,0.0,0.0,0.0,0.0,0.0,0.0,0.0,0.0,0.0,0.0,0.0,0.0,0.0,0.0,0.0,0.0,0.0,0.0,0.0,0.0,0.0,0.0,0.0,0.0,0.0,0.0,0.0,0.0,0.0,0.0,0.0,0.0,0.0,0.0,0.0,0.0,0.0,0.0,0.0,0.0,0.0,0.0,0.0,0.0,0.0,0.0,-2.7962,-2.9223,-2.8088,-2.4657,-2.0144,-1.4179,0.0,0.0,0.0,0.0,0.0,0.0,0.0,0.0,0.0,0.0,0.0,0.0,0.0,0.0,0.0,0.0,0.0,0.0,0.0,0.0,0.0,0.0,0.0,0.0,0.0,0.0,0.0,0.0,0.0,0.0,0.0,0.0,0.0,0.0,0.0,0.0,0.0,0.0,0.0,0.0,0.0,0.0,0.0,0.0,0.0,0.0,0.0,0.0,0.0,0.0,0.0,0.0,0.0,0.0,0.0,0.0,0.0,0.0,0.0,0.0,0.0,0.0,0.0,0.0,0.0,0.0,0.0,0.0,0.0,0.0,0.0,0.0,0.0,0.0,0.0,0.0,0.0,0.0,0.0,0.0,0.0,0.0,0.0,0.0,0.0,0.0,0.0,0.0,0.0,0.0,0.0,0.0,0.0,0.0,0.0,0.0,0.0,0.0,0.0,0.0,0.0,0.0,0.0,0.0,0.0,0.0,0.0,0.0,0.0,-3.273,-3.3183,-3.1935,-2.9089,-2.5642,-2.0316,0.0,0.0,0.0,0.0,0.0,0.0,0.0,0.0,0.0,0.0,0.0,0.0,0.0,0.0,0.0,0.0,0.0,0.0,0.0,0.0,0.0,0.0,0.0,0.0,0.0,0.0,0.0,0.0,0.0,0.0,0.0,0.0,0.0,0.0,0.0,0.0,0.0,0.0,0.0,0.0,0.0,0.0,0.0,0.0,0.0,0.0,0.0,0.0,0.0,0.0,0.0,0.0,0.0,0.0,0.0,0.0,0.0,0.0,0.0,0.0,0.0,0.0,0.0,0.0,0.0,0.0,0.0,0.0,0.0,0.0,0.0,0.0,0.0,0.0,0.0,0.0,0.0,0.0,0.0,0.0,0.0,0.0,0.0,0.0,0.0,0.0,0.0,0.0,0.0,0.0,0.0,0.0,0.0,0.0,0.0,0.0,0.0,0.0,0.0,0.0,0.0,0.0,0.0,0.0,0.0,0.0,0.0,0.0,-3.0195,-3.4309,-3.5336,-3.4641,-3.2152,-2.9249,-2.4427,0.0,0.0,0.0,0.0,0.0,0.0,0.0,0.0,0.0,0.0,0.0,0.0,0.0,0.0,0.0,0.0,0.0,0.0,0.0,0.0,0.0,0.0,0.0,0.0,0.0,0.0,0.0,0.0,0.0,0.0,0.0,0.0,0.0,0.0,0.0,0.0,0.0,0.0,0.0,0.0,0.0,0.0,0.0,0.0,0.0,0.0,0.0,0.0,0.0,0.0,0.0,0.0,0.0,0.0,0.0,0.0,0.0,0.0,0.0,0.0,0.0,0.0,0.0,0.0,0.0,0.0,0.0,0.0,0.0,0.0,0.0,0.0,0.0,0.0,0.0,0.0,0.0,0.0,0.0,0.0,0.0,0.0,0.0,0.0,0.0,0.0,0.0,0.0,0.0,0.0,0.0,0.0,0.0,0.0,0.0,0.0,0.0,0.0,0.0,0.0,0.0,0.0,0.0,0.0,0.0,0.0,0.0,0.0,-3.1986,-3.3837,-3.607,-3.6224,-3.4209,-3.1596,-2.7174,0.0,0.0,0.0,0.0,0.0,0.0,0.0,0.0,0.0,0.0,0.0,0.0,0.0,0.0,0.0,0.0,0.0,0.0,0.0,0.0,0.0,0.0,0.0,0.0,0.0,0.0,0.0,0.0,0.0,0.0,0.0,0.0,0.0,0.0,0.0,0.0,0.0,0.0,0.0,0.0,0.0,0.0,0.0,0.0,0.0,0.0,0.0,0.0,0.0,0.0,0.0,0.0,0.0,0.0,0.0,0.0,0.0,0.0,0.0,0.0,0.0,0.0,0.0,0.0,0.0,0.0,0.0,0.0,0.0,0.0,0.0,0.0,0.0,0.0,0.0,0.0,0.0,0.0,0.0,0.0,0.0,0.0,0.0,0.0,0.0,0.0,0.0,0.0,0.0,0.0,0.0,0.0,0.0,0.0,0.0,0.0,0.0,0.0,0.0,0.0,0.0,0.0,0.0,0.0,0.0,0.0,0.0,0.0,-3.2684,-3.4831,-3.5307,-3.5402,-3.5097,-3.293,-2.8971,0.0,0.0,0.0,0.0,0.0,0.0,0.0,0.0,0.0,0.0,0.0,0.0,0.0,0.0,0.0,0.0,0.0,0.0,0.0,0.0,0.0,0.0,0.0,0.0,0.0,0.0,0.0,0.0,0.0,0.0,0.0,0.0,0.0,0.0,0.0,0.0,0.0,0.0,0.0,0.0,0.0,0.0,0.0,0.0,0.0,0.0,0.0,0.0,-1.5331,0.0,0.0,0.0,0.0,0.0,0.0,0.0,0.0,0.0,0.0,0.0,0.0,0.0,0.0,0.0,0.0,0.0,0.0,0.0,0.0,0.0,0.0,0.0,0.0,0.0,0.0,0.0,0.0,0.0,0.0,0.0,0.0,0.0,0.0,0.0,0.0,0.0,0.0,0.0,0.0,0.0,0.0,0.0,0.0,0.0,0.0,0.0,0.0,0.0,0.0,0.0,0.0,0.0,0.0,0.0,0.0,0.0,0.0,0.0,-3.3698,-3.5143,-3.5426,-3.5302,-3.4722,-3.3319,-3.0054,0.0,0.0,0.0,0.0,0.0,0.0,0.0,0.0,0.0,0.0,0.0,0.0,0.0,0.0,0.0,0.0,0.0,0.0,0.0,0.0,0.0,0.0,0.0,0.0,0.0,0.0,0.0,0.0,0.0,0.0,0.0,0.0,0.0,0.0,0.0,0.0,0.0,0.0,0.0,0.0,0.0,0.0,0.0,0.0,0.0,0.0,0.0,0.0,0.0,0.0,0.0,0.0,0.0,0.0,0.0,0.0,0.0,0.0,0.0,0.0,0.0,0.0,0.0,0.0,0.0,0.0,0.0,0.0,0.0,0.0,0.0,0.0,0.0,0.0,0.0,0.0,0.0,0.0,0.0,0.0,0.0,0.0,0.0,0.0,0.0,0.0,0.0,0.0,0.0,0.0,0.0,0.0,0.0,0.0,0.0,0.0,0.0,0.0,0.0,0.0,0.0,0.0,0.0,0.0,0.0,0.0,0.0,-3.3565,-3.4515,-3.4981,-3.5618,-3.5402,-3.4294,-3.3212,-3.0599,-2.6236,0.0,0.0,0.0,0.0,0.0,0.0,0.0,0.0,0.0,0.0,0.0,0.0,0.0,0.0,0.0,0.0,0.0,0.0,0.0,0.0,0.0,0.0,0.0,0.0,0.0,0.0,0.0,0.0,0.0,0.0,0.0,0.0,0.0,0.0,0.0,0.0,0.0,0.0,-2.4498,-2.8024,0.0,0.0,0.0,0.0,0.0,0.0,0.0,0.0,-2.0711,0.0,0.0,0.0,0.0,0.0,0.0,0.0,0.0,0.0,0.0,0.0,0.0,0.0,0.0,0.0,0.0,0.0,0.0,0.0,0.0,0.0,0.0,0.0,0.0,0.0,0.0,0.0,0.0,0.0,0.0,0.0,0.0,0.0,0.0,0.0,0.0,0.0,0.0,0.0,0.0,0.0,0.0,0.0,0.0,0.0,0.0,0.0,0.0,0.0,0.0,0.0,0.0,0.0,0.0,0.0,0.0,-3.1309,-3.3222,-3.4159,-3.4064,-3.4565,-3.5035,-3.5344,-3.2949,-3.0415,-2.7797,0.0,0.0,0.0,0.0,0.0,0.0,0.0,0.0,0.0,0.0,0.0,0.0,0.0,0.0,0.0,0.0,0.0,0.0,0.0,0.0,0.0,0.0,0.0,0.0,0.0,0.0,0.0,0.0,0.0,0.0,0.0,0.0,0.0,0.0,0.0,0.0,0.0,0.0,0.0,-3.2022,-3.3734,0.0,0.0,0.0,0.0,0.0,0.0,0.0,0.0,-2.371,0.0,0.0,0.0,0.0,0.0,0.0,0.0,0.0,0.0,0.0,0.0,0.0,0.0,0.0,0.0,0.0,0.0,0.0,0.0,0.0,0.0,0.0,0.0,0.0,0.0,0.0,0.0,0.0,0.0,0.0,0.0,0.0,0.0,0.0,0.0,0.0,0.0,0.0,0.0,0.0,0.0,0.0,0.0,0.0,0.0,0.0,0.0,0.0,0.0,0.0,0.0,0.0,0.0,0.0,0.0,-3.1942,-3.3877,-3.4757,-3.447,-3.4548,-3.4516,-3.4335,-3.2371,-2.9822,0.0,0.0,0.0,0.0,0.0,0.0,0.0,0.0,0.0,0.0,0.0,0.0,0.0,0.0,0.0,0.0,0.0,0.0,0.0,0.0,0.0,0.0,0.0,0.0,0.0,0.0,0.0,0.0,0.0,0.0,0.0,0.0,0.0,0.0,0.0,0.0,0.0,0.0,0.0,0.0,-3.5497,-3.7837,-3.6537,0.0,0.0,0.0,0.0,0.0,0.0,-2.8249,-2.6531,0.0,0.0,0.0,0.0,0.0,0.0,0.0,0.0,0.0,0.0,0.0,0.0,0.0,0.0,0.0,0.0,0.0,0.0,0.0,0.0,0.0,0.0,0.0,0.0,0.0,0.0,0.0,0.0,0.0,0.0,0.0,0.0,0.0,0.0,0.0,0.0,0.0,0.0,0.0,0.0,0.0,0.0,0.0,0.0,0.0,0.0,0.0,0.0,0.0,0.0,0.0,0.0,0.0,0.0,0.0,-3.2688,-3.4521,-3.535,-3.5097,-3.4717,-3.4179,-3.3436,-3.1986,-2.9403,0.0,0.0,0.0,0.0,0.0,0.0,0.0,0.0,0.0,0.0,0.0,0.0,0.0,0.0,0.0,0.0,0.0,0.0,0.0,0.0,0.0,0.0,0.0,0.0,0.0,0.0,0.0,0.0,0.0,0.0,0.0,0.0,0.0,0.0,0.0,0.0,0.0,0.0,0.0,0.0,0.0,-4.1541,-3.958,-3.8685,0.0,0.0,0.0,0.0,-3.2141,-3.109,0.0,0.0,0.0,0.0,0.0,0.0,0.0,0.0,0.0,0.0,0.0,0.0,0.0,0.0,0.0,0.0,0.0,0.0,0.0,0.0,0.0,0.0,0.0,0.0,0.0,0.0,0.0,0.0,0.0,0.0,0.0,0.0,0.0,0.0,0.0,0.0,0.0,0.0,0.0,0.0,0.0,0.0,0.0,0.0,0.0,0.0,0.0,0.0,0.0,0.0,0.0,0.0,0.0,0.0,0.0,0.0,-3.2694,-3.4431,-3.522,-3.5015,-3.4494,-3.4356,-3.455,-3.2336,-2.9939,0.0,0.0,0.0,0.0,0.0,0.0,0.0,0.0,0.0,0.0,0.0,0.0,0.0,0.0,0.0,0.0,0.0,0.0,0.0,0.0,0.0,0.0,0.0,0.0,0.0,0.0,0.0,0.0,0.0,0.0,0.0,0.0,0.0,0.0,0.0,0.0,0.0,0.0,0.0,0.0,0.0,-4.4382,-4.2255,-4.0608,-3.9426,0.0,0.0,-3.6029,-3.6909,-3.6315,0.0,0.0,0.0,0.0,0.0,0.0,0.0,0.0,0.0,0.0,0.0,0.0,0.0,0.0,0.0,0.0,0.0,0.0,0.0,0.0,0.0,0.0,0.0,0.0,0.0,0.0,0.0,0.0,0.0,0.0,0.0,0.0,0.0,0.0,0.0,0.0,0.0,0.0,0.0,0.0,0.0,0.0,0.0,0.0,0.0,0.0,0.0,0.0,0.0,0.0,0.0,0.0,0.0,0.0,0.0,-3.1656,-3.2812,-3.4457,-3.5191,-3.4939,-3.4423,-3.4015,-3.3719,-3.1533,-2.917,0.0,0.0,0.0,0.0,0.0,0.0,0.0,0.0,0.0,0.0,0.0,0.0,0.0,0.0,0.0,0.0,0.0,0.0,0.0,0.0,0.0,0.0,0.0,0.0,0.0,0.0,0.0,0.0,0.0,0.0,0.0,0.0,0.0,0.0,0.0,0.0,0.0,0.0,0.0,0.0,0.0,0.0,-4.3286,-4.2533,0.0,0.0,0.0,-3.7433,-3.8388,0.0,0.0,0.0,0.0,0.0,0.0,0.0,0.0,0.0,0.0,0.0,0.0,0.0,0.0,0.0,0.0,0.0,0.0,0.0,0.0,0.0,0.0,0.0,0.0,0.0,0.0,0.0,0.0,0.0,0.0,0.0,0.0,0.0,0.0,0.0,0.0,0.0,0.0,0.0,0.0,0.0,0.0,0.0,0.0,0.0,0.0,0.0,0.0,0.0,0.0,0.0,0.0,0.0,0.0,0.0,0.0,0.0,-3.293,-3.4497,-3.5163,-3.4887,-3.4394,-3.3707,-3.2916,-3.0942,0.0,0.0,0.0,0.0,0.0,0.0,0.0,0.0,0.0,0.0,0.0,0.0,0.0,0.0,0.0,0.0,0.0,0.0,0.0,0.0,0.0,0.0,0.0,0.0,0.0,0.0,0.0,-2.2629,0.0,0.0,0.0,0.0,0.0,0.0,0.0,0.0,0.0,0.0,0.0,0.0,0.0,0.0,-4.4656,-4.3922,-4.4073,-4.3953,0.0,0.0,-3.8801,-3.9532,-3.8677,-3.7052,0.0,0.0,0.0,0.0,0.0,0.0,0.0,0.0,0.0,0.0,0.0,0.0,0.0,0.0,0.0,0.0,0.0,0.0,0.0,0.0,0.0,0.0,0.0,0.0,0.0,0.0,0.0,0.0,0.0,0.0,0.0,0.0,0.0,0.0,0.0,0.0,0.0,0.0,0.0,0.0,0.0,0.0,0.0,0.0,0.0,0.0,0.0,0.0,0.0,0.0,0.0,0.0,0.0,0.0,0.0,-3.3001,-3.4523,-3.5163,-3.4906,-3.4375,-3.3707,-3.2898,-3.1063,-2.9381,0.0,0.0,0.0,0.0,0.0,0.0,0.0,0.0,0.0,0.0,0.0,0.0,0.0,0.0,0.0,0.0,0.0,0.0,0.0,0.0,0.0,0.0,0.0,0.0,0.0,0.0,0.0,0.0,0.0,0.0,0.0,0.0,0.0,0.0,0.0,0.0,0.0,0.0,0.0,0.0,0.0,-4.5293,-4.4545,-4.4962,-4.5022,0.0,0.0,-4.1289,-4.1385,-4.1177,-3.9879,-3.6461,0.0,0.0,0.0,0.0,0.0,0.0,0.0,0.0,0.0,0.0,0.0,0.0,0.0,0.0,0.0,0.0,0.0,0.0,0.0,0.0,0.0,0.0,0.0,0.0,0.0,0.0,0.0,0.0,0.0,0.0,0.0,0.0,0.0,0.0,0.0,0.0,0.0,0.0,0.0,0.0,0.0,0.0,0.0,0.0,0.0,0.0,0.0,0.0,0.0,0.0,0.0,0.0,0.0,-3.3027,-3.374,-3.4729,-3.5085,-3.4793,-3.4302,-3.3561,-3.2592,-3.0959,-2.9259,0.0,0.0,0.0,0.0,0.0,0.0,0.0,0.0,0.0,0.0,0.0,0.0,0.0,0.0,0.0,0.0,0.0,0.0,0.0,0.0,0.0,0.0,0.0,0.0,0.0,0.0,0.0,0.0,-2.821,-2.8612,-3.0219,0.0,0.0,0.0,0.0,0.0,0.0,0.0,0.0,0.0,0.0,-4.3924,-4.3017,-4.4103,0.0,0.0,-4.1904,-4.1152,-4.2203,-4.0801,-3.906,-3.753,-3.6372,0.0,0.0,0.0,0.0,0.0,0.0,0.0,0.0,0.0,0.0,0.0,0.0,0.0,0.0,0.0,0.0,0.0,0.0,0.0,0.0,0.0,0.0,0.0,0.0,0.0,0.0,0.0,0.0,0.0,0.0,0.0,0.0,0.0,0.0,0.0,0.0,0.0,0.0,0.0,0.0,0.0,0.0,0.0,0.0,0.0,0.0,0.0,0.0,0.0,0.0,0.0,0.0,-3.3913,-3.4592,-3.4998,-3.5176,-3.5071,-3.4405,-3.3643,-3.2796,-3.115,-2.9592,0.0,0.0,0.0,0.0,0.0,0.0,0.0,0.0,0.0,0.0,0.0,0.0,0.0,0.0,0.0,0.0,0.0,0.0,0.0,0.0,0.0,0.0,0.0,0.0,0.0,0.0,0.0,0.0,-3.1038,-3.1364,-3.2981,0.0,0.0,0.0,0.0,0.0,0.0,0.0,0.0,0.0,0.0,-4.3469,-4.2797,-4.3955,-4.4396,-4.285,-4.1559,-4.0994,-4.1759,-4.0235,-3.8769,-3.8188,0.0,0.0,0.0,0.0,0.0,0.0,0.0,0.0,0.0,0.0,0.0,0.0,0.0,0.0,0.0,0.0,0.0,0.0,0.0,0.0,0.0,0.0,0.0,0.0,0.0,0.0,0.0,0.0,0.0,0.0,-3.4484,0.0,0.0,0.0,0.0,0.0,0.0,0.0,0.0,0.0,0.0,0.0,0.0,0.0,0.0,0.0,0.0,0.0,0.0,0.0,0.0,0.0,0.0,-3.4793,-3.5466,-3.5277,-3.5444,-3.5885,-3.4731,-3.3954,-3.3608,-3.1724,-3.0662,-3.0545,0.0,0.0,0.0,0.0,0.0,0.0,0.0,0.0,0.0,0.0,0.0,0.0,0.0,0.0,0.0,0.0,0.0,0.0,0.0,0.0,0.0,0.0,0.0,0.0,0.0,0.0,-3.4631,-3.4407,-3.4139,0.0,0.0,0.0,0.0,0.0,0.0,0.0,0.0,0.0,0.0,-4.2962,-4.4381,-4.4353,-4.4983,-4.4641,-4.2479,-4.1682,-4.0992,-4.0062,-3.9811,-3.9466,0.0,0.0,0.0,0.0,0.0,0.0,0.0,0.0,0.0,0.0,0.0,0.0,0.0,0.0,0.0,0.0,0.0,0.0,0.0,0.0,0.0,0.0,0.0,0.0,0.0,0.0,0.0,-3.779,-3.7481,0.0,0.0,0.0,0.0,0.0,0.0,0.0,0.0,0.0,0.0,0.0,-3.9131,-3.9293,0.0,0.0,0.0,0.0,0.0,0.0,0.0,0.0,0.0,0.0,0.0,0.0,-3.4742,-3.5436,-3.5215,-3.5096,-3.5128,-3.4452,-3.3744,-3.2983,-3.1917,-3.0857,-2.9774,0.0,0.0,0.0,0.0,0.0,0.0,0.0,0.0,0.0,0.0,0.0,0.0,0.0,0.0,0.0,0.0,0.0,0.0,0.0,0.0,0.0,0.0,0.0,0.0,0.0,-3.4344,0.0,0.0,0.0,0.0,0.0,0.0,0.0,0.0,0.0,0.0,0.0,-3.9883,-4.1091,-4.254,-4.3248,-4.2427,-4.3332,-4.368,0.0,0.0,0.0,0.0,0.0,0.0,0.0,0.0,0.0,0.0,0.0,0.0,0.0,0.0,-4.0087,-3.7676,-3.7019,-3.7048,-3.777,0.0,0.0,0.0,0.0,0.0,0.0,0.0,0.0,0.0,0.0,0.0,0.0,0.0,0.0,-3.9165,0.0,-3.8227,0.0,0.0,0.0,0.0,0.0,0.0,0.0,0.0,-4.0483,-4.074,-3.9985,-4.0488,-4.061,0.0,-4.0109,-3.881,0.0,0.0,0.0,0.0,0.0,0.0,0.0,0.0,-3.5444,-3.589,-3.5299,-3.504,-3.5109,-3.4493,-3.3862,-3.3261,-3.2353,-3.1021,-2.9251,-2.817,-2.7651,0.0,0.0,0.0,0.0,0.0,0.0,0.0,0.0,0.0,0.0,0.0,0.0,0.0,0.0,0.0,0.0,0.0,0.0,0.0,0.0,0.0,0.0,0.0,-3.4839,0.0,0.0,0.0,0.0,0.0,0.0,0.0,0.0,0.0,-3.9848,-4.0255,-4.0846,-4.1512,-4.2561,-4.283,-4.1769,0.0,0.0,0.0,0.0,0.0,0.0,0.0,-3.9592,-3.9935,-3.9961,-3.9864,-3.9737,-4.0182,-4.0436,-4.0062,0.0,0.0,-3.8774,-3.8356,-3.8567,-3.9238,-3.9638,-4.0113,-4.0942,-4.089,-4.0596,0.0,0.0,0.0,0.0,0.0,0.0,0.0,0.0,-4.0801,-4.0624,0.0,-3.9822,0.0,0.0,0.0,0.0,0.0,-4.1151,0.0,0.0,-4.2419,-4.2621,-4.0917,-4.0869,-4.0764,-4.0633,-4.1332,-4.0818,-3.9207,-3.7598,0.0,0.0,0.0,0.0,0.0,0.0,-3.6793,-3.6603,-3.5558,-3.5306,-3.5864,-3.4801,-3.4207,-3.4261,-3.2884,-3.1173,-2.9188,-2.9323,-2.9032,-2.7994,-2.7901,0.0,0.0,0.0,0.0,0.0,0.0,0.0,0.0,0.0,0.0,0.0,0.0,0.0,0.0,0.0,0.0,0.0,0.0,0.0,0.0,-3.6056,0.0,0.0,0.0,0.0,0.0,0.0,0.0,0.0,0.0,0.0,-3.9825,-4.1462,-4.2616,-4.2234,0.0,0.0,0.0,0.0,-4.2364,-4.0685,-4.0487,-4.026,-3.956,-3.9492,-3.9716,-4.0085,0.0,0.0,-4.0745,-4.0731,-4.0683,-4.068,-4.115,-4.1332,-4.0802,-4.1035,-4.1278,-4.0961,-4.102,-4.1443,-4.2083,-4.176,-4.1366,-4.4698,0.0,0.0,0.0,0.0,-4.3312,-4.342,-4.3503,-4.3047,-4.2362,-4.1539,-4.091,0.0,0.0,0.0,0.0,0.0,0.0,-4.1535,-4.1677,-4.1794,-4.1837,-4.1809,-4.1742,-4.1978,-4.2416,-4.1966,-4.1841,-4.1841,-3.9665,-3.8503,-3.8353,0.0,0.0,0.0,0.0,-3.5803,-3.5739,-3.5221,-3.4964,-3.5052,-3.4498,-3.3798,-3.3001,-3.1992,-3.0912,-2.9766,-2.9597,-2.9374,-2.9122,-2.9106,0.0,0.0,0.0,0.0,0.0,0.0,0.0,0.0,0.0,0.0,0.0,0.0,0.0,0.0,0.0,0.0,0.0,0.0,0.0,-3.6911,-3.6356,-3.6209,0.0,0.0,0.0,0.0,0.0,0.0,0.0,0.0,0.0,-4.0605,-4.1424,-4.2076,0.0,0.0,-4.1517,-4.1288,-4.0978,-4.0717,-4.0612,-3.9728,0.0,0.0,-3.901,-3.8952,-3.9336,-4.0158,-4.0793,-4.0823,-4.0762,-4.0731,-4.084,-4.1241,-4.1464,-4.1321,-4.1666,-4.2044,-4.225,-4.2348,-4.2538,-4.2992,-4.2938,-4.2723,-4.5427,-4.4098,-4.414,-4.4157,-4.4157,-4.4201,-4.4312,-4.4455,-4.4253,-4.3845,-4.3357,-4.2812,-4.1815,-4.0443,-4.0156,0.0,0.0,0.0,-4.1861,-4.1361,-4.1537,-4.128,-4.0753,-4.0996,-4.115,-4.1145,-4.0607,-4.0592,-4.1066,-3.9181,-3.818,-3.7969,0.0,0.0,-3.6781,-3.6208,-3.5715,-3.5369,-3.5053,-3.4831,-3.4694,-3.4279,-3.3652,-3.2745,-3.1951,-3.1193,-3.046,-3.007,-2.9897,-2.9881,-2.9951,-2.9805,0.0,0.0,0.0,0.0,0.0,0.0,0.0,0.0,0.0,0.0,0.0,-3.3795,-3.3992,0.0,0.0,0.0,-3.5776,-3.6521,-3.727,-3.6914,0.0,0.0,0.0,0.0,0.0,0.0,0.0,-4.0444,-4.0978,-4.1218,-4.0938,-4.1072,-4.1388,-4.1797,-4.1354,-4.0891,-4.058,0.0,-4.0175,-4.0047,-3.9311,-3.8841,-3.9015,-3.8745,-3.8597,-3.8909,-3.9448,-3.9881,-3.9996,-4.0279,-4.0516,-4.0562,-4.1297,-4.1985,-4.1803,-4.2029,-4.2389,-4.2792,-4.2777,-4.2776,-4.2986,-4.2782,-4.2475,-4.5623,-4.4894,-4.4894,-4.4914,-4.4992,-4.4933,-4.4484,-4.386,-4.4582,-4.4848,-4.4801,-4.4777,-4.4243,-4.323,-4.2519,0.0,-4.1169,-4.2692,-4.2162,-4.0073,-4.1596,-4.0972,-3.8597,-3.9337,-3.9143,-3.8141,-3.8129,-3.8054,-3.8007,-3.7219,-3.718,-3.7873,-3.7954,-3.7583,-3.6812,-3.6647,-3.6166,-3.53,-3.5035,-3.4831,-3.4653,-3.416,-3.3671,-3.3196,-3.25,-3.1844,-3.115,-3.0764,-3.0493,-3.0418,-3.0584,-3.0442,-2.9976,0.0,0.0,0.0,0.0,0.0,0.0,0.0,0.0,0.0,0.0,0.0,0.0,0.0,0.0,0.0,-3.6093,0.0,-3.7542,-3.768,0.0,0.0,0.0,-3.9125,-3.9197,-3.9848,-4.0362,-4.0485,0.0,0.0,-4.0867,-4.0597,-4.057,-4.0972,-4.0974,-4.0726,-4.0257,-4.0363,-4.0185,-3.9146,-3.9085,-3.9091,-3.8842,-3.8617,-3.8501,-3.8622,-3.8656,-3.8715,-3.8801,-3.9556,-4.0053,-3.9829,-4.1333,-4.2515,-4.2101,-4.2031,-4.2331,-4.2613,-4.2448,-4.2213,-4.2176,-4.1699,-4.1277,-4.4214,-4.4016,-4.4009,-4.4399,-4.4933,-4.4289,-4.427,-4.4641,-4.4204,-4.3634,-4.3025,-4.3007,-4.2154,-4.0695,-4.0502,-4.0684,-4.1107,-4.084,-4.1127,-4.1752,-4.1518,-4.0714,-3.9494,-3.9633,-3.9194,-3.8287,-3.8156,-3.8054,-3.7988,-3.7796,-3.745,-3.7046,-3.7026,-3.6925,-3.6713,-3.6008,-3.5526,-3.5315,-3.5035,-3.4732,-3.4409,-3.4173,-3.3778,-3.3214,-3.2745,-3.2144,-3.1422,-3.1128,-3.1106,-3.1342,-3.1418,-3.1389,-3.124,-3.1188,0.0,0.0,0.0,0.0,0.0,0.0,0.0,0.0,0.0,-3.5067,-3.4583,0.0,-3.6576,0.0,-3.684,-3.789,-3.9315,-3.8879,0.0,0.0,-3.9871,-4.0005,-4.0004,-4.0193,-4.0325,-4.0396,-4.0569,-4.052,-4.0122,-3.9947,-3.9796,-3.9505,-3.935,-3.9415,-3.9786,-3.9349,-3.8849,-3.8561,-3.8348,-3.8151,-3.7996,-3.8041,-3.8077,-3.8066,-3.8426,-3.8808,-3.9017,-3.9305,-3.9526,-3.9754,-4.0414,-4.0888,-4.0881,-4.1142,-4.1394,-4.1492,-4.1449,-4.1405,-4.1387,-4.1236,-4.1153,-4.3115,-4.3099,-4.2698,-4.3049,-4.3814,-4.3732,-4.3966,-4.4376,-4.3899,-4.3212,-4.2383,-4.2362,-4.1847,-4.0996,-4.0974,-4.0991,-4.1033,-4.0207,-4.012,-4.0678,-4.021,-3.9331,-3.8141,-3.8471,-3.8141,-3.724,-3.7104,-3.6798,-3.6382,-3.6722,-3.6469,-3.5603,-3.5968,-3.618,-3.6161,-3.5609,-3.5522,-3.5871,-3.5189,-3.4693,-3.4431,-3.4245,-3.3954,-3.3532,-3.3069,-3.2595,-3.2109,-3.1808,-3.1771,-3.2022,-3.2127,-3.2115,-3.1984,-3.1959,-3.1771,0.0,0.0,0.0,0.0,0.0,0.0,0.0,0.0,0.0,0.0,0.0,-3.7033,-3.747,-3.7946,-3.8766,-4.0062,-3.9757,-3.97,-4.0234,-4.0329,-4.031,-4.031,-4.0308,-4.0362,-4.0432,-4.0485,-4.0381,-4.002,-3.9813,-3.9387,-3.8609,-3.8324,-3.8481,-3.9122,-3.8771,-3.8364,-3.8354,-3.8072,-3.7793,-3.7521,-3.7535,-3.7562,-3.7376,-3.7335,-3.7428,-3.7701,-3.7922,-3.8224,-3.8798,-3.9644,-4.0336,-4.0474,-4.055,-4.0657,-4.0565,-4.0068,-3.9871,-4.0396,-4.0317,-4.0018,-4.2229,-4.2158,-4.1406,-4.1538,-4.228,-4.3032,-4.3436,-4.3519,-4.3422,-4.2944,-4.2239,-4.2169,-4.2064,-4.1885,-4.1913,-4.1431,-4.0586,-3.9804,-3.9157,-3.8598,-3.8578,-3.7717,-3.6208,-3.6931,-3.6762,-3.5749,-3.5592,-3.5066,-3.4168,-3.4834,-3.4853,-3.4237,-3.4968,-3.5391,-3.5488,-3.5331,-3.5595,-3.622,-3.5304,-3.4695,-3.4454,-3.4284,-3.4124,-3.3921,-3.3439,-3.3087,-3.2908,-3.2648,-3.255,-3.2616,-3.2795,-3.2787,-3.2529,-3.252,-3.23,0.0,-3.1898,0.0,0.0,0.0,0.0,0.0,0.0,0.0,0.0,-3.6026,-3.7337,-3.9049,-3.9164,-3.947,-4.0234,-4.0329,-4.031,-4.031,-4.031,-4.031,-4.0307,-4.0211,-4.0227,-4.0482,-4.031,-4.0128,-4.0005,-3.969,-3.901,-3.8029,-3.7664,-3.7698,-3.8193,-3.8156,-3.799,-3.8104,-3.7851,-3.7309,-3.7003,-3.6852,-3.67,-3.6478,-3.6011,-3.5563,-3.5954,-3.6323,-3.6762,-3.7496,-3.8611,-3.9608,-4.009,-3.9803,-3.9601,-3.9501,-3.8512,-3.8103,-3.9136,-3.897,-3.8235,-4.1335,-4.1315,-4.1169,-4.1203,-4.1354,-4.1518,-4.1992,-4.2598,-4.1905,-4.1499,-4.1344,-4.1344,-4.0552,-3.9277,-3.9228,-3.8772,-3.7936,-3.7778,-3.8002,-3.8515,-3.8516,-3.8005,-3.7094,-3.7231,-3.6433,-3.4915,-3.4769,-3.4229,-3.3247,-3.3338,-3.366,-3.4199,-3.4372,-3.4795,-3.5416,0.0,0.0,0.0,-3.4717,-3.4471,-3.3688,-3.4054,-3.4221,-3.4074,-3.3743,0.0,-3.3357,-3.3232,-3.3202,-3.3327,-3.3397,0.0,0.0,0.0,0.0,0.0,0.0,0.0,0.0,0.0,0.0,0.0,-3.6272,-3.6768,-3.6159,-3.7545,-3.8936,-3.9947,-4.0062,-4.0119,-4.0291,-4.0329,-4.0329,-4.0327,-4.0308,-4.0307,-4.0342,-3.9747,-3.961,-4.0386,-3.9272,-3.8594,-3.903,-3.8498,-3.7771,-3.7186,-3.7,-3.6875,-3.6746,-3.6685,-3.654,-3.654,-3.6359,-3.5993,-3.565,-3.5492,-3.54,-3.4984,-3.508,-3.5173,-3.5482,-3.5774,-3.6152,-3.6673,-3.6999,-3.7248,-3.7359,-3.7211,-3.7341,-3.7211,-3.6951,-3.7004,-3.7882,-3.7525,-3.6943,-4.1106,0.0,-4.11,-4.1114,0.0,-4.1117,-4.135,-4.1738,-4.1304,-4.1117,-4.1052,-4.0195,-3.9571,-3.9104,-3.8249,-3.7854,-3.7788,-3.696,-3.706,-3.7851,-3.7012,-3.6425,-3.6003,-3.5576,-3.4908,-3.4014,-3.3951,-3.3407,-3.2504,-3.2822,-3.2976,-3.2987,-3.3397,-3.3808,-3.4199,-3.3749,-3.3451,-3.3368,-3.4445,-3.451,-3.3581,-3.413,-3.4358,-3.413,0.0,0.0,0.0,0.0,0.0,0.0,0.0,0.0,0.0,0.0,0.0,-3.4274,-3.4363,-3.4409,-3.4495,-3.5042,-3.5203,-3.4906,-3.6251,-3.7254,-3.7603,-3.8478,-3.9374,-4.0196,-3.9909,-3.9661,-3.9642,-3.9297,-3.9066,-3.9063,-3.9099,-3.9133,-3.9109,-3.8783,-3.8719,-3.9077,-3.8497,-3.8082,-3.8399,-3.7976,-3.7319,-3.668,-3.6362,-3.6037,-3.548,-3.5744,-3.6065,-3.6012,-3.589,-3.567,-3.539,-3.5289,-3.5117,-3.4995,-3.4744,-3.4763,-3.5095,-3.498,-3.5082,-3.5803,-3.5996,-3.6107,-3.6523,-3.6589,-3.6599,-3.6562,-3.6278,-3.6122,-3.6562,-3.6567,-3.6426,-4.1114,-4.1106,-4.1114,-4.1109,-4.1109,-4.1117,-4.1085,-4.1078,0.0,0.0,0.0,-3.9182,-3.8793,-3.9221,-3.7819,-3.7492,-3.7893,-3.6367,-3.6069,-3.6718,-3.5194,-3.4453,-3.4425,-3.3724,-3.3316,-3.3161,-3.3096,-3.2591,-3.1732,-3.2338,-3.2338,-3.1835,-3.2432,-3.2736,-3.2692,-3.2615,-3.2516,-3.244,-3.3862,-3.4242,-3.3431,-3.3917,-3.412,-3.4041,-3.3839,-3.3667,-3.3541,-3.3652,-3.3769,-3.3725,-3.3949,-3.4124,-3.4221,-3.4293,-3.4381,-3.4409,-3.4495,-3.4539,-3.4561,-3.486,-3.5172,-3.5419,-3.6036,-3.7072,-3.8684,-3.8816,-3.912,-3.9865,-3.9252,-3.8831,-3.8833,-3.8254,-3.783,-3.7816,-3.7868,-3.792,-3.7894,-3.7775,-3.779,-3.793,-3.7738,-3.7623,-3.7738,-3.7405,-3.695,-3.6252,-3.5814,-3.5285,-3.4577,-3.5016,-3.5499,-3.5417,-3.5284,-3.5289,-3.5155,-3.5019,-3.5091,-3.4813,-3.4474,-3.4329,-3.4511,-3.4256,-3.4305,-3.5076,-3.5274,-3.5516,-3.6055,-3.6129,-3.624,-3.624,-3.5739,-3.5274,-3.5318,-3.5578,-3.5634,-4.1117,-4.1117,-4.1117,-4.111,-4.111,-4.111,-4.1071,-4.0945,-4.0232,-3.9859,-3.9749,-3.8835,-3.8058,-3.7467,-3.7234,-3.674,-3.6045,-3.5113,-3.4775,0.0,-3.3914,-3.3522,-3.3572,-3.3455,-3.3005,-3.2319,-3.2226,-3.1721,-3.0958,-3.095,-3.1213,-3.1729,-3.1843,-3.1885,-3.185,-3.1808,-3.1405,-3.0714,-3.2161,-3.2817,-3.2579,-3.2562,-3.2837,-3.3347,-3.2639,-3.2177,-3.2108,-3.2804,-3.318,-3.3152,-3.3897,-3.434,-3.4381,-3.445,-3.4473,-3.4495,-3.4666,-3.4768,-3.4768,-3.5571,-3.6498,-3.7313,-3.6367,-3.6356,-3.7878,-3.8089,-3.8232,-3.8402,-3.8305,-3.8196,-3.8161,-3.7993,-3.7849,-3.7836,-3.7894,-3.7909,-3.7877,-3.7281,-3.7127,-3.7757,-3.6699,-3.618,-3.6642,-3.6248,-3.5699,-3.5348,-3.5151,-3.4946,-3.4454,-3.4178,-3.411,-3.4018,-3.3962,-3.3818,-3.3846,-3.3653,-3.3821,-3.3509,-3.3889,-3.4081,-3.4152,-3.4203,-3.4271,-3.4383,-3.45,-3.4537,-3.4667,-3.455,-3.4723,-3.476,-3.4593,-3.45,-3.4481,-3.4134,-3.3799,-4.1078,-4.1057,-4.1038,-4.103,-4.1007,-4.0988,-4.0943,-4.0752,-3.9489,-3.9198,-3.946,-3.8255,-3.7469,-3.7081,-3.6595,-3.6151,-3.5726,-3.5377,-3.4967,-3.4456,-3.3663,-3.3077,-3.2674,-3.2246,-3.1855,-3.1444,-3.1422,-3.1159,-3.0726,-3.0691,-3.0845,-3.1137,-3.1108,-3.1091,-3.1056,-3.0968,-3.0751,-3.0405,-3.191,-3.24,-3.1827,-3.2108,-3.241,-3.2687,-3.2185,-3.1949,-3.1908,-3.2284,-3.2698,-3.3082,-3.3564,-3.4001,-3.4435,-3.4517,-3.4602,-3.4666,-3.4791,-3.4908,-3.4964,-3.5501,-3.6055,-3.6594,-3.6029,-3.5929,-3.6682,-3.7119,-3.7559,-3.802,-3.7727,-3.7428,-3.7375,-3.6953,-3.6633,-3.66,-3.6603,-3.6613,-3.6589,-3.6353,-3.6238,-3.6507,-3.5988,-3.5474,-3.5353,-3.5026,-3.4537,-3.4074,-3.4155,-3.4393,-3.4501,-3.4357,-3.4141,-3.4005,-3.3921,-3.3895,-3.3813,-3.3813,-3.3858,-3.3858,-3.4005,-3.4124,-3.4148,-3.4293,-3.4316,-3.4316,-3.4311,-3.4293,-3.4293,-3.4311,-3.4293,-3.4293,-3.4316,-3.4316,-3.4242,-3.3682,-3.2989,-4.103,-4.096,-4.098,-4.0943,-4.0888,-4.0684,-4.0577,-4.0361,-3.8741,-3.8374,-3.8743,-3.7423,-3.6774,-3.6716,-3.6075,-3.5765,-3.5745,-3.5571,-3.501,-3.4179,-3.338,-3.2576,-3.1825,-3.1171,-3.0918,-3.0918,-3.0918,-3.0838,-3.0747,-3.0782,-3.0739,-3.0637,-3.0632,-3.0582,-3.053,-3.0469,-3.0406,-3.0467,-3.1629,-3.1934,-3.1333,-3.1642,-3.1843,-3.1977,-3.1692,-3.1536,-3.1517,-3.1705,-3.2077,-3.2655,-3.2964,-3.3454,-3.4223,-3.4367,-3.4468,-3.4585,-3.4849,-3.5047,-3.5184,-3.5359,-3.5519,-3.559,-3.5503,-3.5485,-3.5546,-3.5812,-3.6493,-3.7317,-3.7007,-3.6675,-3.6618,-3.6077,-3.556,-3.5531,-3.5528,-3.5476,-3.5257,-3.5199,-3.5103,-3.5007,-3.4911,-3.4622,-3.4116,-3.3923,-3.368,-3.3192,-3.3327,-3.3789,-3.4187,-3.4188,-3.4028,-3.3971,-3.3995,-3.4165,-3.4311,-3.4284,-3.4316,-3.4427,-3.4363,-3.4363,-3.4409,-3.4409,-3.4409,-3.4386,-3.4386,-3.4386,-3.4386,-3.4386,-3.4292,-3.4139,-3.4176,-3.4274,-3.3769,-3.3053,-3.2378,-4.0917,-4.0917,-4.0917,-4.0907,-4.0801,-4.0082,-3.9751,-3.9508,-3.7807,-3.7069,-3.7138,-3.6209,-3.5861,-3.5822,-3.5764,-3.5706,-3.5648,-3.4893,-3.4129,-3.3351,-3.2491,-3.1703,-3.1055,-3.0916,-3.0918,-3.0898,-3.0918,-3.0898,-3.0859,-3.0829,-3.0765,-3.0711,-3.0686,-3.0665,-3.0595,-3.0527,-3.0463,-3.0398,-3.0482,-3.0784,-3.1234,-3.0632,-3.0608,-3.1271,-3.0519,-3.0088,-3.0163,-3.0806,-3.1186,-3.1261,-3.1996,-3.2808,-3.3449,-3.375,-3.3872,-3.3911,-3.4768,-3.5372,-3.5432,-3.559,-3.564,-3.5639,-3.5086,-3.4762,-3.4709,-3.414,-3.4404,-3.5671,-3.6026,-3.5908,-3.5996,-3.5814,-3.5585,-3.536,-3.5423,-3.5261,-3.4507,-3.4314,-3.4039,-3.3306,-3.3378,-3.3115,-3.3121,-3.3012,-3.2929,-3.2807,-3.2846,-3.301,-3.3054,-3.3013,-3.298,-3.3047,-3.3599,-3.4236,-3.4352,-3.4489,-3.451,-3.4483,-3.4645,-3.4645,-3.4561,-3.4495,-3.4473,-3.445,-3.4427,-3.4427,-3.4334,-3.4367,-3.4087,-3.3568,-3.3661,-3.39,-3.2611,-3.171,-3.1238,-4.0869,-4.0839,-4.0858,-4.0848,-4.0718,-3.9901,-3.9542,-3.9367,-3.7677,-3.6899,-3.6791,-3.6006,-3.5651,-3.5704,-3.5704,-3.5673,-3.5623,-3.5256,-3.4668,-3.3819,-3.302,-3.2227,-3.1471,-3.0967,-3.0811,-3.0897,-3.0917,-3.0917,-3.0898,-3.0858,-3.0829,-3.0746,-3.0758,-3.0715,-3.065,-3.062,-3.0593,-3.0545,-3.0001,-3.0076,-3.066,-3.036,-3.0251,-3.0456,-3.013,-2.9645,-2.9266,-2.9531,-2.9668,-2.9672,-3.0026,-3.0555,-3.1315,-3.1457,-3.1746,-3.2367,-3.3423,-3.4098,-3.4205,-3.4711,-3.5086,-3.5106,-3.4842,-3.4651,-3.4624,-3.389,-3.374,-3.427,-3.4423,-3.4417,-3.4441,-3.4404,-3.4302,-3.4196,-3.4148,-3.3961,-3.355,-3.3499,-3.3338,-3.3041,-3.2972,-3.2728,-3.2289,-3.1777,-3.1738,-3.2054,-3.2196,-3.2295,-3.2666,-3.2785,-3.2761,-3.2824,-3.3201,-3.3633,-3.4016,-3.4149,-3.4358,-3.4699,-3.4849,-3.4791,-3.467,-3.4666,-3.4645,-3.4539,-3.4517,-3.4311,-3.3827,-3.3786,-3.3559,-3.2959,-3.2657,-3.2788,-3.2154,-3.1403,-3.11,-4.0787,-4.0734,-4.0529,-4.0563,-4.061,-3.9315,-3.8902,-3.889,-3.7281,-3.6535,-3.6477,-3.5874,-3.5616,-3.5643,-3.543,-3.5284,-3.5222,-3.499,-3.4438,-3.3616,-3.2997,-3.2302,-3.1527,-3.0989,-3.0723,-3.0827,-3.085,-3.0874,-3.0857,-3.0605,-3.0644,-3.0775,-3.0832,-3.0804,-3.0735,-3.072,-3.0706,-3.0608,-2.9788,-2.9583,-3.0053,-2.9974,-2.996,-3.0095,-2.9817,-2.9486,-2.9144,-2.8673,-2.8544,-2.8757,-2.8548,-2.8791,-2.9582,-2.9717,-3.0169,-3.1114,-3.1748,-3.2365,-3.2882,-3.3562,-3.4038,-3.4285,-3.4156,-3.3991,-3.3846,-3.3205,-3.2739,-3.2723,-3.2702,-3.2817,-3.3358,-3.336,-3.3307,-3.3239,-3.3161,-3.3045,-3.2733,-3.267,-3.2532,-3.237,-3.2158,-3.2089,-3.1463,-3.0942,-3.0827,-3.1279,-3.1383,-3.1546,-3.2124,-3.2223,-3.2186,-3.2225,-3.2199,-3.2703,-3.37,-3.4041,-3.4282,-3.456,-3.4755,-3.4832,-3.466,-3.4622,-3.4809,-3.4708,-3.4666,-3.4384,-3.3744,-3.3443,-3.2727,-3.2032,-3.156,-3.1503,-3.1713,-3.1111,-3.0697,-4.0668,-4.0565,-3.9824,-3.9946,-4.0409,-3.8035,-3.7456,-3.8132,-3.6433,-3.5681,-3.5719,-3.5572,-3.5584,-3.5488,-3.4677,-3.4369,-3.4272,-3.3616,-3.2852,-3.2169,-3.1971,-3.1443,-3.0696,-3.0614,-3.0619,-3.0622,-3.0629,-3.0682,-3.0796,-3.0114,-3.0075,-3.0857,-3.0897,-3.0859,-3.0772,-3.0684,-3.0684,-3.0511,-2.9649,-2.9271,-2.9343,-2.9337,-2.9571,-3.0004,-2.9513,-2.9475,-2.9839,-2.8613,-2.8058,-2.8815,-2.8058,-2.8089,-2.8902,-2.9168,-2.9671,-3.0522,-3.0097,-3.0394,-3.1709,-3.2143,-3.2569,-3.3177,-3.2784,-3.2287,-3.2428,-3.1727,-3.128,-3.1089,-3.1226,-3.1771,-3.2883,-3.3035,-3.3122,-3.3098,-3.3134,-3.2679,-3.1939,-3.1806,-3.1397,-3.0925,-3.0848,-3.0856,-3.0644,-3.0548,-3.0528,-3.0644,-3.0595,-3.0692,-3.0807,-3.0769,-3.07,-3.0681,-3.0805,-3.1368,-3.3459,-3.3691,-3.375,-3.4069,-3.4304,-3.4672,-3.4432,-3.4263,-3.4567,-3.4679,-3.4318,-3.3939,-3.36,-3.2845,-3.1788,-3.0865,-2.9926,-2.9851,-3.0675,-3.0366,-3.0139,-4.0434,-4.0358,-3.9496,-3.9711,-4.0279,-3.7868,-3.7289,-3.7906,-3.6273,-3.5528,-3.5432,-3.4944,-3.47,-3.4623,-3.3256,-3.3229,-3.4101,-3.3369,-3.2817,-3.2459,-3.1973,-3.1602,-3.1361,-3.0815,-3.0268,-2.9911,-2.9916,-2.9991,-3.0111,-3.027,-3.0582,-3.0836,-3.0914,-3.0877,-3.0781,-3.0273,-2.9999,-2.9859,-2.8584,-2.8064,-2.8509,-2.8049,-2.8129,-2.888,-2.9631,-2.9593,-2.8839,-2.8202,-2.7547,-2.6698,-2.636,-2.6359,-2.6713,-2.7334,-2.7835,-2.8207,-2.8501,-2.8933,-2.9597,-3.0645,-3.1418,-3.176,-3.2018,-3.2022,-3.1965,-3.1381,-3.0913,-3.0896,-3.0897,-3.1092,-3.0975,-3.1443,-3.1766,-3.1721,-3.1641,-3.1514,-3.1134,-3.0993,-3.0878,-3.0637,-3.0579,-3.0569,-3.0569,-3.0569,-3.0559,-3.055,-3.053,-3.052,-3.0443,-3.0085,-2.9718,-2.9574,-2.9255,-2.9513,-3.1426,-3.225,-3.264,-3.3116,-3.3455,-3.3429,-3.3271,-3.3146,-3.3342,-3.3184,-3.3109,-3.2409,-3.1669,-3.0435,-2.9639,-2.932,-2.8369,-2.8933,-2.9455,-2.9817,-2.9946,-4.0027,-3.9421,-3.8898,-3.9089,-3.9427,-3.7359,-3.6858,-3.7436,-3.6138,-3.5355,-3.4989,-3.4366,-3.3968,-3.3583,-3.2333,-3.2269,-3.3236,-3.2524,-3.2127,-3.2045,-3.1525,-3.1291,-3.1212,-3.0702,-3.0056,-2.9341,-2.8837,-2.8925,-2.9455,-2.958,-3.0051,-3.0813,-3.0637,-3.0619,-3.0736,-3.0307,-2.9897,-2.939,-2.8162,-2.7617,-2.7729,-2.7256,-2.7184,-2.7858,-2.9075,-2.9271,-2.8061,-2.7517,-2.6851,-2.5965,-2.559,-2.5441,-2.5549,-2.6097,-2.6446,-2.6509,-2.7032,-2.7537,-2.7869,-2.8928,-2.9713,-3.0072,-3.0678,-3.1089,-3.0895,-3.0524,-3.0272,-3.0116,-3.0058,-2.9765,-2.9473,-2.9726,-3.0154,-3.032,-3.0352,-3.0429,-3.0619,-3.0649,-3.0632,-3.0625,-3.0597,-3.0597,-3.0597,-3.0597,-3.0586,-3.0604,-3.0558,-3.0559,-3.0472,-2.9863,-2.9284,-2.9196,-2.8607,-2.8675,-2.9564,-3.0209,-3.1388,-3.1994,-3.2276,-3.2237,-3.1999,-3.1952,-3.1866,-3.1675,-3.1189,-3.0386,-2.9338,-2.8075,-2.7651,-2.757,-2.8008,-2.8579,-2.9141,-2.9761,-2.9918,-3.9445,-3.7936,-3.7894,-3.8031,-3.7969,-3.6353,-3.5988,-3.6584,-3.5815,-3.4955,-3.4353,-3.3878,-3.332,-3.2795,-3.1936,-3.1679,-3.1641,-3.1006,-3.066,-3.0629,-3.0533,-3.0463,-3.0424,-3.0367,-2.9847,-2.9022,-2.7646,-2.7818,-2.905,-2.8151,-2.8555,-3.0174,-2.9884,-2.9927,-3.0771,-3.0439,-3.0167,-2.933,-2.8335,-2.7672,-2.7107,-2.6894,-2.6875,-2.7051,-2.783,-2.8142,-2.7935,-2.6518,-2.609,-2.6509,-2.5935,-2.5561,-2.559,-2.5752,-2.5746,-2.5806,-2.581,-2.6184,-2.687,-2.7182,-2.7768,-2.8356,-2.8882,-2.9158,-2.8924,-2.9022,-2.9023,-2.8711,-2.8554,-2.8398,-2.8358,-2.8378,-2.873,-2.9433,-2.9599,-2.9929,-3.0412,-3.0656,-3.0632,-3.051,-3.0388,-3.0543,-3.0543,-3.033,-3.0272,-3.0388,-3.0447,-3.0341,-3.0175,-2.9547,-2.9361,-2.9051,-2.8222,-2.7741,-2.7942,-2.8272,-2.968,-3.0835,-3.1025,-3.108,-3.0552,-3.0337,-3.0311,-3.0155,-2.9784,-2.9008,-2.7988,-2.6924,-2.7101,-2.717,-2.7699,-2.8358,-2.9104,-2.9755,-3.0048,-3.8648,-3.7414,-3.699,-3.7258,-3.7655,-3.6089,-3.5844,-3.642,-3.5187,-3.44,-3.3939,-3.2826,-3.2186,-3.1853,-3.1116,-3.077,-3.0775,-3.0463,-3.0336,-3.0336,-3.033,-3.0318,-3.0305,-3.0286,-2.9579,-2.8319,-2.7221,-2.696,-2.7478,-2.7668,-2.8275,-2.8766,-2.8811,-2.8842,-2.9121,-2.8515,-2.803,-2.7743,-2.6944,-2.636,-2.6125,-2.6109,-2.6131,-2.615,-2.6386,-2.6504,-2.644,-2.6486,-2.6362,-2.611,-2.5798,-2.5644,-2.5672,-2.5696,-2.5697,-2.5698,-2.5698,-2.5758,-2.6112,-2.6659,-2.7069,-2.748,-2.8086,-2.8437,-2.832,-2.8398,-2.8417,-2.8261,-2.828,-2.8123,-2.7555,-2.7399,-2.7771,-2.8612,-2.9178,-2.95,-2.9782,-2.9829,-2.9796,-2.9694,-2.9264,-2.9175,-2.9486,-2.9408,-2.9249,-2.9691,-2.9773,-2.9617,-2.9031,-2.8779,-2.8182,-2.7685,-2.6999,-2.6727,-2.7038,-2.7278,-2.8063,-2.9021,-2.937,-2.9632,-2.9158,-2.8724,-2.8694,-2.8574,-2.8209,-2.7629,-2.6589,-2.6331,-2.6582,-2.7005,-2.761,-2.8387,-2.9252,-2.9798,-3.0157,-3.7946,-3.6385,-3.6385,-3.6594,-3.6842,-3.5718,-3.5411,-3.5507,-3.4434,-3.3647,-3.2957,-3.173,-3.1111,-3.1021,-3.0541,-3.033,-3.0362,-3.0299,-3.0267,-3.0267,-3.0305,-3.0279,-3.0113,-2.9538,-2.8682,-2.7418,-2.6506,-2.6329,-2.6676,-2.6948,-2.7423,-2.7975,-2.7862,-2.7982,-2.8212,-2.7764,-2.7376,-2.6971,-2.6505,-2.6041,-2.5769,-2.5696,-2.5698,-2.5698,-2.5699,-2.57,-2.5739,-2.625,-2.6269,-2.58,-2.5702,-2.5702,-2.5702,-2.5701,-2.5702,-2.5703,-2.5702,-2.5703,-2.5762,-2.6211,-2.6523,-2.662,-2.703,-2.7323,-2.7323,-2.7341,-2.7341,-2.7341,-2.7281,-2.7104,-2.6634,-2.6516,-2.679,-2.7258,-2.8027,-2.865,-2.8893,-2.8969,-2.8963,-2.8849,-2.8495,-2.8482,-2.8611,-2.861,-2.8343,-2.886,-2.8946,-2.8851,-2.8207,-2.7885,-2.7334,-2.6804,-2.6343,-2.624,-2.6306,-2.6462,-2.6578,-2.7097,-2.7574,-2.7823,-2.7776,-2.7257,-2.7041,-2.7005,-2.6745,-2.6669,-2.583,-2.6158,-2.6457,-2.6997,-2.7827,-2.8791,-2.9764,-3.0089,-3.0375,-3.7278,-3.5001,-3.5995,-3.6048,-3.5492,-3.53,-3.4917,-3.417,-3.3786,-3.2924,-3.1736,-3.0828,-3.0362,-3.0337,-3.0299,-3.0292,-3.0312,-3.0253,-3.0221,-3.0221,-3.0253,-3.0196,-2.9844,-2.8505,-2.7357,-2.6527,-2.5745,-2.5764,-2.6313,-2.5944,-2.6243,-2.7509,-2.7059,-2.7152,-2.7686,-2.8047,-2.7504,-2.6861,-2.6788,-2.6381,-2.5737,-2.5687,-2.5693,-2.5693,-2.5697,-2.5698,-2.5719,-2.5798,-2.5779,-2.5702,-2.5703,-2.5703,-2.5703,-2.5703,-2.5703,-2.5703,-2.5703,-2.5703,-2.5701,-2.5779,-2.5818,-2.5857,-2.5895,-2.57,-2.5953,-2.605,-2.605,-2.6011,-2.5949,-2.5849,-2.5808,-2.5806,-2.5861,-2.5839,-2.6768,-2.7539,-2.811,-2.8203,-2.8111,-2.8091,-2.8087,-2.8084,-2.8025,-2.7981,-2.793,-2.8108,-2.8118,-2.8008,-2.7732,-2.725,-2.6965,-2.6474,-2.5925,-2.5877,-2.598,-2.5999,-2.6116,-2.6262,-2.6557,-2.6668,-2.6754,-2.6307,-2.5984,-2.5873,-2.5781,-2.5619,-2.5766,-2.6231,-2.6986,-2.7915,-2.8758,-2.9583,-3.0027,-3.0269,-3.0298,-3.6232,-3.502,-3.5439,-3.55,-3.5308,-3.5258,-3.4764,-3.4033,-3.3651,-3.2675,-3.1513,-3.0595,-3.0226,-3.0221,-3.0221,-3.0266,-3.0266,-3.0226,-3.0213,-3.0194,-3.0166,-2.9765,-2.9,-2.7561,-2.6612,-2.6262,-2.56,-2.5354,-2.5538,-2.5418,-2.5599,-2.5981,-2.6036,-2.5993,-2.6238,-2.6439,-2.6286,-2.6077,-2.6041,-2.5983,-2.5771,-2.5696,-2.5701,-2.5703,-2.5705,-2.5689,-2.5691,-2.5694,-2.5697,-2.57,-2.5701,-2.5702,-2.5702,-2.5662,-2.5643,-2.5701,-2.5662,-2.5681,-2.5681,-2.57,-2.57,-2.57,-2.5697,-2.5696,-2.5696,-2.5691,-2.5689,-2.5689,-2.5705,-2.5698,-2.5701,-2.5698,-2.5693,-2.581,-2.642,-2.7229,-2.7827,-2.7656,-2.7245,-2.7186,-2.6711,-2.6747,-2.6963,-2.6831,-2.6677,-2.7089,-2.7205,-2.7062,-2.6753,-2.682,-2.6637,-2.6152,-2.5717,-2.5652,-2.5648,-2.5648,-2.5683,-2.5722,-2.5855,-2.5937,-2.6009,-2.5862,-2.5721,-2.5651,-2.5685,-2.5556,-2.6113,-2.6651,-2.7679,-2.854,-2.9091,-2.9634,-2.9965,-3.0236,-3.0106,-3.553,-3.4675,-3.487,-3.4773,-3.4486,-3.4523,-3.3875,-3.2901,-3.2626,-3.197,-3.0963,-3.0405,-3.0157,-3.0152,-3.018,-3.0213,-3.0213,-3.0185,-2.9961,-2.956,-2.9193,-2.8755,-2.8082,-2.6937,-2.6181,-2.5812,-2.5373,-2.5194,-2.5175,-2.5195,-2.522,-2.5331,-2.5337,-2.5372,-2.5511,-2.551,-2.5591,-2.5643,-2.5636,-2.5668,-2.5701,-2.5658,-2.5684,-2.5693,-2.5676,-2.5581,-2.5232,-2.5156,-2.5299,-2.5581,-2.5698,-2.5698,-2.5659,-2.5327,-2.5326,-2.5618,-2.5385,-2.5287,-2.5637,-2.5696,-2.5696,-2.5696,-2.5691,-2.5689,-2.5687,-2.5701,-2.5698,-2.5698,-2.5693,-2.5693,-2.569,-2.5707,-2.5681,-2.5714,-2.6119,-2.6656,-2.7166,-2.667,-2.64,-2.6226,-2.5973,-2.5739,-2.6305,-2.5892,-2.5925,-2.6191,-2.6359,-2.6095,-2.5828,-2.6132,-2.6287,-2.5856,-2.5641,-2.5604,-2.5585,-2.5585,-2.5565,-2.5563,-2.5582,-2.5581,-2.5598,-2.5593,-2.5617,-2.5632,-2.5585,-2.5736,-2.6277,-2.6919,-2.778,-2.8525,-2.908,-2.9469,-2.9776,-2.9523,-2.946,-3.5105,-3.425,-3.4439,-3.402,-3.3462,-3.3487,-3.2732,-3.1332,-3.1381,-3.0934,-3.0228,-3.0068,-3.0064,-3.0083,-2.9966,-3.0042,-3.0109,-2.9923,-2.9484,-2.8898,-2.8237,-2.7684,-2.7393,-2.6727,-2.5933,-2.5323,-2.5101,-2.5082,-2.5114,-2.5114,-2.5125,-2.5179,-2.5192,-2.5235,-2.5252,-2.524,-2.5284,-2.5221,-2.5032,-2.5036,-2.5068,-2.5052,-2.504,-2.508,-2.5105,-2.4832,-2.442,-2.4286,-2.4569,-2.5366,-2.544,-2.5262,-2.5223,-2.4638,-2.4793,-2.5297,-2.5065,-2.5086,-2.5531,-2.5705,-2.5705,-2.5705,-2.5701,-2.5698,-2.5698,-2.5693,-2.569,-2.5693,-2.5707,-2.5678,-2.5675,-2.5691,-2.566,-2.5643,-2.5668,-2.5648,-2.5644,-2.5629,-2.5607,-2.5595,-2.5598,-2.5613,-2.5613,-2.5615,-2.5625,-2.5809,-2.5858,-2.5741,-2.5601,-2.5762,-2.5852,-2.5696,-2.5595,-2.5573,-2.5567,-2.5584,-2.5548,-2.5531,-2.5534,-2.5547,-2.5586,-2.5599,-2.5642,-2.5693,-2.5878,-2.601,-2.6191,-2.6955,-2.7953,-2.8463,-2.899,-2.9221,-2.9335,-2.8619,-2.8307,-3.4512,-3.4442,-3.4486,-3.4038,-3.3383,-3.3271,-3.235,-3.0866,-3.1129,-3.0658,-2.9937,-2.9746,-2.9864,-3.0011,-2.9474,-2.9451,-2.984,-2.9391,-2.8935,-2.8764,-2.7913,-2.7153,-2.673,-2.635,-2.585,-2.5241,-2.5082,-2.5082,-2.5082,-2.5101,-2.5114,-2.5113,-2.5176,-2.5184,-2.51,-2.4666,-2.4386,-2.4285,-2.3816,-2.3631,-2.3747,-2.3733,-2.3757,-2.3797,-2.379,-2.3639,-2.3464,-2.3386,-2.3486,-2.3608,-2.3647,-2.3684,-2.3864,-2.4115,-2.4369,-2.4662,-2.5149,-2.5405,-2.5637,-2.5654,-2.5693,-2.5693,-2.569,-2.5693,-2.5693,-2.5701,-2.5701,-2.5681,-2.5644,-2.5639,-2.5625,-2.561,-2.5605,-2.5604,-2.5593,-2.5574,-2.5551,-2.5581,-2.5591,-2.5591,-2.56,-2.5604,-2.5599,-2.5593,-2.557,-2.5531,-2.5511,-2.5512,-2.5517,-2.5502,-2.5507,-2.5512,-2.5517,-2.5498,-2.5488,-2.5482,-2.5451,-2.5426,-2.5446,-2.5446,-2.5496,-2.5553,-2.5581,-2.5877,-2.6288,-2.6328,-2.6184,-2.7472,-2.8567,-2.8743,-2.8705,-2.8706,-2.8493,-2.7771,-2.7283,-3.3833,-3.3626,-3.3608,-3.292,-3.1916,-3.1849,-3.116,-3.0174,-3.0234,-3.0054,-2.9626,-2.9588,-2.9489,-2.9166,-2.8831,-2.8922,-2.8936,-2.8439,-2.8108,-2.793,-2.73,-2.6593,-2.625,-2.6071,-2.574,-2.5132,-2.505,-2.505,-2.505,-2.5044,-2.5031,-2.5031,-2.5082,-2.4789,-2.4545,-2.4089,-2.3746,-2.3417,-2.3011,-2.2825,-2.2933,-2.2934,-2.2933,-2.3004,-2.3011,-2.2925,-2.2493,-2.2458,-2.2224,-2.199,-2.1912,-2.2315,-2.2896,-2.3152,-2.3347,-2.3834,-2.4146,-2.4729,-2.496,-2.5444,-2.5636,-2.5664,-2.566,-2.5636,-2.5652,-2.5643,-2.5658,-2.5643,-2.5625,-2.5599,-2.5601,-2.5613,-2.5587,-2.5557,-2.5544,-2.5511,-2.549,-2.5524,-2.5564,-2.5538,-2.5524,-2.5517,-2.5517,-2.5531,-2.551,-2.5445,-2.5448,-2.5445,-2.5445,-2.543,-2.541,-2.541,-2.5406,-2.5406,-2.5379,-2.5364,-2.534,-2.5324,-2.5307,-2.5307,-2.5325,-2.5414,-2.5489,-2.582,-2.6127,-2.6107,-2.6249,-2.7695,-2.8397,-2.7968,-2.7771,-2.7885,-2.7648,-2.6924,-2.6548,-3.314,-3.2596,-3.2485,-3.1524,-3.0271,-3.0318,-2.9899,-2.9104,-2.9123,-2.9191,-2.9107,-2.9345,-2.8746,-2.8091,-2.7954,-2.7938,-2.7754,-2.7565,-2.7328,-2.705,-2.6541,-2.597,-2.5684,-2.5515,-2.534,-2.4927,-2.4936,-2.4898,-2.4742,-2.4902,-2.4872,-2.482,-2.4782,-2.4429,-2.3879,-2.3396,-2.298,-2.2449,-2.2154,-2.2083,-2.2233,-2.2215,-2.2238,-2.2269,-2.2272,-2.2056,-2.159,-2.1415,-2.1182,-2.0497,-2.0464,-2.1258,-2.2033,-2.2305,-2.2051,-2.289,-2.3313,-2.3945,-2.4561,-2.5141,-2.56,-2.56,-2.5609,-2.5599,-2.5599,-2.5599,-2.5618,-2.5587,-2.5582,-2.5576,-2.557,-2.5557,-2.5518,-2.5503,-2.5468,-2.5456,-2.5432,-2.5456,-2.5472,-2.548,-2.5464,-2.5437,-2.5429,-2.5429,-2.5404,-2.5378,-2.5379,-2.538,-2.538,-2.5361,-2.5331,-2.5312,-2.5311,-2.5311,-2.5302,-2.5274,-2.5265,-2.5216,-2.5205,-2.5173,-2.5173,-2.5245,-2.5352,-2.5579,-2.5773,-2.586,-2.6203,-2.7181,-2.7471,-2.6983,-2.6944,-2.7173,-2.675,-2.6069,-2.594,-3.2645,-3.2559,-3.188,-3.1035,-3.0241,-3.0076,-2.9539,-2.8907,-2.8676,-2.8438,-2.8073,-2.8083,-2.7764,-2.7101,-2.6376,-2.6153,-2.6228,-2.645,-2.6505,-2.6053,-2.5641,-2.5329,-2.4754,-2.4549,-2.4474,-2.4599,-2.4492,-2.4231,-2.4105,-2.4473,-2.4358,-2.403,-2.3916,-2.3746,-2.3215,-2.245,-2.176,-2.1415,-2.1007,-2.0795,-2.0821,-2.0847,-2.0845,-2.093,-2.0997,-2.0811,-2.0637,-2.0482,-2.0379,-2.0283,-2.0263,-2.0475,-2.0942,-2.1391,-2.1735,-2.2215,-2.3208,-2.3947,-2.436,-2.5093,-2.5521,-2.5607,-2.5582,-2.5582,-2.5595,-2.5595,-2.5583,-2.557,-2.5538,-2.5506,-2.5437,-2.5437,-2.5434,-2.541,-2.5412,-2.5415,-2.5397,-2.5416,-2.5406,-2.5367,-2.5359,-2.5387,-2.5378,-2.5369,-2.5351,-2.5332,-2.5313,-2.5293,-2.5283,-2.5273,-2.5243,-2.5243,-2.5224,-2.5233,-2.5231,-2.5212,-2.5171,-2.513,-2.5096,-2.5024,-2.5049,-2.5077,-2.5216,-2.5354,-2.5679,-2.5945,-2.6415,-2.685,-2.6705,-2.634,-2.6418,-2.6534,-2.6115,-2.5712,-2.5654,-3.2015,-3.1347,-3.0944,-3.0277,-2.9538,-2.8991,-2.8554,-2.8106,-2.7616,-2.7258,-2.7082,-2.7065,-2.6704,-2.6031,-2.5725,-2.5134,-2.4709,-2.5559,-2.5394,-2.4703,-2.4439,-2.4258,-2.367,-2.3356,-2.303,-2.2974,-2.3077,-2.3337,-2.3269,-2.3361,-2.3375,-2.31,-2.298,-2.2836,-2.2351,-2.1576,-2.0884,-2.0526,-2.0165,-1.9985,-2.005,-2.006,-2.0105,-2.0131,-2.0156,-2.0153,-2.0196,-2.0196,-2.0215,-2.0215,-2.0196,-2.0196,-2.0354,-2.0615,-2.1159,-2.1793,-2.2915,-2.3847,-2.4282,-2.5033,-2.5512,-2.555,-2.5524,-2.5498,-2.551,-2.5503,-2.551,-2.5483,-2.5476,-2.5441,-2.539,-2.5382,-2.5385,-2.5387,-2.5388,-2.537,-2.5351,-2.5351,-2.5293,-2.5234,-2.5284,-2.5293,-2.5341,-2.5322,-2.5303,-2.5283,-2.5233,-2.5222,-2.5201,-2.5171,-2.516,-2.5145,-2.5134,-2.513,-2.5106,-2.5075,-2.5063,-2.5019,-2.4994,-2.4915,-2.4888,-2.4923,-2.4943,-2.5022,-2.5425,-2.5745,-2.5801,-2.5963,-2.5822,-2.577,-2.5848,-2.5873,-2.5631,-2.5437,-2.5421,-3.1214,-3.0125,-2.9813,-2.9276,-2.8552,-2.7762,-2.7369,-2.7154,-2.6617,-2.6213,-2.5991,-2.6133,-2.5713,-2.4972,-2.4618,-2.4059,-2.2795,-2.4058,-2.3768,-2.3192,-2.2986,-2.2879,-2.2606,-2.2205,-2.186,-2.1881,-2.1587,-2.1906,-2.233,-2.2466,-2.2182,-2.199,-2.2026,-2.1815,-2.1237,-2.0891,-2.0346,-2.007,-1.988,-1.993,-1.9955,-2.0019,-2.003,-2.0049,-2.0059,-2.0089,-2.0135,-2.0144,-2.0144,-2.0144,-2.0144,-2.0155,-2.0098,-2.0089,-2.0551,-2.1501,-2.2404,-2.3198,-2.3921,-2.4911,-2.5426,-2.5484,-2.5429,-2.5421,-2.5421,-2.5412,-2.5406,-2.536,-2.5378,-2.5329,-2.526,-2.5302,-2.5293,-2.5253,-2.5243,-2.5262,-2.519,-2.5157,-2.5111,-2.5103,-2.5168,-2.5149,-2.5138,-2.5262,-2.5241,-2.5187,-2.5145,-2.5168,-2.5145,-2.5088,-2.5065,-2.5063,-2.5044,-2.5025,-2.4999,-2.494,-2.4907,-2.4879,-2.4851,-2.4794,-2.4764,-2.4749,-2.4775,-2.478,-2.4842,-2.5095,-2.5094,-2.5207,-2.5313,-2.538,-2.534,-2.5321,-2.5321,-2.5313,-2.5303,-3.0126,-2.9892,-2.8487,-2.7848,-2.7624,-2.6854,-2.6468,-2.6427,-2.6159,-2.5787,-2.5045,-2.5071,-2.4617,-2.3925,-2.3272,-2.2569,-2.2042,-2.2061,-2.2209,-2.1843,-2.1771,-2.1771,-2.1698,-2.1644,-2.1316,-2.108,-2.0698,-2.062,-2.0991,-2.1569,-2.1552,-2.1105,-2.0989,-2.0938,-2.0789,-2.0281,-1.9888,-1.988,-1.9873,-1.9861,-1.9837,-1.9849,-1.9873,-1.9919,-1.993,-1.9952,-2.0026,-2.0036,-2.0036,-2.0036,-2.0026,-2.0017,-2.0009,-1.999,-2.0458,-2.1224,-2.2018,-2.2729,-2.3328,-2.4466,-2.5274,-2.536,-2.535,-2.5387,-2.5331,-2.5322,-2.5264,-2.5143,-2.5224,-2.5187,-2.5053,-2.5086,-2.5061,-2.4949,-2.486,-2.4873,-2.4866,-2.4651,-2.4638,-2.4855,-2.491,-2.4869,-2.4828,-2.5019,-2.5164,-2.5106,-2.5057,-2.5063,-2.5031,-2.4949,-2.4962,-2.494,-2.4926,-2.4903,-2.4875,-2.4827,-2.4798,-2.4753,-2.4723,-2.4676,-2.4663,-2.4631,-2.458,-2.4575,-2.4588,-2.4623,-2.4775,-2.4896,-2.4987,-2.5084,-2.5152,-2.5173,-2.5194,-2.5201,-2.5217,-2.7858,-2.7898,-2.7205,-2.6913,-2.6822,-2.6034,-2.5645,-2.5423,-2.462,-2.4016,-2.3632,-2.318,-2.2817,-2.2491,-2.2129,-2.1586,-2.1043,-2.1224,-2.1224,-2.0898,-2.0844,-2.0826,-2.0752,-2.0442,-2.0189,-2.0172,-1.9845,-1.9679,-1.9906,-2.0147,-2.024,-2.0074,-2.0011,-2.0018,-2.0197,-1.9699,-1.9578,-1.9609,-1.9707,-1.9776,-1.9776,-1.9751,-1.9763,-1.9825,-1.9801,-1.9825,-1.988,-1.9926,-1.9938,-1.9949,-1.993,-1.9926,-1.9884,-1.9861,-2.0042,-2.0304,-2.1073,-2.2073,-2.3299,-2.4415,-2.4889,-2.5111,-2.5102,-2.5088,-2.5084,-2.5072,-2.5049,-2.4943,-2.4975,-2.4941,-2.4862,-2.4898,-2.4893,-2.4771,-2.4365,-2.4431,-2.4379,-2.4148,-2.4091,-2.4377,-2.462,-2.4572,-2.4522,-2.4644,-2.4814,-2.4823,-2.476,-2.4723,-2.4704,-2.4655,-2.4716,-2.4828,-2.4791,-2.4749,-2.4738,-2.4707,-2.4673,-2.4645,-2.4615,-2.4582,-2.4551,-2.4517,-2.4462,-2.4409,-2.4425,-2.4462,-2.452,-2.4617,-2.476,-2.4883,-2.4987,-2.5056,-2.5103,-2.5187,-2.5184,-2.5629,-2.5754,-2.5958,-2.6031,-2.5958,-2.5193,-2.4844,-2.4602,-2.3367,-2.2749,-2.2473,-2.1948,-2.1495,-2.1242,-2.1169,-2.0771,-2.0065,-2.0626,-2.0535,-2.0208,-2.0026,-2.0043,-1.9914,-1.9476,-1.9243,-1.9117,-1.9281,-1.9226,-1.9208,-1.9292,-1.9426,-1.9261,-1.9439,-1.9427,-1.9387,-1.9372,-1.9387,-1.9442,-1.956,-1.9633,-1.966,-1.966,-1.9699,-1.9725,-1.9744,-1.9731,-1.9795,-1.9856,-1.988,-1.9861,-1.9873,-1.9856,-1.9807,-1.9751,-1.9725,-1.9982,-2.0537,-2.1391,-2.2627,-2.3657,-2.4372,-2.4461,-2.4562,-2.4448,-2.449,-2.4592,-2.476,-2.4727,-2.479,-2.4743,-2.467,-2.4678,-2.4501,-2.4195,-2.3786,-2.3889,-2.3885,-2.3599,-2.3484,-2.3702,-2.3967,-2.4265,-2.4247,-2.43,-2.4388,-2.4498,-2.4461,-2.4386,-2.4386,-2.4386,-2.4408,-2.4518,-2.4481,-2.4459,-2.451,-2.4512,-2.4512,-2.4528,-2.4498,-2.45,-2.4465,-2.4447,-2.4393,-2.4338,-2.4321,-2.4321,-2.4358,-2.4429,-2.4512,-2.47,-2.4855,-2.4961,-2.5044,-2.5113,-2.5156,-2.3884,-2.3959,-2.4751,-2.5045,-2.5012,-2.4251,-2.3907,-2.3744,-2.2962,-2.251,-2.2238,-2.1766,-2.0898,-2.0518,-2.0318,-1.9974,-1.9249,-1.9267,-1.9374,-1.9355,-1.9193,-1.9319,-1.9281,-1.9226,-1.9101,-1.9104,-1.9084,-1.9084,-1.9104,-1.9104,-1.912,-1.912,-1.917,-1.9232,-1.9261,-1.9259,-1.9295,-1.9357,-1.942,-1.9435,-1.9479,-1.9522,-1.9606,-1.9692,-1.9705,-1.9731,-1.9795,-1.9807,-1.982,-1.982,-1.982,-1.9795,-1.9744,-1.9686,-1.966,-1.9787,-2.0187,-2.0811,-2.1438,-2.2586,-2.3116,-2.305,-2.3226,-2.3724,-2.3752,-2.4436,-2.464,-2.4543,-2.4564,-2.4498,-2.4422,-2.4318,-2.4148,-2.3592,-2.3188,-2.3004,-2.3006,-2.2938,-2.2868,-2.3033,-2.3398,-2.3873,-2.3999,-2.4041,-2.3841,-2.3897,-2.3897,-2.3824,-2.41,-2.4135,-2.4114,-2.415,-2.4113,-2.4135,-2.4211,-2.4248,-2.4321,-2.4374,-2.4393,-2.4411,-2.4393,-2.4375,-2.4321,-2.4284,-2.4248,-2.421,-2.419,-2.4284,-2.4374,-2.4575,-2.4697,-2.478,-2.4902,-2.5006,-2.5063,-2.2602,-2.2793,-2.3115,-2.3329,-2.3497,-2.319,-2.2795,-2.2292,-2.1568,-2.0916,-2.0536,-2.0155,-1.9847,-1.963,-1.9558,-1.9413,-1.9123,-1.9122,-1.9104,-1.9104,-1.9104,-1.9104,-1.9102,-1.9102,-1.9104,-1.9087,-1.9069,-1.9034,-1.9036,-1.9036,-1.9018,-1.9053,-1.9053,-1.912,-1.9168,-1.9164,-1.9198,-1.9216,-1.9251,-1.9282,-1.9314,-1.939,-1.9479,-1.9508,-1.9625,-1.9638,-1.9697,-1.9718,-1.9731,-1.9744,-1.9744,-1.9731,-1.9692,-1.9665,-1.9625,-1.9583,-1.9991,-2.0051,-2.0278,-2.1503,-2.2346,-2.2405,-2.2741,-2.3191,-2.3225,-2.3959,-2.4299,-2.4302,-2.4301,-2.4265,-2.4155,-2.4117,-2.3897,-2.3088,-2.2612,-2.2392,-2.2228,-2.2227,-2.2663,-2.3008,-2.3404,-2.3819,-2.3852,-2.3813,-2.3526,-2.3272,-2.326,-2.3355,-2.368,-2.3915,-2.3891,-2.391,-2.3912,-2.3935,-2.3999,-2.4077,-2.4115,-2.4173,-2.4229,-2.4229,-2.4229,-2.4284,-2.4229,-2.421,-2.4192,-2.419,-2.419,-2.417,-2.4247,-2.4442,-2.45,-2.4535,-2.4681,-2.4893,-2.4985,-2.168,-2.1693,-2.1625,-2.2003,-2.2535,-2.2319,-2.1924,-2.1385,-2.0644,-1.9812,-1.9088,-1.9087,-1.9104,-1.9104,-1.9122,-1.9123,-1.9088,-1.907,-1.9088,-1.907,-1.907,-1.9087,-1.9087,-1.9087,-1.9053,-1.9054,-1.9019,-1.8984,-1.8788,-1.8914,-1.8861,-1.8843,-1.8966,-1.907,-1.9086,-1.9051,-1.9051,-1.907,-1.9104,-1.9153,-1.9152,-1.9266,-1.9118,-1.9184,-1.9327,-1.9328,-1.9355,-1.941,-1.9665,-1.9679,-1.966,-1.966,-1.9633,-1.9625,-1.9564,-1.955,-1.955,-1.9522,-1.9859,-2.0363,-2.1438,-2.1861,-2.2236,-2.2699,-2.3088,-2.3676,-2.4154,-2.4152,-2.4113,-2.4054,-2.3996,-2.3979,-2.3397,-2.2611,-2.2518,-2.228,-2.1916,-2.1824,-2.2493,-2.305,-2.3446,-2.3747,-2.3541,-2.3484,-2.3394,-2.3214,-2.3401,-2.344,-2.3563,-2.3703,-2.3703,-2.3743,-2.3786,-2.381,-2.3855,-2.3837,-2.3819,-2.3881,-2.3941,-2.3941,-2.3979,-2.4058,-2.4097,-2.4039,-2.4057,-2.417,-2.4151,-2.4094,-2.4172,-2.4284,-2.4386,-2.4495,-2.4644,-2.4861,-2.4931,-2.1122,-2.0564,-2.0529,-2.1295,-2.2242,-2.1668,-2.1233,-2.0984,-2.0317,-1.9633,-1.9055,-1.9053,-1.9053,-1.9053,-1.8984,-1.8949,-1.8914,-1.8913,-1.8931,-1.8914,-1.8896,-1.8966,-1.9019,-1.8984,-1.8878,-1.8861,-1.8807,-1.8696,-1.8465,-1.8678,-1.8623,-1.8566,-1.8734,-1.8984,-1.9052,-1.8966,-1.8931,-1.8932,-1.8984,-1.8984,-1.889,-1.8954,-1.8703,-1.8412,-1.8673,-1.8675,-1.8508,-1.8808,-1.9095,-1.9318,-1.9369,-1.9443,-1.9578,-1.955,-1.9504,-1.9504,-1.9512,-1.9483,-1.9475,-1.9534,-2.0399,-2.1467,-2.1857,-2.2281,-2.296,-2.3601,-2.4094,-2.4054,-2.4032,-2.4012,-2.3971,-2.3842,-2.3062,-2.2496,-2.2401,-2.2291,-2.1909,-2.1781,-2.2499,-2.3127,-2.3448,-2.3642,-2.3343,-2.3155,-2.3151,-2.3245,-2.3495,-2.3585,-2.3504,-2.3499,-2.3481,-2.3504,-2.3549,-2.3531,-2.3535,-2.3518,-2.3522,-2.3588,-2.3671,-2.3714,-2.3777,-2.386,-2.3881,-2.384,-2.3978,-2.4151,-2.4112,-2.4054,-2.4114,-2.4173,-2.4391,-2.4524,-2.4676,-2.4719,-2.4723,-1.9527,-1.9504,-1.9467,-1.9843,-2.041,-2.0306,-2.0055,-1.9705,-1.9435,-1.9165,-1.8949,-1.8825,-1.877,-1.8734,-1.8642,-1.8603,-1.8566,-1.8528,-1.8528,-1.8547,-1.8547,-1.8528,-1.8584,-1.8622,-1.8547,-1.8487,-1.8469,-1.8469,-1.8287,-1.845,-1.841,-1.833,-1.845,-1.8715,-1.8914,-1.8949,-1.8896,-1.8896,-1.8825,-1.8664,-1.8196,-1.8187,-1.7941,-1.7257,-1.7566,-1.7638,-1.7385,-1.7863,-1.8222,-1.8606,-1.8693,-1.8943,-1.93,-1.9401,-1.9442,-1.9479,-1.9501,-1.9468,-1.9589,-1.9816,-2.0333,-2.0978,-2.1585,-2.2172,-2.2868,-2.3617,-2.3888,-2.3958,-2.3974,-2.3933,-2.3889,-2.3868,-2.3286,-2.2628,-2.2443,-2.2425,-2.2242,-2.2255,-2.2608,-2.3181,-2.3589,-2.3544,-2.3333,-2.3053,-2.3012,-2.2864,-2.3041,-2.3253,-2.3271,-2.3253,-2.3241,-2.3223,-2.3247,-2.3247,-2.323,-2.3259,-2.3283,-2.333,-2.3445,-2.3553,-2.3624,-2.3649,-2.3816,-2.3876,-2.4016,-2.4132,-2.4074,-2.3996,-2.3996,-2.4077,-2.4211,-2.4319,-2.4389,-2.4362,-2.4295,-1.8468,-1.8444,-1.8437,-1.8585,-1.8861,-1.9059,-1.8931,-1.8678,-1.8717,-1.8735,-1.8643,-1.8528,-1.8489,-1.845,-1.8371,-1.8287,-1.827,-1.827,-1.827,-1.827,-1.827,-1.831,-1.833,-1.8287,-1.8307,-1.8225,-1.8205,-1.8166,-1.7954,-1.8103,-1.8187,-1.8208,-1.8149,-1.8143,-1.8338,-1.8449,-1.8734,-1.8733,-1.8698,-1.8449,-1.7931,-1.7588,-1.7237,-1.6616,-1.6508,-1.667,-1.6547,-1.6716,-1.7119,-1.7569,-1.7872,-1.8195,-1.872,-1.8985,-1.9054,-1.917,-1.9641,-1.9533,-1.9502,-2.0466,-2.0889,-2.1091,-2.1678,-2.2447,-2.3142,-2.376,-2.3885,-2.3935,-2.3855,-2.3831,-2.3765,-2.3743,-2.3372,-2.2694,-2.2672,-2.2654,-2.2475,-2.2486,-2.2673,-2.3247,-2.3319,-2.3271,-2.3247,-2.3074,-2.288,-2.2698,-2.2558,-2.279,-2.3003,-2.3,-2.2977,-2.3003,-2.3028,-2.3077,-2.3077,-2.3052,-2.3077,-2.3095,-2.3175,-2.3277,-2.3277,-2.3307,-2.3602,-2.3873,-2.3894,-2.3915,-2.3958,-2.3958,-2.3896,-2.3858,-2.3899,-2.4002,-2.4062,-2.4099,-2.4109,-1.7988,-1.7444,-1.7467,-1.7633,-1.7828,-1.8087,-1.8125,-1.8115,-1.8395,-1.8393,-1.8211,-1.829,-1.8249,-1.827,-1.8249,-1.8184,-1.8103,-1.8125,-1.8121,-1.8125,-1.8061,-1.8125,-1.8166,-1.8166,-1.8057,-1.8053,-1.8009,-1.7883,-1.7589,-1.7822,-1.804,-1.8078,-1.7883,-1.774,-1.7775,-1.8056,-1.8325,-1.8294,-1.8439,-1.7982,-1.7329,-1.7276,-1.6472,-1.5842,-1.5666,-1.5757,-1.5745,-1.5932,-1.6369,-1.6684,-1.684,-1.7337,-1.7727,-1.7954,-1.8333,-1.8931,-1.9812,-1.9631,-1.9721,-2.0898,-2.1407,-2.1606,-2.2316,-2.3213,-2.3538,-2.3599,-2.3566,-2.3541,-2.348,-2.3588,-2.366,-2.3464,-2.3249,-2.3061,-2.3056,-2.2873,-2.2607,-2.2658,-2.2863,-2.3028,-2.2884,-2.2833,-2.2773,-2.2678,-2.2573,-2.2424,-2.2278,-2.2285,-2.2512,-2.273,-2.2756,-2.2833,-2.2859,-2.2952,-2.2944,-2.2893,-2.2893,-2.2919,-2.2868,-2.2927,-2.2927,-2.301,-2.3307,-2.3535,-2.3624,-2.3689,-2.3753,-2.3795,-2.3795,-2.3756,-2.3795,-2.384,-2.3983,-2.41,-2.4043,-1.7486,-1.7248,-1.733,-1.7386,-1.7465,-1.7658,-1.7871,-1.809,-1.8194,-1.8173,-1.8128,-1.8014,-1.7949,-1.7927,-1.7772,-1.776,-1.7737,-1.7698,-1.7692,-1.7715,-1.7789,-1.7743,-1.7743,-1.7766,-1.7692,-1.7692,-1.7669,-1.7669,-1.7552,-1.7675,-1.7698,-1.7646,-1.7646,-1.7473,-1.7468,-1.7752,-1.7593,-1.7582,-1.7815,-1.7364,-1.667,-1.643,-1.5486,-1.4865,-1.4659,-1.4683,-1.473,-1.4824,-1.5221,-1.5659,-1.6283,-1.6949,-1.7686,-1.8248,-1.8825,-1.9502,-1.9896,-2.0002,-2.0443,-2.1301,-2.1825,-2.1875,-2.2438,-2.2712,-2.3002,-2.2972,-2.2922,-2.2927,-2.3058,-2.3194,-2.3242,-2.3082,-2.2975,-2.2968,-2.2944,-2.2814,-2.2562,-2.2586,-2.2782,-2.2651,-2.2517,-2.2446,-2.2402,-2.2275,-2.2192,-2.2051,-2.1965,-2.1907,-2.1965,-2.2164,-2.2392,-2.2456,-2.2527,-2.2554,-2.2721,-2.2712,-2.2738,-2.2712,-2.2685,-2.2712,-2.285,-2.3003,-2.3109,-2.3212,-2.3335,-2.3468,-2.3576,-2.3602,-2.3667,-2.3735,-2.3777,-2.3837,-2.3862,-2.3875,-2.3566,-1.7248,-1.7215,-1.7257,-1.7306,-1.733,-1.7434,-1.7612,-1.78,-1.7893,-1.7898,-1.7861,-1.7743,-1.7669,-1.7669,-1.7552,-1.7522,-1.7522,-1.7529,-1.7545,-1.7545,-1.7474,-1.7522,-1.7498,-1.7467,-1.7491,-1.7467,-1.7443,-1.7451,-1.7443,-1.7443,-1.7443,-1.7427,-1.7419,-1.703,-1.6802,-1.6748,-1.6495,-1.6495,-1.653,-1.6533,-1.6094,-1.5465,-1.4607,-1.3932,-1.3767,-1.3796,-1.3878,-1.4056,-1.4629,-1.5152,-1.5926,-1.6707,-1.756,-1.8389,-1.8959,-1.9619,-2.0389,-2.0262,-2.0363,-2.1278,-2.155,-2.1657,-2.1941,-2.1674,-2.1896,-2.2002,-2.2095,-2.2194,-2.2516,-2.2754,-2.2721,-2.2712,-2.2721,-2.2712,-2.2669,-2.2643,-2.2546,-2.2466,-2.2392,-2.2271,-2.2186,-2.2113,-2.201,-2.1895,-2.1777,-2.1615,-2.1415,-2.1244,-2.1337,-2.1505,-2.1731,-2.1907,-2.201,-2.2113,-2.2298,-2.2436,-2.2463,-2.249,-2.2632,-2.2685,-2.2816,-2.2825,-2.285,-2.2968,-2.3098,-2.3212,-2.3307,-2.3463,-2.3553,-2.3628,-2.3512,-2.3337,-2.3252,-2.3244,-2.2775,-1.7149,-1.7149,-1.7232,-1.7232,-1.7257,-1.7281,-1.7289,-1.733,-1.7566,-1.7606,-1.7522,-1.7515,-1.7515,-1.7498,-1.7451,-1.7467,-1.7467,-1.7451,-1.7451,-1.7474,-1.7467,-1.7467,-1.7443,-1.7419,-1.7395,-1.7371,-1.7346,-1.7346,-1.7306,-1.7314,-1.7297,-1.7256,-1.7117,-1.6619,-1.5922,-1.5893,-1.5676,-1.5413,-1.5704,-1.59,-1.5407,-1.4805,-1.4213,-1.363,-1.3557,-1.3688,-1.3875,-1.4306,-1.493,-1.5208,-1.5801,-1.6588,-1.7522,-1.8274,-1.8817,-1.9527,-2.0448,-2.0517,-2.0431,-2.109,-2.1051,-2.1008,-2.0938,-2.0521,-2.0622,-2.16,-2.1953,-2.1558,-2.1756,-2.2241,-2.2341,-2.233,-2.2337,-2.2309,-2.2281,-2.2237,-2.2209,-2.2113,-2.2015,-2.1869,-2.1811,-2.1735,-2.1631,-2.1493,-2.1354,-2.1183,-2.099,-2.0763,-2.0763,-2.0926,-2.115,-2.1417,-2.1645,-2.1764,-2.1849,-2.2022,-2.2136,-2.2237,-2.2392,-2.2466,-2.2451,-2.252,-2.2552,-2.2694,-2.2833,-2.296,-2.3084,-2.3182,-2.3265,-2.3356,-2.3173,-2.2797,-2.2643,-2.2578,-2.2005,-1.6743,-1.6769,-1.6857,-1.6933,-1.6933,-1.7108,-1.7158,-1.7224,-1.7298,-1.733,-1.733,-1.733,-1.7354,-1.7354,-1.7354,-1.7371,-1.7371,-1.7395,-1.7395,-1.7395,-1.7395,-1.7419,-1.7371,-1.733,-1.7322,-1.7322,-1.7306,-1.7134,-1.7101,-1.7109,-1.6913,-1.6504,-1.6353,-1.5878,-1.5509,-1.5439,-1.5,-1.4799,-1.467,-1.4821,-1.441,-1.4258,-1.3887,-1.3426,-1.3244,-1.343,-1.3718,-1.4264,-1.4659,-1.4986,-1.6107,-1.7001,-1.7817,-1.8124,-1.8813,-1.9692,-2.0238,-2.0391,-2.0467,-2.0654,-2.0509,-2.0306,-2.0077,-1.9622,-1.9924,-2.1288,-2.172,-2.1147,-2.1069,-2.1603,-2.2027,-2.1998,-2.1957,-2.1928,-2.1869,-2.1869,-2.1853,-2.1721,-2.1617,-2.1556,-2.1448,-2.1371,-2.1246,-2.1119,-2.0958,-2.0827,-2.0695,-2.0527,-2.046,-2.0561,-2.0707,-2.1005,-2.1309,-2.1479,-2.1491,-2.1595,-2.1715,-2.1824,-2.1961,-2.204,-2.2088,-2.2214,-2.2338,-2.2405,-2.2497,-2.2642,-2.2773,-2.2842,-2.29,-2.2928,-2.2633,-2.2175,-2.1938,-2.1857,-2.1201,-1.6367,-1.6474,-1.6633,-1.6727,-1.6727,-1.6847,-1.6873,-1.694,-1.6991,-1.7041,-1.71,-1.7216,-1.7306,-1.7306,-1.7306,-1.7281,-1.7306,-1.7346,-1.7346,-1.7322,-1.7281,-1.733,-1.7306,-1.7232,-1.7117,-1.7059,-1.6554,-1.6335,-1.6564,-1.6056,-1.5615,-1.5695,-1.5597,-1.5492,-1.5371,-1.5023,-1.4756,-1.482,-1.4107,-1.3782,-1.3632,-1.3525,-1.3448,-1.303,-1.3102,-1.3325,-1.3877,-1.4452,-1.4972,-1.5576,-1.6606,-1.756,-1.8308,-1.8829,-1.9159,-1.9738,-2.0173,-2.0456,-2.0256,-2.0036,-1.9733,-1.9383,-1.9034,-1.8512,-1.8769,-1.9981,-2.0539,-2.0096,-2.0639,-2.1192,-2.1678,-2.1797,-2.1784,-2.1724,-2.1648,-2.1601,-2.154,-2.1433,-2.134,-2.1309,-2.1214,-2.1087,-2.0958,-2.0827,-2.0695,-2.0662,-2.0494,-2.0441,-2.0339,-2.027,-2.0412,-2.0547,-2.0875,-2.099,-2.0991,-2.1086,-2.1259,-2.1406,-2.1503,-2.1657,-2.1766,-2.1957,-2.2086,-2.2152,-2.2248,-2.2405,-2.247,-2.25,-2.235,-2.2282,-2.1943,-2.1494,-2.1334,-2.1114,-2.0519,-1.5994,-1.6203,-1.6409,-1.649,-1.649,-1.6501,-1.6465,-1.6402,-1.6612,-1.6606,-1.6568,-1.6919,-1.7166,-1.7257,-1.7281,-1.7281,-1.7281,-1.7273,-1.7298,-1.7257,-1.7207,-1.7117,-1.705,-1.7041,-1.6735,-1.6327,-1.5785,-1.5678,-1.5756,-1.5144,-1.485,-1.5026,-1.5037,-1.498,-1.4985,-1.4898,-1.4664,-1.4399,-1.3949,-1.3636,-1.3302,-1.3036,-1.3115,-1.3124,-1.32,-1.353,-1.4212,-1.4887,-1.555,-1.6121,-1.6822,-1.7622,-1.8285,-1.8818,-1.9244,-1.9624,-2.0062,-1.9838,-1.937,-1.9084,-1.8534,-1.8047,-1.7785,-1.7888,-1.8242,-1.8686,-1.9218,-1.9792,-2.0328,-2.0825,-2.1322,-2.1634,-2.1589,-2.1559,-2.145,-2.1386,-2.1309,-2.1214,-2.1151,-2.1135,-2.1006,-2.0893,-2.0728,-2.0595,-2.0527,-2.046,-2.0392,-2.0339,-2.0304,-2.027,-2.0316,-2.0347,-2.0423,-2.0494,-2.0494,-2.063,-2.0829,-2.0894,-2.1022,-2.1243,-2.1477,-2.1642,-2.1807,-2.1899,-2.1998,-2.213,-2.2158,-2.2167,-2.1969,-2.1669,-2.097,-2.0587,-2.079,-2.0508,-1.9952,-1.5595,-1.5653,-1.5796,-1.5866,-1.5894,-1.5991,-1.5771,-1.543,-1.586,-1.5798,-1.5624,-1.6171,-1.6675,-1.7117,-1.7133,-1.7133,-1.7183,-1.7158,-1.7158,-1.7133,-1.6763,-1.6725,-1.667,-1.6449,-1.6035,-1.5557,-1.5196,-1.5263,-1.4807,-1.4355,-1.4206,-1.4313,-1.404,-1.3964,-1.3957,-1.4005,-1.4148,-1.4035,-1.376,-1.335,-1.3727,-1.3598,-1.3586,-1.3681,-1.3836,-1.4265,-1.482,-1.5366,-1.569,-1.6119,-1.6638,-1.7335,-1.7961,-1.8464,-1.8861,-1.942,-1.9842,-1.9432,-1.8948,-1.8762,-1.8355,-1.7778,-1.7733,-1.7969,-1.8289,-1.8582,-1.9144,-1.9682,-2.0204,-2.0733,-2.1171,-2.1399,-2.145,-2.1419,-2.134,-2.134,-2.1277,-2.1246,-2.1183,-2.1135,-2.1038,-2.0893,-2.0728,-2.0595,-2.046,-2.0392,-2.0339,-2.0304,-2.0304,-2.027,-2.0235,-2.015,-2.0115,-2.0096,-2.0131,-2.017,-2.0311,-2.0413,-2.0548,-2.0797,-2.107,-2.1327,-2.1464,-2.1549,-2.1715,-2.1845,-2.1871,-2.181,-2.1404,-2.0993,-2.0061,-1.9619,-1.9925,-2.0269,-1.9991]},{"header":{"parameterUnit":"m.s-1","parameterCategory":1,"la1":31.0,"la2":29.5877,"lo1":-88.7671,"lo2":-86.6584,"dy":0.0162,"dx":0.0185,"nx":115,"ny":88,"refTime":"2023-05-30T06:00:00:Z","depth":0,"parameterNumber":3,"parameterNumberName":"V-component_of_WINDS"},"data":[0.0,0.0,0.0,0.0,0.0,0.0,0.0,0.0,0.0,0.0,0.0,0.0,0.0,0.0,0.0,0.0,0.0,0.0,0.0,0.0,0.0,0.0,0.0,0.0,0.0,0.0,0.0,0.0,0.0,0.0,0.0,0.0,0.0,0.0,0.0,0.0,0.0,0.0,0.0,0.0,0.0,0.0,0.0,0.0,0.0,0.0,0.0,0.0,0.0,0.0,0.0,0.0,0.0,0.0,0.0,0.0,0.0,0.0,0.0,0.0,0.0,0.0,0.0,0.0,0.0,0.0,0.0,0.0,0.0,0.0,0.0,0.0,0.0,0.0,0.0,0.0,0.0,0.0,0.0,0.0,0.0,0.0,0.0,0.0,0.0,0.0,0.0,0.0,0.0,0.0,0.0,0.0,0.0,0.0,0.0,0.0,0.0,0.0,0.0,0.0,0.0,0.0,0.0,0.0,0.0,0.0,0.0,0.0,0.0,0.0,0.0,0.0,0.0,0.0,0.0,0.0,0.0,0.0,0.0,0.0,0.0,0.0,0.0,0.0,0.0,0.0,0.0,0.0,0.0,0.0,0.0,0.0,0.0,0.0,0.0,0.0,0.0,0.0,0.0,0.0,0.0,0.0,0.0,0.0,0.0,0.0,0.0,0.0,0.0,0.0,0.0,0.0,0.0,0.0,0.0,0.0,0.0,0.0,0.0,0.0,0.0,0.0,0.0,0.0,0.0,0.0,0.0,0.0,0.0,0.0,0.0,0.0,0.0,0.0,0.0,0.0,0.0,0.0,0.0,0.0,0.0,0.0,0.0,0.0,0.0,0.0,0.0,0.0,0.0,0.0,0.0,0.0,0.0,0.0,0.0,0.0,0.0,0.0,0.0,0.0,0.0,0.0,0.0,0.0,0.0,0.0,0.0,0.0,0.0,0.0,0.0,0.0,0.0,0.0,0.0,0.0,0.0,0.0,0.0,0.0,0.0,0.0,0.0,0.0,0.0,0.0,0.0,0.0,0.0,0.0,0.0,0.0,0.0,0.0,0.0,0.0,0.0,0.0,0.0,0.0,0.0,0.0,0.0,0.0,0.0,0.0,0.0,0.0,0.0,0.0,0.0,0.0,0.0,0.0,0.0,0.0,0.0,0.0,0.0,0.0,0.0,0.0,0.0,0.0,0.0,0.0,0.0,0.0,0.0,0.0,0.0,0.0,0.0,0.0,0.0,0.0,0.0,0.0,0.0,0.0,0.0,0.0,0.0,0.0,0.0,0.0,0.0,0.0,0.0,0.0,0.0,0.0,0.0,0.0,0.0,0.0,0.0,0.0,0.0,0.0,0.0,0.0,0.0,0.0,0.0,0.0,0.0,0.0,0.0,0.0,0.0,0.0,0.0,0.0,0.0,0.0,0.0,0.0,0.0,0.0,0.0,0.0,0.0,0.0,0.0,0.0,0.0,0.0,0.0,0.0,0.0,0.0,0.0,0.0,0.0,0.0,0.0,0.0,0.0,0.0,0.0,0.0,0.0,0.0,0.0,0.0,0.0,0.0,0.0,0.0,0.0,0.0,0.0,0.0,0.0,0.0,0.0,0.0,0.0,0.0,0.0,0.0,0.0,0.0,0.0,0.0,0.0,0.0,0.0,0.0,0.0,0.0,0.0,0.0,0.0,0.0,0.0,0.0,0.0,0.0,0.0,0.0,0.0,0.0,0.0,0.0,0.0,0.0,0.0,0.0,0.0,0.0,0.0,0.0,0.0,0.0,0.0,0.0,0.0,0.0,0.0,0.0,0.0,0.0,0.0,0.0,0.0,0.0,0.0,0.0,0.0,0.0,0.0,0.0,0.0,0.0,0.0,0.0,0.0,0.0,0.0,0.0,0.0,0.0,0.0,0.0,0.0,0.0,0.0,0.0,0.0,0.0,0.0,0.0,0.0,0.0,0.0,0.0,0.0,0.0,0.0,0.0,0.0,0.0,0.0,0.0,0.0,0.0,0.0,0.0,0.0,0.0,0.0,0.0,0.0,0.0,0.0,0.0,0.0,0.0,0.0,0.0,0.0,0.0,0.0,0.0,0.0,0.0,0.0,0.0,0.0,0.0,0.0,0.0,0.0,0.0,0.0,0.0,0.0,0.0,0.0,0.0,0.0,0.0,0.0,0.0,0.0,0.0,0.0,0.0,0.0,0.0,0.0,0.0,0.0,0.0,0.0,0.0,0.0,0.0,0.0,0.0,0.0,0.0,0.0,0.0,0.0,0.0,0.0,0.0,0.0,0.0,0.0,0.0,0.0,0.0,0.0,0.0,0.0,0.0,0.0,0.0,0.0,0.0,0.0,0.0,0.0,0.0,0.0,0.0,0.0,0.0,0.0,0.0,0.0,0.0,0.0,0.0,0.0,0.0,0.0,0.0,0.0,0.0,0.0,0.0,0.0,0.0,0.0,0.0,0.0,0.0,0.0,0.0,0.0,0.0,0.0,0.0,0.0,0.0,0.0,0.0,0.0,0.0,0.0,0.0,0.0,0.0,0.0,0.0,0.0,0.0,0.0,0.0,0.0,0.0,0.0,0.0,0.0,0.0,0.0,0.0,0.0,0.0,0.0,0.0,0.0,0.0,0.0,0.0,0.0,0.0,0.0,0.0,0.0,0.0,0.0,0.0,0.0,0.0,0.0,0.0,0.0,0.0,0.0,0.0,0.0,0.0,0.0,0.0,0.0,0.0,0.0,0.0,0.0,0.0,0.0,0.0,0.0,0.0,0.0,0.0,0.0,0.0,0.0,0.0,0.0,0.0,0.0,0.0,0.0,0.0,0.0,0.0,0.0,0.0,0.0,0.0,0.0,0.0,0.0,0.0,0.0,0.0,0.0,0.0,0.0,0.0,0.0,0.0,0.0,0.0,0.0,0.0,0.0,0.0,0.0,0.0,0.0,0.0,0.0,0.0,0.0,0.0,0.0,0.0,0.0,0.0,0.0,0.0,0.0,0.0,0.0,0.0,0.0,0.0,0.0,0.0,0.0,0.0,0.0,0.0,0.0,0.0,0.0,0.0,0.0,0.0,0.0,0.0,0.0,0.0,0.0,0.0,0.0,0.0,0.0,0.0,0.0,0.0,0.0,0.0,0.0,0.0,0.0,0.0,0.0,0.0,0.0,0.0,0.0,0.0,0.0,0.0,0.0,0.0,0.0,0.0,0.0,0.0,0.0,0.0,0.0,0.0,0.0,0.0,0.0,0.0,0.0,0.0,0.0,0.0,0.0,0.0,0.0,0.0,0.0,0.0,0.0,0.0,0.0,0.0,0.0,0.0,0.0,0.0,0.0,0.0,0.0,0.0,0.0,0.0,0.0,0.0,0.0,0.0,0.0,0.0,0.0,0.0,0.0,0.0,0.0,0.0,0.0,0.0,0.0,0.0,0.0,0.0,0.0,0.0,0.0,0.0,0.0,0.0,0.0,0.0,0.0,0.0,0.0,0.0,0.0,0.0,0.0,0.0,0.0,0.0,0.0,0.0,0.0,0.0,0.0,0.0,0.0,0.0,0.0,0.0,0.0,0.0,0.0,0.0,0.0,0.0,0.0,0.0,0.0,0.0,0.0,0.0,0.0,0.0,0.0,0.0,0.0,0.0,0.0,0.0,0.0,0.0,0.0,0.0,0.0,0.0,0.0,0.0,0.0,0.0,0.0,0.0,0.0,0.0,0.0,0.0,0.0,0.0,0.0,0.0,0.0,0.0,0.0,0.0,0.0,0.0,0.0,0.0,0.0,0.0,0.0,0.0,0.0,0.0,0.0,0.0,0.0,0.0,0.0,0.0,0.0,0.0,0.0,0.0,0.0,0.0,0.0,0.0,0.0,0.0,0.0,0.0,0.0,0.0,0.0,0.0,0.0,0.0,0.0,0.0,0.0,0.0,0.0,0.0,0.0,0.0,0.0,0.0,0.0,0.0,0.0,0.0,0.0,0.0,0.0,0.0,0.0,0.0,0.0,0.0,0.0,0.0,0.0,0.0,0.0,0.0,0.0,0.0,0.0,0.0,0.0,0.0,0.0,0.0,0.0,0.0,0.0,0.0,0.0,0.0,0.0,0.0,0.0,0.0,0.0,0.0,0.0,0.0,0.0,0.0,0.0,0.0,0.0,0.0,0.0,0.0,0.0,0.0,0.0,0.0,0.0,0.0,0.0,0.0,0.0,0.0,0.0,0.0,0.0,0.0,0.0,0.0,0.0,0.0,0.0,0.0,0.0,0.0,0.0,0.0,0.0,0.0,0.0,0.0,0.0,0.0,0.0,0.0,0.0973,0.0,0.0,0.0,0.0,0.0,0.0,0.0,0.0,0.0,0.0,0.0,0.0,0.0,0.0,0.0,0.0,0.0,0.0,0.0,0.0,0.0,0.0,0.0,0.0,0.0,0.0,0.0,0.0,0.0,0.0,0.0,0.0,0.0,0.0,0.0,0.0,0.0,0.0,0.0,0.0,0.0,0.0,0.0,0.0,0.0,0.0,0.0,0.0,0.0,0.0,0.0,0.0,0.0,0.0,0.0,0.0,0.0,0.0,0.0,0.0,0.0,0.0,0.0,0.0,0.0,0.0,0.0,0.0,0.0,0.0,0.0,0.0,0.0,0.0,0.0,0.0,0.0,0.0,0.0,0.0,0.0,0.0,0.0,0.0,0.0,0.0,0.0,0.0,0.0,0.0,0.0,0.0,0.0,0.0,0.0,0.0,0.0,0.0,0.0,0.0,0.0,0.0,0.0,0.0,0.0,0.0,0.0,0.0,0.0,0.0,0.3837,0.4303,0.3172,0.2092,0.1032,0.0,0.0,0.0,0.0,0.0,0.0,0.0,0.0,0.0,0.0,0.0,0.0,0.0,0.0,0.0,0.0,0.0,0.0,0.0,0.0,0.0,0.0,0.0,0.0,0.0,0.0,0.0,0.0,0.0,0.0,0.0,0.0,0.0,0.0,0.0,0.0,0.0,0.0,0.0,0.0,0.0,0.0,0.0,0.0,0.0,0.0,0.0,0.0,0.0,0.0,0.0,0.0,0.0,0.0,0.0,0.0,0.0,0.0,0.0,0.0,0.0,0.0,0.0,0.0,0.0,0.0,0.0,0.0,0.0,0.0,0.0,0.0,0.0,0.0,0.0,0.0,0.0,0.0,0.0,0.0,0.0,0.0,0.0,0.0,0.0,0.0,0.0,0.0,0.0,0.0,0.0,0.0,0.0,0.0,0.0,0.0,0.0,0.0,0.0,0.0,0.0,0.0,0.0,0.0,0.0,0.0,0.0,0.0,0.0,0.0,0.0,0.0,0.3218,0.191,0.0398,0.0,0.0,0.0,0.0,0.0,0.0,0.0,0.0,0.0,0.0,0.0,0.0,0.0,0.0,0.0,0.0,0.0,0.0,0.0,0.0,0.0,0.0,0.0,0.0,0.0,0.0,0.0,0.0,0.0,0.0,0.0,0.0,0.0,0.0,0.0,0.0,0.0,0.0,0.0,0.0,0.0,0.0,0.0,0.0,0.0,0.0,0.0,0.0,0.0,0.0,0.0,0.0,0.0,0.0,0.0,0.0,0.0,0.0,0.0,0.0,0.0,0.0,0.0,0.0,0.0,0.0,0.0,0.0,0.0,0.0,0.0,0.0,0.0,0.0,0.0,0.0,0.0,0.0,0.0,0.0,0.0,0.0,0.0,0.0,0.0,0.0,0.0,0.0,0.0,0.0,0.0,0.0,0.0,0.0,0.0,0.0,0.0,0.0,0.0,0.0,0.0,0.0,0.0,0.0,0.0,0.0,0.0,0.0,0.0,0.0,0.4287,0.3202,0.2845,0.0,-0.1582,0.0,0.0,0.0,0.0,0.0,0.0,0.0,0.0,0.0,0.0,0.0,0.0,0.0,0.0,0.0,0.0,0.0,0.0,0.0,0.0,0.0,0.0,0.0,0.0,0.0,0.0,0.0,0.0,0.0,0.0,0.0,0.0,0.0,0.0,0.0,0.0,0.0,0.0,0.0,0.0,0.0,0.0,0.0,0.0,0.0,0.0,0.0,0.0,0.0,0.0,0.0,0.0,0.0,0.0,0.0,0.0,0.0,0.0,0.0,0.0,0.0,0.0,0.0,0.0,0.0,0.0,0.0,0.0,0.0,0.0,0.0,0.0,0.0,0.0,0.0,0.0,0.0,0.0,0.0,0.0,0.0,0.0,0.0,0.0,0.0,0.0,0.0,0.0,0.0,0.0,0.0,0.0,0.0,0.0,0.0,0.0,0.0,0.0,0.0,0.0,0.0,0.0,0.0,0.0,0.0,0.0,0.0,0.0,0.0,0.0,0.4233,0.1005,0.0283,-0.1187,0.0,0.0,0.0,0.0,0.0,0.0,0.0,0.0,0.0,0.0,0.0,0.0,0.0,0.0,0.0,0.0,0.0,0.0,0.0,0.0,0.0,0.0,0.0,0.0,0.0,0.0,0.0,0.0,0.0,0.0,0.0,0.0,0.0,0.0,0.0,0.0,0.0,0.0,0.0,0.0,0.0,0.0,0.0,0.0,0.0,0.0,0.0,0.0,0.0,0.0,0.0,0.0,0.0,0.0,0.0,0.0,0.0,0.0,0.0,0.0,0.0,0.0,0.0,0.0,0.0,0.0,0.0,0.0,0.0,0.0,0.0,0.0,0.0,0.0,0.0,0.0,0.0,0.0,0.0,0.0,0.0,0.0,0.0,0.0,0.0,0.0,0.0,0.0,0.0,0.0,0.0,0.0,0.0,0.0,0.0,0.0,0.0,0.0,0.0,0.0,0.0,0.0,0.0,0.0,0.0,0.0,0.0,0.0,0.0,0.0,0.3342,0.2496,-0.1359,-0.2504,-0.3594,-0.4872,0.0,0.0,0.0,0.0,0.0,0.0,0.0,0.0,0.0,0.0,0.0,0.0,0.0,0.0,0.0,0.0,0.0,0.0,0.0,0.0,0.0,0.0,0.0,0.0,0.0,0.0,0.0,0.0,0.0,0.0,0.0,0.0,0.0,0.0,0.0,0.0,0.0,0.0,0.0,0.0,0.0,0.0,0.0,0.0,0.0,0.0,0.0,0.0,0.0,0.0,0.0,0.0,0.0,0.0,0.0,0.0,0.0,0.0,0.0,0.0,0.0,0.0,0.0,0.0,0.0,0.0,0.0,0.0,0.0,0.0,0.0,0.0,0.0,0.0,0.0,0.0,0.0,0.0,0.0,0.0,0.0,0.0,0.0,0.0,0.0,0.0,0.0,0.0,0.0,0.0,0.0,0.0,0.0,0.0,0.0,0.0,0.0,0.0,0.0,0.0,0.0,0.0,0.0,0.0,0.0,0.0,0.0,0.0,0.1767,0.0484,-0.168,-0.4451,-0.4956,-0.5265,0.0,0.0,0.0,0.0,0.0,0.0,0.0,0.0,0.0,0.0,0.0,0.0,0.0,0.0,0.0,0.0,0.0,0.0,0.0,0.0,0.0,0.0,0.0,0.0,0.0,0.0,0.0,0.0,0.0,0.0,0.0,0.0,0.0,0.0,0.0,0.0,0.0,0.0,0.0,0.0,0.0,0.0,0.0,0.0,0.0,0.0,0.0,0.0,0.0,0.0,0.0,0.0,0.0,0.0,0.0,0.0,0.0,0.0,0.0,0.0,0.0,0.0,0.0,0.0,0.0,0.0,0.0,0.0,0.0,0.0,0.0,0.0,0.0,0.0,0.0,0.0,0.0,0.0,0.0,0.0,0.0,0.0,0.0,0.0,0.0,0.0,0.0,0.0,0.0,0.0,0.0,0.0,0.0,0.0,0.0,0.0,0.0,0.0,0.0,0.0,0.0,0.0,0.0,0.0,0.0,0.0,0.0,0.0,0.0,0.6781,0.2204,-0.462,-1.2864,-1.0561,-0.9273,0.0,0.0,0.0,0.0,0.0,0.0,0.0,0.0,0.0,0.0,0.0,0.0,0.0,0.0,0.0,0.0,0.0,0.0,0.0,0.0,0.0,0.0,0.0,0.0,0.0,0.0,0.0,0.0,0.0,0.0,0.0,0.0,0.0,0.0,0.0,0.0,0.0,0.0,0.0,0.0,0.0,0.0,0.0,0.0,0.0,0.0,0.0,0.0,0.0,0.0,0.0,0.0,0.0,0.0,0.0,0.0,0.0,0.0,0.0,0.0,0.0,0.0,0.0,0.0,0.0,0.0,0.0,0.0,0.0,0.0,0.0,0.0,0.0,0.0,0.0,0.0,0.0,0.0,0.0,0.0,0.0,0.0,0.0,0.0,0.0,0.0,0.0,0.0,0.0,0.0,0.0,0.0,0.0,0.0,0.0,0.0,0.0,0.0,0.0,0.0,0.0,0.0,0.0,0.0,0.0,0.0,0.0,0.0,0.0,0.7738,0.0,-0.892,-1.6473,-1.4339,-1.3192,0.0,0.0,0.0,0.0,0.0,0.0,0.0,0.0,0.0,0.0,0.0,0.0,0.0,0.0,0.0,0.0,0.0,0.0,0.0,0.0,0.0,0.0,0.0,0.0,0.0,0.0,0.0,0.0,0.0,0.0,0.0,0.0,0.0,0.0,0.0,0.0,0.0,0.0,0.0,0.0,0.0,0.0,0.0,0.0,0.0,0.0,0.0,0.0,0.0,0.0,0.0,0.0,0.0,0.0,0.0,0.0,0.0,0.0,0.0,0.0,0.0,0.0,0.0,0.0,0.0,0.0,0.0,0.0,0.0,0.0,0.0,0.0,0.0,0.0,0.0,0.0,0.0,0.0,0.0,0.0,0.0,0.0,0.0,0.0,0.0,0.0,0.0,0.0,0.0,0.0,0.0,0.0,0.0,0.0,0.0,0.0,0.0,0.0,0.0,0.0,0.0,0.0,0.0,0.0,0.0,0.0,0.0,0.0,0.5012,0.3388,-0.802,-1.4036,-1.443,-1.5991,-1.6795,0.0,0.0,0.0,0.0,0.0,0.0,0.0,0.0,0.0,0.0,0.0,0.0,0.0,0.0,0.0,0.0,0.0,0.0,0.0,0.0,0.0,0.0,0.0,0.0,0.0,0.0,0.0,0.0,0.0,0.0,0.0,0.0,0.0,0.0,0.0,0.0,0.0,0.0,0.0,0.0,0.0,0.0,0.0,0.0,0.0,0.0,0.0,0.0,0.0,0.0,0.0,0.0,0.0,0.0,0.0,0.0,0.0,0.0,0.0,0.0,0.0,0.0,0.0,0.0,0.0,0.0,0.0,0.0,0.0,0.0,0.0,0.0,0.0,0.0,0.0,0.0,0.0,0.0,0.0,0.0,0.0,0.0,0.0,0.0,0.0,0.0,0.0,0.0,0.0,0.0,0.0,0.0,0.0,0.0,0.0,0.0,0.0,0.0,0.0,0.0,0.0,0.0,0.0,0.0,0.0,0.0,0.0,0.0,0.0,0.2978,-0.3585,-1.0514,-1.7379,-1.8526,-1.9537,0.0,0.0,0.0,0.0,0.0,0.0,0.0,0.0,0.0,0.0,0.0,0.0,0.0,0.0,0.0,0.0,0.0,0.0,0.0,0.0,0.0,0.0,0.0,0.0,0.0,0.0,0.0,0.0,0.0,0.0,0.0,0.0,0.0,0.0,0.0,0.0,0.0,0.0,0.0,0.0,0.0,0.0,0.0,0.0,0.0,0.0,0.0,0.0,0.0,0.0,0.0,0.0,0.0,0.0,0.0,0.0,0.0,0.0,0.0,0.0,0.0,0.0,0.0,0.0,0.0,0.0,0.0,0.0,0.0,0.0,0.0,0.0,0.0,0.0,0.0,0.0,0.0,0.0,0.0,0.0,0.0,0.0,0.0,0.0,0.0,0.0,0.0,0.0,0.0,0.0,0.0,0.0,0.0,0.0,0.0,0.0,0.0,0.0,0.0,0.0,0.0,0.0,0.0,0.0,0.0,0.0,0.0,0.0,0.0,0.338,-0.3609,-1.1037,-1.8693,-1.9957,-2.1509,-2.3401,0.0,0.0,0.0,0.0,0.0,0.0,0.0,0.0,0.0,0.0,0.0,0.0,0.0,0.0,0.0,0.0,0.0,0.0,0.0,0.0,0.0,0.0,0.0,0.0,0.0,0.0,0.0,0.0,0.0,0.0,0.0,0.0,0.0,0.0,0.0,0.0,0.0,0.0,0.0,0.0,0.0,0.0,0.0,0.0,0.0,0.0,0.0,0.0,0.0,0.0,0.0,0.0,0.0,0.0,0.0,0.0,0.0,0.0,0.0,0.0,0.0,0.0,0.0,0.0,0.0,0.0,0.0,0.0,0.0,0.0,0.0,0.0,0.0,0.0,0.0,0.0,0.0,0.0,0.0,0.0,0.0,0.0,0.0,0.0,0.0,0.0,0.0,0.0,0.0,0.0,0.0,0.0,0.0,0.0,0.0,0.0,0.0,0.0,0.0,0.0,0.0,0.0,0.0,0.0,0.0,0.0,0.0,0.0,0.4366,-0.7286,-1.4778,-1.7832,-2.0321,-2.2692,0.0,0.0,0.0,0.0,0.0,0.0,0.0,0.0,0.0,0.0,0.0,0.0,0.0,0.0,0.0,0.0,0.0,0.0,0.0,0.0,0.0,0.0,0.0,0.0,0.0,0.0,0.0,0.0,0.0,0.0,0.0,0.0,0.0,0.0,0.0,0.0,0.0,0.0,0.0,0.0,0.0,0.0,0.0,0.0,0.0,0.0,0.0,0.0,0.0,0.0,0.0,0.0,0.0,0.0,0.0,0.0,0.0,0.0,0.0,0.0,0.0,0.0,0.0,0.0,0.0,0.0,0.0,0.0,0.0,0.0,0.0,0.0,0.0,0.0,0.0,0.0,0.0,0.0,0.0,0.0,0.0,0.0,0.0,0.0,0.0,0.0,0.0,0.0,0.0,0.0,0.0,0.0,0.0,0.0,0.0,0.0,0.0,0.0,0.0,0.0,0.0,0.0,0.0,0.0,0.0,0.0,0.0,0.0,0.0,-0.05,-0.6676,-1.1623,-1.5224,-1.8802,-2.2074,0.0,0.0,0.0,0.0,0.0,0.0,0.0,0.0,0.0,0.0,0.0,0.0,0.0,0.0,0.0,0.0,0.0,0.0,0.0,0.0,0.0,0.0,0.0,0.0,0.0,0.0,0.0,0.0,0.0,0.0,0.0,0.0,0.0,0.0,0.0,0.0,0.0,0.0,0.0,0.0,0.0,0.0,0.0,0.0,0.0,0.0,0.0,0.0,0.0,0.0,0.0,0.0,0.0,0.0,0.0,0.0,0.0,0.0,0.0,0.0,0.0,0.0,0.0,0.0,0.0,0.0,0.0,0.0,0.0,0.0,0.0,0.0,0.0,0.0,0.0,0.0,0.0,0.0,0.0,0.0,0.0,0.0,0.0,0.0,0.0,0.0,0.0,0.0,0.0,0.0,0.0,0.0,0.0,0.0,0.0,0.0,0.0,0.0,0.0,0.0,0.0,0.0,0.0,0.0,0.0,0.0,0.0,0.0,0.2178,-0.2926,-0.6549,-1.0343,-1.4315,-1.7836,-2.114,0.0,0.0,0.0,0.0,0.0,0.0,0.0,0.0,0.0,0.0,0.0,0.0,0.0,0.0,0.0,0.0,0.0,0.0,0.0,0.0,0.0,0.0,0.0,0.0,0.0,0.0,0.0,0.0,0.0,0.0,0.0,0.0,0.0,0.0,0.0,0.0,0.0,0.0,0.0,0.0,0.0,0.0,0.0,0.0,0.0,0.0,0.0,0.0,0.0,0.0,0.0,0.0,0.0,0.0,0.0,0.0,0.0,0.0,0.0,0.0,0.0,0.0,0.0,0.0,0.0,0.0,0.0,0.0,0.0,0.0,0.0,0.0,0.0,0.0,0.0,0.0,0.0,0.0,0.0,0.0,0.0,0.0,0.0,0.0,0.0,0.0,0.0,0.0,0.0,0.0,0.0,0.0,0.0,0.0,0.0,0.0,0.0,0.0,0.0,0.0,0.0,0.0,0.0,0.0,0.0,0.0,0.0,0.0,0.0628,-0.408,-0.6767,-1.0216,-1.4433,-1.7245,-2.0016,0.0,0.0,0.0,0.0,0.0,0.0,0.0,0.0,0.0,0.0,0.0,0.0,0.0,0.0,0.0,0.0,0.0,0.0,0.0,0.0,0.0,0.0,0.0,0.0,0.0,0.0,0.0,0.0,0.0,0.0,0.0,0.0,0.0,0.0,0.0,0.0,0.0,0.0,0.0,0.0,0.0,0.0,0.0,0.0,0.0,0.0,0.0,0.0,0.0,0.0,0.0,0.0,0.0,0.0,0.0,0.0,0.0,0.0,0.0,0.0,0.0,0.0,0.0,0.0,0.0,0.0,0.0,0.0,0.0,0.0,0.0,0.0,0.0,0.0,0.0,0.0,0.0,0.0,0.0,0.0,0.0,0.0,0.0,0.0,0.0,0.0,0.0,0.0,0.0,0.0,0.0,0.0,0.0,0.0,0.0,0.0,0.0,0.0,0.0,0.0,0.0,0.0,0.0,0.0,0.0,0.0,0.0,0.0,-0.0856,-0.505,-0.6703,-0.9818,-1.4537,-1.6508,-1.9358,0.0,0.0,0.0,0.0,0.0,0.0,0.0,0.0,0.0,0.0,0.0,0.0,0.0,0.0,0.0,0.0,0.0,0.0,0.0,0.0,0.0,0.0,0.0,0.0,0.0,0.0,0.0,0.0,0.0,0.0,0.0,0.0,0.0,0.0,0.0,0.0,0.0,0.0,0.0,0.0,0.0,0.0,0.0,0.0,0.0,0.0,0.0,0.0,-3.0089,0.0,0.0,0.0,0.0,0.0,0.0,0.0,0.0,0.0,0.0,0.0,0.0,0.0,0.0,0.0,0.0,0.0,0.0,0.0,0.0,0.0,0.0,0.0,0.0,0.0,0.0,0.0,0.0,0.0,0.0,0.0,0.0,0.0,0.0,0.0,0.0,0.0,0.0,0.0,0.0,0.0,0.0,0.0,0.0,0.0,0.0,0.0,0.0,0.0,0.0,0.0,0.0,0.0,0.0,0.0,0.0,0.0,0.0,0.0,-0.1471,-0.596,-0.7208,-0.9956,-1.4471,-1.6071,-1.8689,0.0,0.0,0.0,0.0,0.0,0.0,0.0,0.0,0.0,0.0,0.0,0.0,0.0,0.0,0.0,0.0,0.0,0.0,0.0,0.0,0.0,0.0,0.0,0.0,0.0,0.0,0.0,0.0,0.0,0.0,0.0,0.0,0.0,0.0,0.0,0.0,0.0,0.0,0.0,0.0,0.0,0.0,0.0,0.0,0.0,0.0,0.0,0.0,0.0,0.0,0.0,0.0,0.0,0.0,0.0,0.0,0.0,0.0,0.0,0.0,0.0,0.0,0.0,0.0,0.0,0.0,0.0,0.0,0.0,0.0,0.0,0.0,0.0,0.0,0.0,0.0,0.0,0.0,0.0,0.0,0.0,0.0,0.0,0.0,0.0,0.0,0.0,0.0,0.0,0.0,0.0,0.0,0.0,0.0,0.0,0.0,0.0,0.0,0.0,0.0,0.0,0.0,0.0,0.0,0.0,0.0,0.0,0.1392,-0.196,-0.6641,-0.7815,-1.0319,-1.4381,-1.5841,-1.8205,-2.1724,0.0,0.0,0.0,0.0,0.0,0.0,0.0,0.0,0.0,0.0,0.0,0.0,0.0,0.0,0.0,0.0,0.0,0.0,0.0,0.0,0.0,0.0,0.0,0.0,0.0,0.0,0.0,0.0,0.0,0.0,0.0,0.0,0.0,0.0,0.0,0.0,0.0,0.0,-1.8798,-1.9806,0.0,0.0,0.0,0.0,0.0,0.0,0.0,0.0,-3.1892,0.0,0.0,0.0,0.0,0.0,0.0,0.0,0.0,0.0,0.0,0.0,0.0,0.0,0.0,0.0,0.0,0.0,0.0,0.0,0.0,0.0,0.0,0.0,0.0,0.0,0.0,0.0,0.0,0.0,0.0,0.0,0.0,0.0,0.0,0.0,0.0,0.0,0.0,0.0,0.0,0.0,0.0,0.0,0.0,0.0,0.0,0.0,0.0,0.0,0.0,0.0,0.0,0.0,0.0,0.0,0.0,0.3498,-0.0217,-0.3666,-0.6853,-0.8378,-1.0795,-1.419,-1.5893,-1.8095,-2.1042,0.0,0.0,0.0,0.0,0.0,0.0,0.0,0.0,0.0,0.0,0.0,0.0,0.0,0.0,0.0,0.0,0.0,0.0,0.0,0.0,0.0,0.0,0.0,0.0,0.0,0.0,0.0,0.0,0.0,0.0,0.0,0.0,0.0,0.0,0.0,0.0,0.0,0.0,0.0,-2.0401,-2.0571,0.0,0.0,0.0,0.0,0.0,0.0,0.0,0.0,-3.1607,0.0,0.0,0.0,0.0,0.0,0.0,0.0,0.0,0.0,0.0,0.0,0.0,0.0,0.0,0.0,0.0,0.0,0.0,0.0,0.0,0.0,0.0,0.0,0.0,0.0,0.0,0.0,0.0,0.0,0.0,0.0,0.0,0.0,0.0,0.0,0.0,0.0,0.0,0.0,0.0,0.0,0.0,0.0,0.0,0.0,0.0,0.0,0.0,0.0,0.0,0.0,0.0,0.0,0.0,0.0,0.2865,-0.0813,-0.4114,-0.7013,-0.8614,-1.0883,-1.3872,-1.5788,-1.8096,0.0,0.0,0.0,0.0,0.0,0.0,0.0,0.0,0.0,0.0,0.0,0.0,0.0,0.0,0.0,0.0,0.0,0.0,0.0,0.0,0.0,0.0,0.0,0.0,0.0,0.0,0.0,0.0,0.0,0.0,0.0,0.0,0.0,0.0,0.0,0.0,0.0,0.0,0.0,0.0,-1.8775,-1.8659,-2.0777,0.0,0.0,0.0,0.0,0.0,0.0,-2.9898,-3.0791,0.0,0.0,0.0,0.0,0.0,0.0,0.0,0.0,0.0,0.0,0.0,0.0,0.0,0.0,0.0,0.0,0.0,0.0,0.0,0.0,0.0,0.0,0.0,0.0,0.0,0.0,0.0,0.0,0.0,0.0,0.0,0.0,0.0,0.0,0.0,0.0,0.0,0.0,0.0,0.0,0.0,0.0,0.0,0.0,0.0,0.0,0.0,0.0,0.0,0.0,0.0,0.0,0.0,0.0,0.0,0.2357,-0.1432,-0.4575,-0.7061,-0.8978,-1.1105,-1.3594,-1.5774,-1.8107,0.0,0.0,0.0,0.0,0.0,0.0,0.0,0.0,0.0,0.0,0.0,0.0,0.0,0.0,0.0,0.0,0.0,0.0,0.0,0.0,0.0,0.0,0.0,0.0,0.0,0.0,0.0,0.0,0.0,0.0,0.0,0.0,0.0,0.0,0.0,0.0,0.0,0.0,0.0,0.0,0.0,-1.6995,-1.8456,-2.2448,0.0,0.0,0.0,0.0,-2.9711,-2.9632,0.0,0.0,0.0,0.0,0.0,0.0,0.0,0.0,0.0,0.0,0.0,0.0,0.0,0.0,0.0,0.0,0.0,0.0,0.0,0.0,0.0,0.0,0.0,0.0,0.0,0.0,0.0,0.0,0.0,0.0,0.0,0.0,0.0,0.0,0.0,0.0,0.0,0.0,0.0,0.0,0.0,0.0,0.0,0.0,0.0,0.0,0.0,0.0,0.0,0.0,0.0,0.0,0.0,0.0,0.0,0.0,0.2286,-0.2634,-0.5973,-0.7363,-0.9728,-1.1746,-1.3436,-1.5859,-1.7901,0.0,0.0,0.0,0.0,0.0,0.0,0.0,0.0,0.0,0.0,0.0,0.0,0.0,0.0,0.0,0.0,0.0,0.0,0.0,0.0,0.0,0.0,0.0,0.0,0.0,0.0,0.0,0.0,0.0,0.0,0.0,0.0,0.0,0.0,0.0,0.0,0.0,0.0,0.0,0.0,0.0,-1.6483,-1.7719,-2.1139,-2.369,0.0,0.0,-2.7027,-2.8578,-2.967,0.0,0.0,0.0,0.0,0.0,0.0,0.0,0.0,0.0,0.0,0.0,0.0,0.0,0.0,0.0,0.0,0.0,0.0,0.0,0.0,0.0,0.0,0.0,0.0,0.0,0.0,0.0,0.0,0.0,0.0,0.0,0.0,0.0,0.0,0.0,0.0,0.0,0.0,0.0,0.0,0.0,0.0,0.0,0.0,0.0,0.0,0.0,0.0,0.0,0.0,0.0,0.0,0.0,0.0,0.0,0.2283,0.1146,-0.3242,-0.6364,-0.7986,-1.0115,-1.2129,-1.3881,-1.598,-1.7963,0.0,0.0,0.0,0.0,0.0,0.0,0.0,0.0,0.0,0.0,0.0,0.0,0.0,0.0,0.0,0.0,0.0,0.0,0.0,0.0,0.0,0.0,0.0,0.0,0.0,0.0,0.0,0.0,0.0,0.0,0.0,0.0,0.0,0.0,0.0,0.0,0.0,0.0,0.0,0.0,0.0,0.0,-1.804,-2.1322,0.0,0.0,0.0,-2.7196,-2.8796,0.0,0.0,0.0,0.0,0.0,0.0,0.0,0.0,0.0,0.0,0.0,0.0,0.0,0.0,0.0,0.0,0.0,0.0,0.0,0.0,0.0,0.0,0.0,0.0,0.0,0.0,0.0,0.0,0.0,0.0,0.0,0.0,0.0,0.0,0.0,0.0,0.0,0.0,0.0,0.0,0.0,0.0,0.0,0.0,0.0,0.0,0.0,0.0,0.0,0.0,0.0,0.0,0.0,0.0,0.0,0.0,0.0,0.0072,-0.3626,-0.6517,-0.8376,-1.0351,-1.2352,-1.4227,-1.5936,0.0,0.0,0.0,0.0,0.0,0.0,0.0,0.0,0.0,0.0,0.0,0.0,0.0,0.0,0.0,0.0,0.0,0.0,0.0,0.0,0.0,0.0,0.0,0.0,0.0,0.0,0.0,-1.808,0.0,0.0,0.0,0.0,0.0,0.0,0.0,0.0,0.0,0.0,0.0,0.0,0.0,0.0,-1.6585,-1.8644,-2.1734,-2.4364,0.0,0.0,-2.7804,-2.9386,-3.0218,-3.068,0.0,0.0,0.0,0.0,0.0,0.0,0.0,0.0,0.0,0.0,0.0,0.0,0.0,0.0,0.0,0.0,0.0,0.0,0.0,0.0,0.0,0.0,0.0,0.0,0.0,0.0,0.0,0.0,0.0,0.0,0.0,0.0,0.0,0.0,0.0,0.0,0.0,0.0,0.0,0.0,0.0,0.0,0.0,0.0,0.0,0.0,0.0,0.0,0.0,0.0,0.0,0.0,0.0,0.0,0.0,-0.0648,-0.3933,-0.6517,-0.838,-1.0346,-1.2352,-1.4219,-1.5742,-1.7654,0.0,0.0,0.0,0.0,0.0,0.0,0.0,0.0,0.0,0.0,0.0,0.0,0.0,0.0,0.0,0.0,0.0,0.0,0.0,0.0,0.0,0.0,0.0,0.0,0.0,0.0,0.0,0.0,0.0,0.0,0.0,0.0,0.0,0.0,0.0,0.0,0.0,0.0,0.0,0.0,0.0,-1.7386,-1.9369,-2.2051,-2.4445,0.0,0.0,-2.851,-2.993,-3.1454,-3.1438,-2.8486,0.0,0.0,0.0,0.0,0.0,0.0,0.0,0.0,0.0,0.0,0.0,0.0,0.0,0.0,0.0,0.0,0.0,0.0,0.0,0.0,0.0,0.0,0.0,0.0,0.0,0.0,0.0,0.0,0.0,0.0,0.0,0.0,0.0,0.0,0.0,0.0,0.0,0.0,0.0,0.0,0.0,0.0,0.0,0.0,0.0,0.0,0.0,0.0,0.0,0.0,0.0,0.0,0.0,-0.0144,-0.1399,-0.4649,-0.7218,-0.8917,-1.0651,-1.2631,-1.4767,-1.6031,-1.7668,0.0,0.0,0.0,0.0,0.0,0.0,0.0,0.0,0.0,0.0,0.0,0.0,0.0,0.0,0.0,0.0,0.0,0.0,0.0,0.0,0.0,0.0,0.0,0.0,0.0,0.0,0.0,0.0,-1.7287,-1.677,-1.4985,0.0,0.0,0.0,0.0,0.0,0.0,0.0,0.0,0.0,0.0,-1.7081,-1.9491,-2.1629,0.0,0.0,-2.6954,-2.8019,-2.887,-2.9372,-2.93,-2.8281,-2.7284,0.0,0.0,0.0,0.0,0.0,0.0,0.0,0.0,0.0,0.0,0.0,0.0,0.0,0.0,0.0,0.0,0.0,0.0,0.0,0.0,0.0,0.0,0.0,0.0,0.0,0.0,0.0,0.0,0.0,0.0,0.0,0.0,0.0,0.0,0.0,0.0,0.0,0.0,0.0,0.0,0.0,0.0,0.0,0.0,0.0,0.0,0.0,0.0,0.0,0.0,0.0,0.0,-0.1481,-0.2571,-0.5387,-0.7638,-0.9397,-1.0848,-1.2746,-1.5119,-1.6043,-1.7606,0.0,0.0,0.0,0.0,0.0,0.0,0.0,0.0,0.0,0.0,0.0,0.0,0.0,0.0,0.0,0.0,0.0,0.0,0.0,0.0,0.0,0.0,0.0,0.0,0.0,0.0,0.0,0.0,-1.5222,-1.4211,-1.2004,0.0,0.0,0.0,0.0,0.0,0.0,0.0,0.0,0.0,0.0,-1.6904,-1.9503,-2.1083,-2.2743,-2.5115,-2.6222,-2.7133,-2.8167,-2.8042,-2.7781,-2.7618,0.0,0.0,0.0,0.0,0.0,0.0,0.0,0.0,0.0,0.0,0.0,0.0,0.0,0.0,0.0,0.0,0.0,0.0,0.0,0.0,0.0,0.0,0.0,0.0,0.0,0.0,0.0,0.0,0.0,0.0,-0.0752,0.0,0.0,0.0,0.0,0.0,0.0,0.0,0.0,0.0,0.0,0.0,0.0,0.0,0.0,0.0,0.0,0.0,0.0,0.0,0.0,0.0,0.0,-0.2204,-0.4276,-0.5983,-0.7696,-0.9531,-1.0784,-1.2695,-1.5316,-1.5731,-1.7436,-2.0797,0.0,0.0,0.0,0.0,0.0,0.0,0.0,0.0,0.0,0.0,0.0,0.0,0.0,0.0,0.0,0.0,0.0,0.0,0.0,0.0,0.0,0.0,0.0,0.0,0.0,0.0,-1.2948,-1.1596,-1.0519,0.0,0.0,0.0,0.0,0.0,0.0,0.0,0.0,0.0,0.0,-1.5531,-1.7147,-1.9516,-2.05,-2.1773,-2.4156,-2.5169,-2.6241,-2.8051,-2.8136,-2.7506,0.0,0.0,0.0,0.0,0.0,0.0,0.0,0.0,0.0,0.0,0.0,0.0,0.0,0.0,0.0,0.0,0.0,0.0,0.0,0.0,0.0,0.0,0.0,0.0,0.0,0.0,0.0,-0.2477,-0.2703,0.0,0.0,0.0,0.0,0.0,0.0,0.0,0.0,0.0,0.0,0.0,-0.4199,-0.4999,0.0,0.0,0.0,0.0,0.0,0.0,0.0,0.0,0.0,0.0,0.0,0.0,-0.3728,-0.4665,-0.6765,-0.8345,-0.9412,-1.0697,-1.2532,-1.4944,-1.5826,-1.7726,-2.0848,0.0,0.0,0.0,0.0,0.0,0.0,0.0,0.0,0.0,0.0,0.0,0.0,0.0,0.0,0.0,0.0,0.0,0.0,0.0,0.0,0.0,0.0,0.0,0.0,0.0,-1.0911,0.0,0.0,0.0,0.0,0.0,0.0,0.0,0.0,0.0,0.0,0.0,-1.1342,-1.3153,-1.5378,-1.7254,-1.8558,-2.0437,-2.2256,0.0,0.0,0.0,0.0,0.0,0.0,0.0,0.0,0.0,0.0,0.0,0.0,0.0,0.0,-2.154,-2.0456,-1.9066,-1.787,-1.7014,0.0,0.0,0.0,0.0,0.0,0.0,0.0,0.0,0.0,0.0,0.0,0.0,0.0,0.0,-0.1624,0.0,-0.2673,0.0,0.0,0.0,0.0,0.0,0.0,0.0,0.0,-0.1414,-0.2849,-0.4467,-0.4882,-0.616,0.0,-0.7796,-0.772,0.0,0.0,0.0,0.0,0.0,0.0,0.0,0.0,-0.4902,-0.5364,-0.7342,-0.8737,-0.9407,-1.0628,-1.2325,-1.4462,-1.6307,-1.8182,-2.0198,-2.0373,-2.0554,0.0,0.0,0.0,0.0,0.0,0.0,0.0,0.0,0.0,0.0,0.0,0.0,0.0,0.0,0.0,0.0,0.0,0.0,0.0,0.0,0.0,0.0,0.0,-1.0155,0.0,0.0,0.0,0.0,0.0,0.0,0.0,0.0,0.0,-0.9383,-1.088,-1.2293,-1.3689,-1.5491,-1.7088,-1.8162,0.0,0.0,0.0,0.0,0.0,0.0,0.0,-2.3907,-2.329,-2.2379,-2.187,-2.214,-2.2503,-2.253,-2.1752,0.0,0.0,-2.1053,-1.9967,-1.8811,-1.7985,-1.7235,-1.6615,-1.6127,-1.6521,-1.7232,0.0,0.0,0.0,0.0,0.0,0.0,0.0,0.0,0.0089,-0.0266,0.0,-0.0434,0.0,0.0,0.0,0.0,0.0,-0.0359,0.0,0.0,-0.1389,-0.2514,-0.421,-0.4476,-0.5638,-0.7439,-0.7847,-0.7934,-0.7621,-0.6884,0.0,0.0,0.0,0.0,0.0,0.0,-0.5663,-0.6454,-0.772,-0.8803,-0.961,-1.0557,-1.2114,-1.4104,-1.7027,-1.873,-1.9137,-2.0059,-2.0613,-2.0714,-2.074,0.0,0.0,0.0,0.0,0.0,0.0,0.0,0.0,0.0,0.0,0.0,0.0,0.0,0.0,0.0,0.0,0.0,0.0,0.0,0.0,-0.9493,0.0,0.0,0.0,0.0,0.0,0.0,0.0,0.0,0.0,0.0,-0.9561,-1.1499,-1.3641,-1.5476,0.0,0.0,0.0,0.0,-1.8311,-2.1747,-2.1868,-2.2202,-2.377,-2.3846,-2.3394,-2.2795,0.0,0.0,-2.2008,-2.2115,-2.2204,-2.2087,-2.0854,-2.0271,-2.1695,-2.0908,-1.9799,-1.8775,-1.8263,-1.7485,-1.6049,-1.6766,-1.7666,-0.0878,0.0,0.0,0.0,0.0,0.0851,0.1232,0.1044,0.0094,-0.037,-0.0544,-0.0803,0.0,0.0,0.0,0.0,0.0,0.0,-0.0816,-0.1364,-0.1368,-0.2193,-0.3474,-0.4203,-0.5247,-0.6623,-0.7305,-0.7566,-0.7566,-0.7083,-0.6703,-0.6418,0.0,0.0,0.0,0.0,-0.6152,-0.6624,-0.7889,-0.888,-0.9392,-1.0547,-1.2385,-1.4953,-1.6921,-1.8482,-1.9609,-2.0246,-2.0568,-2.0486,-2.0475,0.0,0.0,0.0,0.0,0.0,0.0,0.0,0.0,0.0,0.0,0.0,0.0,0.0,0.0,0.0,0.0,0.0,0.0,0.0,-0.9546,-0.9657,-0.9449,0.0,0.0,0.0,0.0,0.0,0.0,0.0,0.0,0.0,-1.0312,-1.178,-1.3469,0.0,0.0,-1.5833,-1.6368,-1.7078,-1.8128,-1.9698,-2.0461,0.0,0.0,-2.1959,-2.1703,-2.2255,-2.2145,-2.1919,-2.182,-2.2017,-2.2115,-2.183,-2.0674,-2.0,-2.0602,-1.9985,-1.894,-1.7934,-1.7649,-1.7186,-1.6074,-1.6161,-1.6614,0.0496,-0.0577,0.0193,0.0482,0.0482,0.1254,0.1451,0.1261,0.0676,0.0478,0.0473,0.0187,0.0274,0.0706,0.0,0.0,0.0,0.0,-0.1096,-0.1444,-0.1451,-0.1983,-0.2939,-0.3587,-0.4598,-0.5874,-0.6432,-0.6884,-0.7241,-0.6909,-0.6732,-0.6695,0.0,0.0,-0.599,-0.6222,-0.6539,-0.6795,-0.8012,-0.8927,-0.9296,-1.0726,-1.2498,-1.4665,-1.6192,-1.7648,-1.9034,-1.9715,-1.9977,-1.9966,-1.9824,-1.9263,0.0,0.0,0.0,0.0,0.0,0.0,0.0,0.0,0.0,0.0,0.0,-1.1636,-0.9988,0.0,0.0,0.0,-0.8177,-0.8852,-0.9639,-0.9375,0.0,0.0,0.0,0.0,0.0,0.0,0.0,-0.7496,-0.8524,-0.9611,-1.0587,-1.1874,-1.3248,-1.4904,-1.5154,-1.539,-1.6087,0.0,-1.7469,-1.8887,-1.9067,-1.9577,-2.0854,-2.0819,-2.0847,-2.1457,-2.153,-2.1429,-2.1379,-2.1304,-2.1316,-2.1228,-2.003,-1.9023,-1.9604,-1.8493,-1.745,-1.7289,-1.685,-1.6313,-1.5752,-1.5571,-1.567,0.1394,0.1568,0.1568,0.1568,0.1571,0.1569,0.1553,0.1532,0.1557,0.1762,0.1956,0.2053,0.1738,0.1038,-0.0186,0.0,-0.1348,-0.1398,-0.1472,-0.1399,-0.1453,-0.1878,-0.2699,-0.2751,-0.3683,-0.536,-0.5444,-0.5942,-0.6702,-0.6563,-0.6556,-0.6678,-0.6436,-0.6289,-0.616,-0.6544,-0.6785,-0.6942,-0.8089,-0.8927,-0.9448,-1.1099,-1.2505,-1.3665,-1.5155,-1.6489,-1.7804,-1.8576,-1.9054,-1.91,-1.8834,-1.8201,-1.722,0.0,0.0,0.0,0.0,0.0,0.0,0.0,0.0,0.0,0.0,0.0,0.0,0.0,0.0,0.0,-0.7261,0.0,-0.936,-0.8959,0.0,0.0,0.0,-0.8227,-0.7975,-0.8107,-0.8028,-0.7595,0.0,0.0,-1.0474,-1.1545,-1.2792,-1.4308,-1.4711,-1.5328,-1.647,-1.6103,-1.6543,-1.8462,-1.7709,-1.7507,-1.9049,-1.9889,-2.0364,-2.0428,-2.0446,-2.0585,-2.0631,-2.0155,-2.0079,-2.0734,-1.8946,-1.7502,-1.8525,-1.6982,-1.5722,-1.6893,-1.6188,-1.5364,-1.5351,-1.5177,-1.5023,0.1447,0.1537,0.1729,0.1744,0.1569,0.1547,0.1546,0.1559,0.1737,0.181,0.1879,0.2254,0.2117,0.151,0.0707,0.0,-0.0718,-0.1248,-0.1436,-0.1458,-0.145,-0.1511,-0.1724,-0.2424,-0.3343,-0.4362,-0.5108,-0.5942,-0.6698,-0.6664,-0.6603,-0.6532,-0.6529,-0.6428,-0.6391,-0.6674,-0.6906,-0.6865,-0.8089,-0.9306,-1.0438,-1.1186,-1.2211,-1.3673,-1.4665,-1.5852,-1.7239,-1.7881,-1.7959,-1.7463,-1.7326,-1.6515,-1.4985,-1.4959,0.0,0.0,0.0,0.0,0.0,0.0,0.0,0.0,0.0,-1.0554,-0.9105,0.0,-0.9035,0.0,-0.8167,-0.8661,-0.9258,-0.9065,0.0,0.0,-0.8566,-0.8503,-0.8412,-0.8269,-0.8113,-0.7852,-0.7886,-0.852,-0.9911,-1.0517,-1.1505,-1.341,-1.4031,-1.4541,-1.5273,-1.5105,-1.5205,-1.5973,-1.6278,-1.6589,-1.7416,-1.8554,-1.9401,-1.9291,-1.979,-1.9987,-1.9135,-1.917,-1.9385,-1.9497,-1.7993,-1.7041,-1.7458,-1.6206,-1.5271,-1.5513,-1.5291,-1.507,-1.5064,-1.4907,-1.4674,0.16,0.1505,0.1771,0.1785,0.1721,0.1814,0.1824,0.1841,0.2013,0.2076,0.2221,0.2591,0.2376,0.179,0.1341,0.0626,-0.0448,-0.079,-0.1138,-0.1421,-0.1404,-0.1373,-0.1332,-0.1848,-0.25,-0.3258,-0.4227,-0.509,-0.5762,-0.6227,-0.643,-0.6278,-0.6342,-0.638,-0.6376,-0.668,-0.6824,-0.6973,-0.8205,-0.9377,-1.0363,-1.0962,-1.1774,-1.2872,-1.3867,-1.4854,-1.5922,-1.6558,-1.6627,-1.614,-1.593,-1.5146,-1.3576,-1.3484,-1.2917,0.0,0.0,0.0,0.0,0.0,0.0,0.0,0.0,0.0,0.0,0.0,-0.8976,-0.8393,-0.8412,-0.8594,-0.8973,-0.8814,-0.871,-0.8644,-0.8572,-0.8568,-0.8476,-0.8292,-0.8028,-0.7768,-0.7595,-0.8032,-0.9331,-1.0019,-1.1016,-1.2825,-1.3477,-1.3911,-1.4433,-1.4592,-1.4727,-1.4915,-1.5673,-1.6433,-1.6902,-1.7803,-1.8422,-1.8533,-1.8921,-1.8865,-1.768,-1.7482,-1.7621,-1.7681,-1.6421,-1.5585,-1.6352,-1.5464,-1.4497,-1.4464,-1.4287,-1.4315,-1.4703,-1.4575,-1.4368,0.1751,0.1564,0.1808,0.1904,0.1938,0.2161,0.2276,0.2186,0.2181,0.2345,0.2676,0.2856,0.2665,0.2012,0.183,0.1085,-0.0089,-0.0174,-0.0513,-0.1095,-0.1094,-0.1152,-0.1264,-0.129,-0.1605,-0.2265,-0.327,-0.3995,-0.4574,-0.5673,-0.6146,-0.6037,-0.6166,-0.624,-0.6257,-0.6468,-0.6758,-0.7123,-0.8313,-0.9216,-0.9798,-1.0645,-1.1335,-1.1929,-1.3004,-1.3875,-1.4394,-1.4879,-1.5092,-1.495,-1.4601,-1.3833,-1.265,-1.2565,-1.2157,0.0,-1.0906,0.0,0.0,0.0,0.0,0.0,0.0,0.0,0.0,-0.8483,-0.8363,-0.83,-0.8325,-0.839,-0.8552,-0.8572,-0.8568,-0.8568,-0.8568,-0.8476,-0.8201,-0.8181,-0.8002,-0.7503,-0.7471,-0.78,-0.8777,-0.962,-1.0544,-1.2082,-1.2694,-1.3257,-1.3901,-1.4171,-1.4393,-1.4532,-1.5389,-1.6223,-1.6863,-1.7282,-1.7603,-1.7792,-1.7856,-1.7441,-1.6291,-1.5699,-1.5416,-1.5532,-1.4628,-1.4123,-1.5189,-1.4389,-1.3732,-1.3601,-1.3355,-1.34,-1.4051,-1.3992,-1.3728,0.2076,0.2075,0.2248,0.234,0.2439,0.263,0.2568,0.2232,0.238,0.2629,0.2891,0.2891,0.2747,0.2488,0.197,0.1693,0.1573,0.1072,0.0663,0.0168,0.0,-0.0415,-0.1052,-0.1056,-0.1511,-0.2441,-0.3042,-0.3749,-0.4673,-0.5504,-0.5935,-0.603,-0.6061,-0.6135,-0.6325,0.0,0.0,0.0,-0.8335,-0.8995,-0.9422,-1.033,-1.1037,-1.1484,-1.2365,0.0,-1.3477,-1.368,-1.3753,-1.355,-1.3324,0.0,0.0,0.0,0.0,0.0,0.0,0.0,0.0,0.0,0.0,0.0,-0.9044,-0.8658,-0.8431,-0.8324,-0.8365,-0.8491,-0.8515,-0.8528,-0.8564,-0.8572,-0.848,-0.8296,-0.8292,-0.8201,-0.8025,-0.7816,-0.7699,-0.7485,-0.7279,-0.7502,-0.8296,-0.8447,-0.933,-1.1103,-1.1578,-1.216,-1.3193,-1.3534,-1.3753,-1.3753,-1.4598,-1.5278,-1.5872,-1.6362,-1.679,-1.7157,-1.6826,-1.6215,-1.5428,-1.4636,-1.3787,-1.3167,-1.283,-1.2826,-1.2864,-1.2813,-1.2857,-1.2813,-1.3085,-1.3286,-1.3322,-1.2921,-1.2631,0.2334,0.0,0.2424,0.2515,0.0,0.2785,0.2801,0.2553,0.2617,0.2785,0.2871,0.2811,0.2767,0.2734,0.2339,0.2067,0.1815,0.1533,0.089,0.0083,0.0081,-0.0238,-0.0943,-0.0854,-0.099,-0.1411,-0.2225,-0.2923,-0.3703,-0.4613,-0.5297,-0.5817,-0.5739,-0.5885,-0.603,-0.6103,-0.6426,-0.6941,-0.7952,-0.8604,-0.8998,-0.9867,-1.0669,-1.1254,0.0,0.0,0.0,0.0,0.0,0.0,0.0,0.0,0.0,0.0,0.0,-1.0807,-1.0588,-1.0438,-1.0218,-0.98,-0.9433,-0.9027,-0.8203,-0.7918,-0.8336,-0.8354,-0.8369,-0.8544,-0.8483,-0.843,-0.8426,-0.8263,-0.8126,-0.7947,-0.7866,-0.7695,-0.7513,-0.7451,-0.7264,-0.7154,-0.6961,-0.7058,-0.7377,-0.7899,-0.853,-0.9657,-1.0513,-1.119,-1.1958,-1.2921,-1.3574,-1.3824,-1.4137,-1.4684,-1.5296,-1.5528,-1.5819,-1.604,-1.5742,-1.5025,-1.4179,-1.3515,-1.2856,-1.1979,-1.1957,-1.1994,-1.2043,-1.2154,-1.2246,-1.2234,-1.2403,-1.2438,-1.2234,-1.197,-1.1836,0.2515,0.2334,0.2515,0.2604,0.2604,0.2785,0.2963,0.3053,0.0,0.0,0.0,0.2998,0.2968,0.3001,0.2893,0.254,0.2069,0.2065,0.1338,0.016,0.0307,-0.0075,-0.0751,-0.0662,-0.0509,-0.0434,-0.1373,-0.2065,-0.2567,-0.3613,-0.4545,-0.5256,-0.5355,-0.5552,-0.5691,-0.6118,-0.6321,-0.6306,-0.743,-0.8221,-0.8646,-0.9326,-1.0107,-1.0896,-1.1077,-1.1346,-1.1713,-1.1752,-1.171,-1.1777,-1.1607,-1.1335,-1.1037,-1.0812,-1.0594,-1.0438,-1.0218,-1.0067,-0.9992,-0.9504,-0.8933,-0.8422,-0.725,-0.7038,-0.8046,-0.7985,-0.7959,-0.802,-0.7897,-0.7812,-0.7901,-0.7609,-0.7439,-0.7608,-0.7447,-0.7285,-0.7109,-0.7001,-0.6919,-0.6688,-0.6654,-0.6634,-0.6654,-0.7271,-0.7938,-0.8286,-0.9262,-1.0368,-1.0819,-1.2228,-1.3361,-1.3684,-1.381,-1.4168,-1.4652,-1.4774,-1.4805,-1.4957,-1.4456,-1.3783,-1.2989,-1.2384,-1.1896,-1.1566,-1.1461,-1.154,-1.1715,-1.1739,-1.1775,-1.1775,-1.1612,-1.1461,-1.139,-1.1218,-1.1235,0.2785,0.2785,0.2785,0.2875,0.2875,0.2875,0.3142,0.3492,0.3343,0.3575,0.3915,0.3825,0.3748,0.3773,0.3749,0.378,0.4027,0.3923,0.3195,0.0,0.1852,0.0951,-0.0366,-0.0365,-0.0432,-0.0564,-0.1125,-0.1524,-0.1893,-0.3185,-0.3971,-0.4248,-0.483,-0.5193,-0.5401,-0.5752,-0.5892,-0.5762,-0.6983,-0.7879,-0.8274,-0.8801,-0.9416,-1.0036,-1.0213,-1.0377,-1.0588,-1.0659,-1.0701,-1.0852,-1.0769,-1.0663,-1.0594,-1.0368,-1.0293,-1.0218,-0.9695,-0.9397,-0.9397,-0.8869,-0.8175,-0.7337,-0.6331,-0.6165,-0.7191,-0.6802,-0.6312,-0.5996,-0.5981,-0.605,-0.6386,-0.6443,-0.6589,-0.7098,-0.7109,-0.7026,-0.6764,-0.6658,-0.663,-0.6658,-0.6471,-0.638,-0.6461,-0.6555,-0.6939,-0.7675,-0.8196,-0.8794,-1.0288,-1.1602,-1.2499,-1.2803,-1.2952,-1.3321,-1.3675,-1.3682,-1.3579,-1.388,-1.2924,-1.2236,-1.2094,-1.1527,-1.1135,-1.1172,-1.1127,-1.1139,-1.1181,-1.1226,-1.1199,-1.1211,-1.1157,-1.1127,-1.1121,-1.0926,-1.0819,0.3053,0.3321,0.332,0.3409,0.3678,0.3676,0.3942,0.4283,0.4151,0.412,0.406,0.3936,0.3938,0.3897,0.3846,0.3959,0.407,0.4031,0.3444,0.2561,0.2133,0.1372,0.0356,0.0,-0.0208,-0.0274,-0.048,-0.0884,-0.1476,-0.2079,-0.2631,-0.3273,-0.4026,-0.4577,-0.5058,-0.546,-0.5561,-0.5498,-0.6565,-0.7257,-0.7568,-0.8304,-0.8912,-0.9373,-0.9763,-0.9997,-1.0061,-1.0102,-1.0153,-1.0431,-1.0262,-1.0233,-1.0282,-1.0143,-0.9922,-0.9695,-0.916,-0.8703,-0.8475,-0.7708,-0.6845,-0.6042,-0.5224,-0.481,-0.5074,-0.5465,-0.5697,-0.5513,-0.5218,-0.5094,-0.5336,-0.5523,-0.5802,-0.6125,-0.6454,-0.6621,-0.6534,-0.641,-0.639,-0.6437,-0.6346,-0.6335,-0.6234,-0.6176,-0.6245,-0.67,-0.7182,-0.8178,-0.9487,-1.034,-1.1093,-1.1626,-1.1929,-1.2003,-1.2057,-1.2057,-1.199,-1.199,-1.1626,-1.1335,-1.126,-1.0812,-1.0738,-1.0738,-1.0818,-1.0812,-1.0812,-1.0818,-1.0812,-1.0812,-1.0738,-1.0738,-1.0714,-1.0539,-1.0401,0.3409,0.3764,0.3765,0.3942,0.4297,0.4366,0.4623,0.4956,0.4843,0.4627,0.4329,0.4181,0.419,0.4183,0.411,0.4075,0.4073,0.4053,0.3603,0.284,0.2261,0.1636,0.0833,0.0272,0.0,0.0,0.0,-0.0336,-0.0939,-0.1075,-0.1611,-0.2546,-0.322,-0.3823,-0.4495,-0.4894,-0.5156,-0.5372,-0.6076,-0.6642,-0.7018,-0.767,-0.8235,-0.8718,-0.9087,-0.9341,-0.9336,-0.9391,-0.9578,-0.9828,-0.9608,-0.9672,-0.9894,-0.9531,-0.9236,-0.8864,-0.8286,-0.777,-0.7318,-0.6314,-0.5467,-0.4844,-0.4124,-0.3573,-0.3344,-0.4001,-0.4562,-0.4582,-0.4216,-0.4017,-0.4172,-0.443,-0.4919,-0.5389,-0.5786,-0.6096,-0.6217,-0.6207,-0.619,-0.6173,-0.6156,-0.6105,-0.5939,-0.5905,-0.5939,-0.6002,-0.6554,-0.7491,-0.8365,-0.8842,-0.9437,-1.0063,-1.0718,-1.1019,-1.049,-1.0645,-1.0738,-1.0443,-1.0588,-1.0588,-1.0438,-1.0438,-1.0438,-1.0513,-1.0513,-1.0513,-1.0513,-1.0513,-1.0484,-1.0519,-1.053,-1.0479,-1.0324,-1.0263,-1.0131,0.421,0.421,0.421,0.43,0.4378,0.4655,0.4793,0.4851,0.5061,0.5127,0.5054,0.4928,0.488,0.4875,0.4867,0.4859,0.4851,0.4749,0.4266,0.3505,0.2628,0.187,0.1084,0.0337,0.0,0.0,0.0,-0.0067,-0.0202,-0.0807,-0.1478,-0.208,-0.2415,-0.2885,-0.3553,-0.3951,-0.4417,-0.5087,-0.5512,-0.6123,-0.6924,-0.6931,-0.7207,-0.7869,-0.7893,-0.7921,-0.7941,-0.811,-0.8429,-0.867,-0.8499,-0.8561,-0.8963,-0.8259,-0.7742,-0.7751,-0.6916,-0.6237,-0.577,-0.4844,-0.4297,-0.4139,-0.3224,-0.266,-0.2579,-0.2312,-0.218,-0.226,-0.2203,-0.2511,-0.2912,-0.2976,-0.374,-0.56,-0.5452,-0.5348,-0.5852,-0.6051,-0.5925,-0.5574,-0.5735,-0.5765,-0.5617,-0.5673,-0.5806,-0.5711,-0.594,-0.6342,-0.7101,-0.747,-0.7614,-0.801,-0.9081,-1.006,-1.0013,-0.989,-0.9814,-1.0051,-0.9771,-0.9771,-0.9992,-1.0218,-1.0293,-1.0368,-1.0443,-1.0443,-1.0415,-1.0507,-1.0421,-1.0183,-1.0211,-1.0364,-0.997,-0.9846,-0.9849,0.4476,0.4743,0.4746,0.4835,0.509,0.5165,0.5206,0.5183,0.5295,0.535,0.5416,0.5381,0.5249,0.5018,0.5018,0.5093,0.5165,0.5112,0.4949,0.4678,0.3835,0.2961,0.2132,0.1352,0.074,0.0337,0.0202,0.0202,0.0135,-0.0269,-0.0807,-0.1477,-0.1612,-0.2013,-0.2614,-0.2948,-0.3215,-0.348,-0.375,-0.4361,-0.5406,-0.6246,-0.6845,-0.7171,-0.7442,-0.7529,-0.7433,-0.75,-0.7673,-0.7812,-0.7695,-0.7831,-0.8171,-0.777,-0.7402,-0.6954,-0.5818,-0.4792,-0.4124,-0.3648,-0.3224,-0.2763,-0.236,-0.1968,-0.1739,-0.1554,-0.1399,-0.1346,-0.1428,-0.1578,-0.188,-0.218,-0.3001,-0.4199,-0.4572,-0.4924,-0.5539,-0.5606,-0.5504,-0.5381,-0.5444,-0.5477,-0.5259,-0.5246,-0.524,-0.5364,-0.546,-0.5694,-0.6054,-0.6373,-0.6591,-0.6678,-0.7436,-0.7997,-0.8324,-0.8435,-0.8566,-0.8893,-0.9013,-0.916,-0.9533,-0.9695,-0.9771,-1.0067,-1.0143,-1.0082,-0.986,-0.9928,-0.9941,-0.9763,-0.9751,-0.979,-0.9524,-0.9377,-0.9434,0.5008,0.5272,0.5336,0.552,0.5888,0.57,0.5554,0.5639,0.5572,0.5542,0.5533,0.5602,0.5482,0.5168,0.5137,0.5195,0.5343,0.5307,0.5301,0.5249,0.4491,0.3752,0.3105,0.2303,0.1543,0.0875,0.074,0.0539,0.0404,0.02,-0.0134,-0.0604,-0.0673,-0.1008,-0.1678,-0.1946,-0.2147,-0.2409,-0.2606,-0.3109,-0.3957,-0.5016,-0.5959,-0.6465,-0.6815,-0.6943,-0.6863,-0.6818,-0.6853,-0.697,-0.692,-0.6912,-0.6966,-0.6724,-0.6207,-0.5416,-0.4391,-0.3545,-0.2877,-0.2715,-0.238,-0.1872,-0.1715,-0.1484,-0.1182,-0.1087,-0.1,-0.0857,-0.0928,-0.1003,-0.1165,-0.1602,-0.2183,-0.2835,-0.3632,-0.4277,-0.4819,-0.5101,-0.5225,-0.5127,-0.5093,-0.5154,-0.4983,-0.4901,-0.4882,-0.5024,-0.5111,-0.5208,-0.5304,-0.5537,-0.5748,-0.5755,-0.5895,-0.6283,-0.678,-0.7158,-0.7522,-0.7979,-0.8344,-0.8604,-0.8964,-0.9034,-0.9246,-0.9544,-0.9695,-0.9616,-0.9437,-0.9353,-0.923,-0.9034,-0.905,-0.9108,-0.8795,-0.8701,-0.8585,0.6169,0.6062,0.6129,0.6237,0.631,0.5939,0.5849,0.5954,0.5689,0.5572,0.5578,0.5634,0.5556,0.5541,0.5415,0.5367,0.5352,0.5249,0.5203,0.5023,0.4351,0.3861,0.3701,0.3015,0.2275,0.1605,0.1471,0.1138,0.0538,0.046,0.0459,0.0404,0.0337,-0.0067,-0.0739,-0.1072,-0.1541,-0.2134,-0.2399,-0.269,-0.2761,-0.3019,-0.4024,-0.5629,-0.5804,-0.5796,-0.5868,-0.5821,-0.59,-0.6191,-0.59,-0.5651,-0.5357,-0.462,-0.3709,-0.2737,-0.2435,-0.2392,-0.2356,-0.2036,-0.1778,-0.1739,-0.136,-0.1057,-0.092,-0.0831,-0.0751,-0.0543,-0.0545,-0.0624,-0.0718,-0.0865,-0.1229,-0.2097,-0.268,-0.3363,-0.3992,-0.4682,-0.4903,-0.476,-0.4748,-0.4818,-0.4785,-0.477,-0.4767,-0.4785,-0.4846,-0.4861,-0.4879,-0.4873,-0.4931,-0.4928,-0.5017,-0.532,-0.6277,-0.6625,-0.702,-0.7397,-0.7605,-0.7925,-0.8266,-0.8543,-0.8779,-0.9049,-0.9115,-0.9094,-0.8925,-0.8724,-0.8443,-0.8342,-0.837,-0.8348,-0.8148,-0.7783,-0.7724,0.7221,0.7207,0.7142,0.6824,0.638,0.5998,0.5906,0.6004,0.5826,0.5786,0.577,0.5848,0.5885,0.5872,0.564,0.5561,0.5554,0.5434,0.5418,0.5432,0.5136,0.4723,0.4198,0.3852,0.3315,0.2551,0.1961,0.1309,0.0591,0.0462,0.0467,0.0471,0.0472,0.0337,0.0067,0.0,-0.0262,-0.0521,-0.0748,-0.1103,-0.1619,-0.1777,-0.2523,-0.3738,-0.4164,-0.4291,-0.4181,-0.4215,-0.424,-0.4229,-0.4116,-0.3998,-0.3873,-0.3356,-0.2926,-0.253,-0.2306,-0.2023,-0.1745,-0.1539,-0.1303,-0.104,-0.0908,-0.0769,-0.0697,-0.0616,-0.054,-0.0404,-0.0337,-0.0339,-0.0338,-0.0412,-0.0832,-0.1524,-0.2213,-0.2826,-0.3479,-0.4149,-0.4546,-0.4442,-0.4434,-0.45,-0.45,-0.45,-0.4431,-0.4361,-0.4495,-0.4561,-0.455,-0.4563,-0.464,-0.4552,-0.4568,-0.4807,-0.5329,-0.5832,-0.6197,-0.6512,-0.6807,-0.7029,-0.73,-0.75,-0.7698,-0.8351,-0.8486,-0.8231,-0.7969,-0.7588,-0.739,-0.7378,-0.7469,-0.755,-0.7481,-0.7158,-0.712,0.7599,0.7752,0.7473,0.698,0.6509,0.6084,0.6003,0.6097,0.6047,0.5996,0.5934,0.5982,0.5989,0.5922,0.5701,0.5617,0.5636,0.5516,0.552,0.565,0.5559,0.5307,0.4944,0.4794,0.4224,0.3343,0.2269,0.1516,0.1029,0.0775,0.0656,0.0672,0.0669,0.0601,0.0604,0.0595,0.0587,0.0513,0.0369,0.0,-0.0545,-0.0714,-0.1127,-0.1704,-0.2224,-0.269,-0.3011,-0.3135,-0.3119,-0.2958,-0.2972,-0.2899,-0.2629,-0.2226,-0.2023,-0.197,-0.1772,-0.1503,-0.1095,-0.101,-0.0908,-0.0591,-0.0602,-0.0543,-0.0472,-0.0466,-0.033,-0.0263,-0.0131,-0.0065,0.0,-0.013,-0.0395,-0.086,-0.1524,-0.2195,-0.2746,-0.3424,-0.3897,-0.41,-0.4164,-0.4164,-0.4164,-0.4164,-0.4095,-0.3961,-0.4159,-0.4295,-0.4215,-0.4197,-0.4246,-0.4168,-0.4148,-0.4222,-0.4484,-0.4785,-0.5323,-0.5713,-0.5909,-0.612,-0.622,-0.6356,-0.6773,-0.7532,-0.7632,-0.7295,-0.6976,-0.6546,-0.6384,-0.6302,-0.6402,-0.6532,-0.6527,-0.653,-0.6633,0.7311,0.7804,0.7109,0.6791,0.6695,0.641,0.6346,0.6451,0.6315,0.6242,0.6057,0.605,0.595,0.5783,0.5703,0.5586,0.5579,0.5467,0.5406,0.547,0.5452,0.5509,0.5502,0.5491,0.5062,0.4143,0.2662,0.2006,0.2031,0.1352,0.106,0.112,0.1044,0.0914,0.0806,0.0797,0.0724,0.0576,0.0495,0.0423,0.0355,0.0176,0.0059,0.0,-0.0304,-0.1106,-0.2505,-0.2553,-0.2512,-0.2436,-0.2497,-0.2293,-0.1677,-0.1237,-0.0899,-0.0845,-0.0732,-0.0628,-0.0528,-0.0534,-0.0545,-0.0433,-0.0504,-0.0382,-0.0316,-0.0253,-0.019,0.0,0.0125,0.0186,0.0247,0.0248,0.0188,-0.0064,-0.0775,-0.1372,-0.186,-0.2547,-0.322,-0.3611,-0.3799,-0.3818,-0.3818,-0.3791,-0.3784,-0.3799,-0.3806,-0.386,-0.3772,-0.3759,-0.367,-0.3631,-0.3653,-0.3714,-0.3679,-0.3722,-0.437,-0.4953,-0.5122,-0.5271,-0.5113,-0.5213,-0.5686,-0.6272,-0.6331,-0.6034,-0.5949,-0.56,-0.5514,-0.5466,-0.551,-0.5705,-0.5855,-0.5986,-0.6113,0.8215,0.8724,0.8031,0.7411,0.6894,0.677,0.6805,0.6914,0.6601,0.6453,0.6367,0.6158,0.5965,0.5832,0.5627,0.5564,0.5426,0.5509,0.5554,0.5554,0.569,0.5756,0.5822,0.5818,0.5349,0.4485,0.3765,0.3191,0.2767,0.2178,0.1915,0.1885,0.1447,0.1196,0.1081,0.1058,0.0979,0.0787,0.0706,0.0633,0.0627,0.0456,0.0342,0.0342,0.023,-0.0116,-0.0519,-0.0983,-0.1151,-0.1083,-0.107,-0.1008,-0.0784,-0.0617,-0.0561,-0.0505,-0.0505,-0.045,-0.0285,-0.0291,-0.0236,-0.018,-0.0061,0.0,0.0062,0.0124,0.0186,0.0185,0.0308,0.0368,0.0421,0.0418,0.0364,0.025,-0.0318,-0.0837,-0.117,-0.2086,-0.2738,-0.299,-0.3334,-0.3582,-0.362,-0.3611,-0.3462,-0.3383,-0.3524,-0.3505,-0.3308,-0.3279,-0.3336,-0.3215,-0.3196,-0.3163,-0.32,-0.3168,-0.3508,-0.4014,-0.4193,-0.4428,-0.4293,-0.4293,-0.4737,-0.4974,-0.491,-0.4934,-0.4868,-0.4761,-0.4687,-0.4762,-0.4931,-0.5133,-0.529,-0.5455,-0.5657,0.8499,0.9156,0.8233,0.7445,0.6995,0.6943,0.6883,0.6902,0.6693,0.654,0.6406,0.6168,0.5977,0.5819,0.5729,0.569,0.5627,0.5752,0.5815,0.5815,0.5822,0.5954,0.599,0.5876,0.5575,0.4896,0.4317,0.3935,0.3571,0.2951,0.252,0.2263,0.1948,0.1589,0.1293,0.1273,0.1195,0.106,0.0983,0.0852,0.0787,0.0617,0.0505,0.0505,0.0449,0.0393,0.0393,0.0,-0.0172,-0.0169,-0.0224,-0.028,-0.028,-0.0336,-0.028,-0.0168,-0.0224,-0.0168,0.0,0.0057,0.0058,0.0174,0.0236,0.0238,0.0298,0.0358,0.0358,0.0358,0.0476,0.0532,0.0581,0.0636,0.0585,0.0654,0.0122,-0.0375,-0.0883,-0.1772,-0.2407,-0.2587,-0.2806,-0.2931,-0.2818,-0.2629,-0.2542,-0.2461,-0.2596,-0.2778,-0.253,-0.2624,-0.2632,-0.264,-0.2537,-0.2584,-0.2707,-0.2723,-0.2735,-0.3027,-0.3325,-0.3539,-0.3595,-0.3649,-0.3921,-0.4036,-0.4057,-0.4164,-0.4091,-0.4143,-0.4131,-0.4216,-0.4345,-0.4624,-0.4847,-0.5035,-0.5219,0.8264,0.8971,0.7733,0.7089,0.6979,0.6942,0.6866,0.6719,0.6644,0.6474,0.6241,0.6202,0.6039,0.5966,0.5958,0.5888,0.5892,0.6086,0.6148,0.6148,0.6086,0.6075,0.614,0.5864,0.5628,0.5397,0.4597,0.4254,0.4285,0.3589,0.2932,0.2649,0.2427,0.2018,0.1633,0.147,0.1381,0.1349,0.1228,0.1152,0.1124,0.0897,0.0729,0.0729,0.0561,0.0505,0.0449,0.0394,0.0337,0.0224,0.0056,0.0,0.0,-0.0112,-0.0056,0.0168,0.0056,0.0168,0.0336,0.0337,0.0338,0.0338,0.0395,0.0393,0.0453,0.0512,0.0512,0.0511,0.0623,0.0733,0.0789,0.0845,0.096,0.1015,0.0701,0.006,-0.092,-0.1478,-0.1719,-0.2026,-0.2087,-0.1841,-0.153,-0.1222,-0.1036,-0.0982,-0.1228,-0.1468,-0.1514,-0.1726,-0.1886,-0.1909,-0.1927,-0.2037,-0.2216,-0.2217,-0.2227,-0.2355,-0.2557,-0.2627,-0.293,-0.3056,-0.3133,-0.3234,-0.3337,-0.3373,-0.3449,-0.3512,-0.3613,-0.3737,-0.3914,-0.4223,-0.4287,-0.4389,-0.4461,0.8199,0.8327,0.7533,0.7142,0.7103,0.7253,0.7231,0.7002,0.6923,0.6722,0.6555,0.6364,0.6218,0.6148,0.6148,0.602,0.602,0.6218,0.6284,0.628,0.6412,0.6327,0.6164,0.5796,0.5657,0.5522,0.515,0.4986,0.4964,0.4425,0.4054,0.3883,0.3024,0.2503,0.218,0.1849,0.1493,0.1367,0.1308,0.1305,0.1238,0.1178,0.1066,0.101,0.0954,0.0841,0.0785,0.0673,0.0561,0.0393,0.0336,0.028,0.028,0.028,0.028,0.0336,0.0336,0.0336,0.0392,0.0393,0.0393,0.0393,0.0561,0.0617,0.0617,0.0785,0.0841,0.0841,0.0954,0.1122,0.1066,0.1122,0.1234,0.124,0.1154,0.0951,0.0546,0.0181,-0.0238,-0.0297,-0.0641,-0.0759,-0.0706,-0.0527,-0.0349,-0.0236,-0.0356,-0.065,-0.0525,-0.0937,-0.1105,-0.1428,-0.1517,-0.1625,-0.1681,-0.1681,-0.174,-0.1742,-0.1808,-0.1757,-0.2104,-0.2433,-0.2477,-0.2583,-0.2643,-0.2742,-0.286,-0.2978,-0.3092,-0.3126,-0.3122,-0.318,-0.3216,-0.3245,-0.3364,0.9189,0.9291,0.8613,0.8268,0.812,0.805,0.7821,0.752,0.7233,0.6941,0.6793,0.6602,0.6548,0.6478,0.6346,0.6284,0.6284,0.6416,0.6437,0.6351,0.6472,0.6375,0.6161,0.591,0.5804,0.5663,0.5567,0.547,0.5466,0.5183,0.4959,0.4581,0.3956,0.3453,0.3132,0.2625,0.2183,0.2018,0.1849,0.1682,0.1459,0.1513,0.1402,0.1234,0.1177,0.1117,0.1047,0.0988,0.0828,0.0502,0.0505,0.0505,0.0504,0.0497,0.0553,0.0615,0.0554,0.0552,0.0615,0.0617,0.0617,0.0617,0.0785,0.0841,0.0897,0.1066,0.1122,0.1122,0.1234,0.1234,0.129,0.1347,0.1458,0.1573,0.1655,0.1514,0.1067,0.0698,0.0576,0.0458,0.0397,0.0393,0.0459,0.0565,0.0792,0.1029,0.1208,0.0968,0.0789,0.0171,-0.0287,-0.0395,-0.0392,-0.0279,-0.0223,-0.0223,-0.0223,-0.039,-0.0447,-0.0502,-0.1174,-0.1621,-0.1847,-0.1905,-0.2014,-0.2082,-0.2183,-0.2237,-0.2247,-0.2245,-0.2161,-0.219,-0.2278,-0.2259,-0.2319,1.0565,1.0881,1.0201,0.9755,0.9358,0.8973,0.8541,0.8103,0.7751,0.7355,0.7118,0.6942,0.6872,0.6876,0.6506,0.6523,0.6675,0.6702,0.6604,0.6539,0.6454,0.6328,0.6198,0.6048,0.5927,0.5788,0.5795,0.5791,0.574,0.574,0.5513,0.5066,0.4897,0.4563,0.3999,0.3547,0.3217,0.2929,0.2686,0.2245,0.1863,0.1807,0.1696,0.1369,0.1261,0.1247,0.128,0.122,0.1019,0.0498,0.0666,0.0772,0.0771,0.0699,0.0757,0.0883,0.0821,0.0766,0.0892,0.0954,0.0954,0.0954,0.1066,0.1122,0.1122,0.1234,0.129,0.1234,0.1347,0.1514,0.157,0.1628,0.1794,0.2018,0.2189,0.1681,0.1008,0.0895,0.095,0.0726,0.1174,0.1623,0.1903,0.2128,0.2242,0.2145,0.2262,0.2026,0.179,0.1407,0.1185,0.1178,0.1229,0.1284,0.1396,0.1453,0.1395,0.1338,0.1282,0.1004,-0.0056,-0.0559,-0.1064,-0.1234,-0.1017,-0.1136,-0.143,-0.1413,-0.1404,-0.1367,-0.1392,-0.1467,-0.1537,-0.1375,-0.136,1.0634,1.0121,0.997,0.976,0.9494,0.9462,0.92,0.8778,0.8853,0.8358,0.7882,0.7762,0.7377,0.6929,0.6737,0.6664,0.6889,0.6921,0.6813,0.6773,0.6637,0.6456,0.6294,0.6205,0.6027,0.5885,0.5791,0.5791,0.5791,0.5795,0.574,0.5567,0.5179,0.4838,0.4652,0.4072,0.359,0.3467,0.3294,0.2902,0.2391,0.2337,0.2078,0.156,0.1351,0.1239,0.123,0.1226,0.1179,0.1082,0.1084,0.1138,0.1042,0.1106,0.1117,0.1131,0.1153,0.1109,0.1175,0.1232,0.1234,0.1234,0.129,0.1234,0.1234,0.1459,0.1459,0.1458,0.1737,0.2074,0.2242,0.2184,0.224,0.2465,0.2577,0.2575,0.2404,0.2294,0.2183,0.2183,0.2296,0.2465,0.2521,0.2577,0.28,0.3135,0.3132,0.2963,0.2738,0.2512,0.2456,0.24,0.2345,0.2343,0.2454,0.251,0.2619,0.2672,0.2674,0.2674,0.1615,0.0837,0.0502,0.0282,0.0172,-0.0115,-0.0628,-0.0659,-0.0623,-0.0627,-0.0564,-0.0501,-0.0435,-0.0364,-0.0298,1.1403,1.0845,1.0839,1.0617,1.0293,1.0118,0.99,0.9586,0.946,0.9117,0.8705,0.8345,0.797,0.7815,0.7322,0.7278,0.7618,0.7355,0.7073,0.6899,0.668,0.6692,0.685,0.6682,0.6477,0.6092,0.6014,0.6014,0.6014,0.5955,0.6009,0.6009,0.5618,0.5496,0.5329,0.4737,0.4347,0.4076,0.3902,0.3462,0.2816,0.2968,0.2816,0.2164,0.1862,0.1704,0.1721,0.1669,0.1652,0.1634,0.1628,0.1463,0.125,0.1213,0.1224,0.1249,0.1265,0.135,0.1417,0.1501,0.1568,0.1738,0.1794,0.1849,0.1906,0.2018,0.2076,0.2018,0.2242,0.2521,0.2691,0.2579,0.2633,0.2912,0.3023,0.3132,0.3299,0.319,0.3026,0.3079,0.319,0.3246,0.3246,0.3135,0.3302,0.3633,0.3747,0.3633,0.3633,0.3461,0.3458,0.3458,0.3345,0.3345,0.3398,0.3508,0.3674,0.3785,0.3895,0.3895,0.3503,0.2783,0.223,0.1749,0.1141,0.057,0.0172,0.0181,0.0248,0.0244,0.0364,0.0548,0.0664,0.0705,0.0869,1.2308,1.1864,1.1824,1.1552,1.1168,1.0811,1.0588,1.0378,1.0028,0.9767,0.9458,0.8762,0.872,0.8655,0.795,0.8077,0.8287,0.81,0.7579,0.7185,0.705,0.7141,0.7365,0.7316,0.7147,0.6505,0.6391,0.6381,0.6284,0.6209,0.6086,0.6131,0.6122,0.5921,0.5788,0.5455,0.4989,0.4669,0.4457,0.3993,0.3323,0.3568,0.3423,0.2932,0.2587,0.2415,0.2364,0.2345,0.232,0.229,0.2241,0.1953,0.1589,0.1315,0.13,0.135,0.1477,0.1674,0.1825,0.1923,0.2071,0.2296,0.241,0.2521,0.2521,0.2521,0.2523,0.2633,0.2689,0.2745,0.28,0.2912,0.3077,0.3357,0.3466,0.3691,0.3858,0.3691,0.358,0.3524,0.3635,0.3688,0.3744,0.3744,0.391,0.4076,0.419,0.4304,0.4304,0.4301,0.4239,0.4236,0.4122,0.4122,0.4177,0.4229,0.4398,0.456,0.4728,0.4893,0.4893,0.4281,0.345,0.2519,0.1859,0.1412,0.1201,0.1187,0.1259,0.1237,0.1235,0.1365,0.1578,0.1823,0.1985,1.2124,1.185,1.1603,1.1296,1.1081,1.1245,1.1118,1.1024,1.108,1.0774,1.001,0.9807,0.929,0.8806,0.8316,0.8246,0.8333,0.8276,0.8167,0.7841,0.7717,0.7804,0.7746,0.7681,0.7658,0.7521,0.7197,0.6834,0.6628,0.6386,0.613,0.5991,0.5963,0.592,0.5788,0.5545,0.5325,0.5092,0.4947,0.4468,0.4047,0.3911,0.3816,0.3315,0.3138,0.3064,0.3038,0.3015,0.3046,0.3031,0.3028,0.2787,0.2525,0.2201,0.2093,0.1992,0.2081,0.2148,0.2346,0.2471,0.2514,0.2635,0.2689,0.2689,0.2747,0.2747,0.2858,0.28,0.291,0.3019,0.3405,0.3405,0.3574,0.3741,0.3855,0.3968,0.4079,0.4082,0.4024,0.4018,0.4073,0.4021,0.4076,0.4132,0.4242,0.4353,0.4463,0.4574,0.4629,0.4684,0.4736,0.4736,0.4732,0.4791,0.4904,0.4901,0.5007,0.5113,0.5277,0.5605,0.5496,0.5273,0.456,0.3846,0.321,0.2784,0.2602,0.2349,0.2219,0.2131,0.2137,0.2147,0.2457,0.2759,0.2923,1.197,1.141,1.1263,1.1095,1.0897,1.0911,1.0961,1.093,1.0948,1.0737,1.0328,0.9985,0.9719,0.9282,0.8858,0.8532,0.8388,0.8738,0.8497,0.7907,0.7706,0.7823,0.7862,0.7815,0.7986,0.7967,0.7665,0.7302,0.7059,0.6534,0.6263,0.6082,0.5997,0.5853,0.578,0.5731,0.5596,0.55,0.5262,0.4937,0.4491,0.4355,0.4045,0.3913,0.3781,0.369,0.3561,0.3561,0.3565,0.3565,0.3561,0.3561,0.3452,0.3311,0.2974,0.2483,0.2459,0.2559,0.2713,0.2852,0.2963,0.3137,0.319,0.3244,0.3302,0.3357,0.3302,0.3355,0.3411,0.3519,0.3738,0.3793,0.3907,0.4021,0.4135,0.4245,0.4356,0.447,0.4574,0.4677,0.4515,0.446,0.4298,0.4408,0.4519,0.4629,0.4791,0.4846,0.4956,0.5007,0.5062,0.523,0.5285,0.5399,0.5508,0.5559,0.5614,0.5719,0.5828,0.6154,0.6263,0.6041,0.5873,0.5433,0.4827,0.4251,0.3626,0.3303,0.317,0.3107,0.3116,0.3234,0.3431,0.3688,0.3799,1.1826,1.1114,1.0999,1.0873,1.0746,1.0518,1.0506,1.0628,1.0552,1.0458,1.0435,0.9966,0.9806,0.9774,0.9388,0.8876,0.8466,0.8935,0.8475,0.7873,0.7691,0.7822,0.7895,0.7918,0.801,0.8345,0.8017,0.765,0.7309,0.6815,0.6466,0.6357,0.616,0.5896,0.579,0.5794,0.5786,0.5613,0.542,0.5154,0.4975,0.4714,0.4578,0.4583,0.4539,0.4408,0.4188,0.4144,0.4144,0.4144,0.4144,0.4192,0.4364,0.4408,0.3902,0.307,0.295,0.3054,0.3096,0.3501,0.363,0.3638,0.3744,0.3799,0.3799,0.3855,0.4024,0.4187,0.4076,0.4012,0.3944,0.4177,0.446,0.468,0.4736,0.4739,0.5011,0.5175,0.5395,0.5336,0.512,0.5117,0.5171,0.4739,0.4849,0.5124,0.523,0.512,0.523,0.5218,0.5328,0.5614,0.5782,0.595,0.6059,0.6218,0.6268,0.6376,0.6485,0.6701,0.681,0.6864,0.6696,0.6524,0.6367,0.5736,0.4992,0.4388,0.4349,0.4304,0.4184,0.4181,0.4181,0.4349,0.4519,1.1715,1.14,1.0864,1.062,1.0604,1.0376,1.0293,1.0343,1.0436,1.0419,1.0119,1.0002,0.9821,0.9606,0.9344,0.8947,0.8738,0.869,0.8581,0.8167,0.8248,0.8248,0.8384,0.8417,0.8236,0.841,0.8101,0.7812,0.7485,0.706,0.6795,0.6654,0.6567,0.6401,0.601,0.6008,0.5609,0.542,0.5371,0.5415,0.5501,0.5458,0.5371,0.5198,0.5154,0.5067,0.4854,0.481,0.481,0.481,0.4854,0.4806,0.4757,0.4753,0.4723,0.4608,0.463,0.4469,0.3904,0.4204,0.4457,0.4187,0.4128,0.4021,0.4239,0.4294,0.4512,0.4944,0.4732,0.4498,0.4474,0.4933,0.5441,0.576,0.5797,0.5914,0.6027,0.5748,0.5972,0.6312,0.6095,0.6258,0.6421,0.5719,0.5234,0.5508,0.5727,0.5614,0.5664,0.576,0.5878,0.6218,0.6273,0.644,0.6549,0.6652,0.6761,0.6923,0.7031,0.7192,0.7306,0.7413,0.7515,0.7396,0.7283,0.7235,0.6696,0.615,0.5769,0.5332,0.5003,0.4893,0.4783,0.4956,0.5073,1.0974,1.0709,1.0443,1.0331,1.0296,1.0059,1.0037,1.0014,0.976,0.9642,0.9548,0.9365,0.9219,0.9087,0.8941,0.8721,0.8502,0.8575,0.8521,0.8285,0.8263,0.8256,0.807,0.795,0.7953,0.7997,0.7867,0.7702,0.7492,0.7234,0.6969,0.6912,0.6793,0.6649,0.6416,0.6496,0.6361,0.6136,0.5884,0.5717,0.5717,0.5804,0.5761,0.5545,0.5631,0.5545,0.542,0.5246,0.5203,0.5159,0.5154,0.5246,0.5328,0.5415,0.5417,0.5346,0.5795,0.5606,0.4899,0.519,0.512,0.5109,0.505,0.5218,0.5332,0.5386,0.5496,0.5873,0.5823,0.5529,0.5341,0.5806,0.6322,0.6637,0.6643,0.6546,0.6589,0.647,0.6455,0.6818,0.7176,0.7337,0.7439,0.695,0.6475,0.6593,0.675,0.674,0.6735,0.6838,0.6912,0.6944,0.6933,0.6864,0.6977,0.7085,0.7133,0.73,0.7467,0.7574,0.7741,0.7848,0.7889,0.799,0.7877,0.7889,0.8026,0.7526,0.675,0.6204,0.5769,0.5555,0.5336,0.5124,0.5238,1.029,1.008,1.0094,1.0123,1.0094,0.9797,0.9724,0.9753,0.9264,0.9076,0.908,0.8868,0.8685,0.8582,0.8553,0.8392,0.8107,0.8334,0.8193,0.8011,0.7888,0.7845,0.7744,0.7525,0.7531,0.753,0.7595,0.7573,0.7566,0.7405,0.7215,0.7154,0.7123,0.6927,0.6865,0.6907,0.6865,0.6647,0.6355,0.619,0.6105,0.6105,0.5976,0.589,0.5895,0.5938,0.5723,0.5507,0.542,0.5415,0.5371,0.5507,0.568,0.5804,0.589,0.5919,0.6377,0.6387,0.5957,0.5953,0.5908,0.5873,0.5954,0.5926,0.6163,0.6474,0.675,0.6799,0.6411,0.6514,0.6784,0.6902,0.7026,0.7167,0.7102,0.6963,0.6905,0.7046,0.7292,0.7701,0.8019,0.8296,0.829,0.8072,0.7865,0.7842,0.783,0.7806,0.7806,0.7806,0.7931,0.7907,0.7895,0.7771,0.761,0.767,0.767,0.7616,0.7842,0.7901,0.8008,0.8062,0.8103,0.8203,0.8256,0.8374,0.8387,0.8055,0.767,0.6966,0.6312,0.605,0.5782,0.5567,0.5462,1.0015,0.9986,1.0063,1.0119,1.0042,0.9737,0.9598,0.9533,0.9277,0.9094,0.8985,0.8849,0.8443,0.829,0.8209,0.807,0.7728,0.7735,0.773,0.7673,0.7657,0.7659,0.7595,0.7573,0.7572,0.767,0.7614,0.7614,0.767,0.767,0.7628,0.7628,0.7503,0.7286,0.7154,0.7105,0.7118,0.695,0.6829,0.6787,0.666,0.6532,0.6276,0.6067,0.6024,0.5938,0.5723,0.568,0.5636,0.5636,0.5636,0.5723,0.5895,0.6019,0.6105,0.6286,0.651,0.6612,0.6503,0.6476,0.6248,0.5961,0.6061,0.6468,0.6587,0.6605,0.6891,0.7503,0.716,0.7315,0.7759,0.8078,0.7846,0.7723,0.7702,0.7697,0.7754,0.801,0.821,0.8612,0.8806,0.8985,0.9093,0.8869,0.8677,0.858,0.8463,0.8378,0.8593,0.8725,0.8896,0.8969,0.8956,0.8784,0.8514,0.8408,0.8256,0.8096,0.8103,0.8109,0.8162,0.8215,0.8315,0.8362,0.8468,0.8633,0.8745,0.848,0.8096,0.7396,0.6907,0.6524,0.6209,0.5946,0.5786,1.036,1.0029,1.0171,1.0023,0.9673,0.9546,0.9326,0.9007,0.8714,0.8451,0.8297,0.8143,0.8019,0.7931,0.7902,0.7843,0.7726,0.7677,0.767,0.767,0.767,0.767,0.7621,0.7621,0.767,0.7712,0.7704,0.7739,0.7836,0.7836,0.7829,0.7795,0.7795,0.7628,0.7454,0.7356,0.7321,0.7328,0.7293,0.7209,0.7125,0.6914,0.666,0.6575,0.6282,0.6239,0.6116,0.5981,0.5938,0.5895,0.5895,0.5938,0.6067,0.6153,0.6282,0.641,0.6544,0.6612,0.6736,0.6883,0.6939,0.7011,0.7116,0.7312,0.7267,0.7669,0.8013,0.8249,0.8131,0.8296,0.8613,0.8718,0.858,0.8461,0.8342,0.8316,0.8366,0.8532,0.8813,0.9005,0.9278,0.9503,0.9577,0.9621,0.9446,0.9344,0.9163,0.9082,0.9268,0.942,0.9532,0.9539,0.948,0.9368,0.9093,0.8942,0.8837,0.8679,0.8461,0.8521,0.858,0.8421,0.8521,0.8573,0.8626,0.8745,0.8804,0.8857,0.8527,0.7824,0.7374,0.6977,0.6671,0.6322,0.6114,1.075,1.0231,1.0373,1.0027,0.9392,0.9302,0.9081,0.8749,0.8446,0.8055,0.7761,0.7712,0.767,0.767,0.7677,0.7726,0.7761,0.7753,0.7761,0.7753,0.7753,0.7712,0.7712,0.7712,0.7795,0.7844,0.7878,0.7961,0.8365,0.8077,0.8152,0.8193,0.7953,0.7753,0.7663,0.7697,0.7697,0.7753,0.767,0.7545,0.7496,0.7251,0.6864,0.6793,0.6561,0.6373,0.6289,0.612,0.6153,0.611,0.6105,0.6105,0.619,0.6282,0.6404,0.6447,0.6447,0.6532,0.6693,0.6912,0.7329,0.7421,0.7711,0.7927,0.829,0.8617,0.8732,0.885,0.8956,0.9113,0.9211,0.9145,0.8864,0.8567,0.87,0.872,0.8578,0.8652,0.9031,0.9372,0.9592,0.9836,0.9872,0.9908,0.987,0.9794,0.9753,0.9709,0.982,0.994,0.994,0.9895,0.9792,0.9681,0.9517,0.951,0.9503,0.9347,0.919,0.919,0.9145,0.8935,0.883,0.8988,0.8995,0.8857,0.891,0.9008,0.8738,0.8302,0.7806,0.7256,0.695,0.6603,0.6332,1.1113,1.0705,1.0687,1.0157,0.9384,0.9086,0.9013,0.8799,0.8572,0.8233,0.7893,0.7795,0.7795,0.7795,0.7912,0.8044,0.8077,0.8028,0.8036,0.8077,0.8118,0.7953,0.7878,0.7961,0.816,0.825,0.8324,0.857,0.9056,0.8561,0.8635,0.8756,0.8439,0.7961,0.7746,0.7904,0.8036,0.8134,0.7961,0.7912,0.7728,0.7466,0.7086,0.6747,0.6658,0.6476,0.6238,0.6202,0.6204,0.6277,0.6247,0.6271,0.6361,0.6447,0.6526,0.6526,0.6623,0.6708,0.6849,0.6917,0.7224,0.7602,0.7847,0.811,0.8414,0.8765,0.9008,0.9113,0.9225,0.9278,0.9382,0.9392,0.9026,0.8918,0.9051,0.9063,0.8963,0.8966,0.9377,0.9698,0.9893,1.0035,1.0089,1.0128,1.0187,1.0167,1.0277,1.0316,1.0403,1.0462,1.0454,1.0403,1.03,1.0293,1.0233,1.0226,1.0167,1.0012,0.9865,0.9762,0.9607,0.9399,0.9347,0.9451,0.9204,0.891,0.9015,0.9113,0.8896,0.862,0.7984,0.7498,0.7192,0.6972,0.674,1.1217,1.07,1.0847,1.044,0.979,0.9415,0.8929,0.8364,0.82,0.8086,0.8044,0.8185,0.8357,0.8439,0.8594,0.8724,0.8756,0.8837,0.8837,0.8797,0.8797,0.8837,0.8765,0.8683,0.8797,0.8967,0.8958,0.8958,0.9368,0.8999,0.9079,0.9239,0.8999,0.848,0.8077,0.7995,0.8167,0.8216,0.8185,0.8115,0.7818,0.7487,0.7158,0.6711,0.6612,0.642,0.6199,0.6194,0.623,0.6316,0.63,0.6292,0.6458,0.6586,0.6647,0.666,0.6715,0.6751,0.6937,0.7115,0.735,0.7635,0.791,0.818,0.855,0.8889,0.911,0.9256,0.9323,0.9427,0.9591,0.9643,0.9467,0.9373,0.9411,0.9403,0.9384,0.9504,0.9771,1.0019,1.0257,1.036,1.045,1.0689,1.0731,1.0723,1.0806,1.072,1.0728,1.0905,1.1023,1.1015,1.0964,1.0964,1.0956,1.0846,1.0795,1.0694,1.0438,1.0241,1.0028,0.9917,0.9562,0.9465,0.9159,0.8962,0.9061,0.9211,0.9211,0.8942,0.8514,0.8137,0.7925,0.7623,0.7312,1.1317,1.0864,1.0915,1.0622,1.0082,0.9659,0.908,0.8561,0.8382,0.8341,0.8545,0.8837,0.8918,0.8999,0.9159,0.9368,0.9359,0.9359,0.9359,0.9359,0.9359,0.9279,0.9239,0.9368,0.9328,0.9487,0.9527,0.9558,0.9952,0.9677,0.9518,0.9478,0.9549,0.9046,0.86,0.8359,0.8439,0.8488,0.8472,0.8214,0.7937,0.7602,0.7228,0.684,0.6586,0.6441,0.6269,0.6208,0.6188,0.6265,0.6285,0.6309,0.6583,0.677,0.6982,0.712,0.7197,0.7206,0.7291,0.75,0.7706,0.7781,0.8051,0.8393,0.871,0.9061,0.9228,0.9368,0.9517,0.9629,0.9844,0.9895,0.9921,0.9867,0.9917,0.9909,0.9831,0.9953,1.0392,1.0594,1.0812,1.0913,1.0964,1.1191,1.1408,1.1379,1.1309,1.1239,1.1157,1.1342,1.1519,1.1469,1.1418,1.1318,1.1318,1.1368,1.1318,1.1326,1.1116,1.0854,1.0854,1.0744,1.0079,0.9524,0.9472,0.942,0.9256,0.9256,0.9413,0.9458,0.9354,0.8974,0.8698,0.8239,0.7775,1.146,1.1113,1.0968,1.07,1.0293,0.9872,0.9637,0.9531,0.9022,0.907,0.943,0.9319,0.9399,0.9359,0.9399,0.9567,0.9677,0.9637,0.9686,0.9637,0.9755,0.9637,0.9558,0.9558,0.9804,0.9853,0.9932,1.0118,1.0621,1.0186,0.9795,0.9765,1.0118,0.9732,0.9253,0.9002,0.8987,0.8873,0.8795,0.8529,0.8219,0.7918,0.742,0.7012,0.6731,0.6567,0.6441,0.6396,0.6407,0.6404,0.638,0.6612,0.6849,0.7072,0.7594,0.7987,0.8105,0.7981,0.8018,0.8232,0.8379,0.8565,0.8734,0.8853,0.9095,0.9475,0.9761,0.9872,0.9967,1.0012,1.0043,1.0202,1.0351,1.0388,1.0447,1.0424,1.0303,1.0565,1.1089,1.1418,1.166,1.176,1.1792,1.1931,1.2129,1.2239,1.2222,1.2289,1.2159,1.1832,1.1909,1.176,1.171,1.1569,1.1628,1.1728,1.1728,1.1678,1.1778,1.1619,1.1619,1.141,1.0744,1.0233,1.0028,0.9873,0.9718,0.9614,0.9614,0.9658,0.9614,0.9451,0.9026,0.8593,0.8162,1.1301,1.1309,1.1147,1.1023,1.086,1.0505,1.006,0.9619,0.9421,0.946,0.9588,0.9883,1.0,1.004,1.0312,1.0409,1.0448,1.0477,1.0525,1.0487,1.0322,1.04,1.04,1.0361,1.0525,1.0525,1.0564,1.0564,1.0756,1.0515,1.0477,1.0603,1.0603,1.0396,1.0136,0.9992,0.9552,0.9201,0.9175,0.8943,0.854,0.8236,0.7679,0.717,0.6875,0.673,0.6674,0.6561,0.6579,0.6647,0.6828,0.7107,0.7371,0.7746,0.8234,0.8683,0.8806,0.8905,0.9209,0.954,0.966,0.9739,1.0108,0.9875,0.9942,1.0108,1.0506,1.0448,1.063,1.0754,1.0838,1.0948,1.1082,1.114,1.119,1.1189,1.1126,1.1384,1.1859,1.2107,1.2353,1.2442,1.2482,1.2667,1.2812,1.3054,1.3198,1.3294,1.3198,1.2861,1.254,1.2384,1.2295,1.2246,1.2017,1.2076,1.2026,1.2076,1.2126,1.2076,1.1769,1.1469,1.1209,1.0947,1.0635,1.0387,1.019,1.0079,0.9925,0.971,0.9607,0.951,0.934,0.8867,0.8461,1.1309,1.1394,1.126,1.1185,1.1147,1.0947,1.0582,1.0225,1.0021,0.9972,1.0157,1.04,1.0564,1.0564,1.0756,1.0843,1.0843,1.0794,1.0805,1.0805,1.0919,1.0843,1.0881,1.0968,1.093,1.0968,1.1006,1.0957,1.1006,1.1006,1.1006,1.0995,1.1044,1.0745,1.0448,1.0163,0.9862,0.9476,0.9257,0.9211,0.8875,0.8397,0.7807,0.733,0.7053,0.6954,0.692,0.678,0.6939,0.7066,0.73,0.7658,0.8095,0.8673,0.9247,0.9675,0.9834,0.9828,0.9932,1.0149,1.0394,1.0621,1.1059,1.0806,1.062,1.0672,1.0836,1.0945,1.1349,1.1657,1.1765,1.1823,1.1891,1.195,1.199,1.2039,1.2178,1.2325,1.254,1.2793,1.2939,1.3025,1.316,1.3351,1.3542,1.3836,1.4107,1.4329,1.419,1.3899,1.3579,1.3294,1.316,1.3025,1.2745,1.2501,1.2452,1.2403,1.2224,1.2126,1.1877,1.1819,1.1769,1.1451,1.1141,1.0947,1.0744,1.0446,1.0241,0.9969,0.9739,0.9548,0.9394,0.9098,0.8686,1.1459,1.1459,1.1298,1.1298,1.126,1.1223,1.1174,1.1147,1.0659,1.0631,1.0843,1.0891,1.0891,1.0881,1.0957,1.0968,1.0968,1.0957,1.0957,1.0919,1.0968,1.0968,1.1006,1.1044,1.1082,1.112,1.1158,1.1158,1.1185,1.1136,1.1126,1.1153,1.1116,1.0844,1.034,1.042,1.018,0.9867,0.9436,0.918,0.894,0.8419,0.7878,0.7478,0.7285,0.7164,0.7185,0.7329,0.7566,0.7624,0.7878,0.827,0.8976,0.9563,1.0164,1.0658,1.0758,1.0795,1.0749,1.0921,1.0784,1.0994,1.1251,1.12,1.1138,1.1546,1.1796,1.1583,1.1874,1.2329,1.2511,1.257,1.2638,1.2686,1.2735,1.2774,1.2822,1.3025,1.3228,1.3467,1.3563,1.3647,1.3847,1.4025,1.4201,1.4558,1.4834,1.5085,1.5085,1.4789,1.4536,1.4176,1.3789,1.36,1.3389,1.3102,1.2909,1.2774,1.254,1.2325,1.219,1.2227,1.2372,1.2067,1.176,1.151,1.1259,1.1057,1.0787,1.0399,1.0136,0.9677,0.9437,0.9237,0.8779,1.1943,1.1906,1.1748,1.1638,1.1638,1.1485,1.141,1.1346,1.1233,1.1147,1.1147,1.1147,1.1109,1.1109,1.1109,1.112,1.112,1.1082,1.1082,1.1082,1.1082,1.1044,1.112,1.1147,1.1195,1.1195,1.1185,1.1234,1.1212,1.1164,1.1036,1.0769,1.0927,1.0862,1.0709,1.0811,1.0552,1.0362,0.9895,0.9488,0.9224,0.8953,0.8552,0.8107,0.784,0.7637,0.7682,0.7866,0.7876,0.7843,0.8564,0.9087,0.9674,1.0047,1.0536,1.1085,1.1508,1.1713,1.1816,1.1804,1.1781,1.1665,1.1826,1.1674,1.1854,1.254,1.273,1.2395,1.2411,1.2852,1.317,1.3218,1.3324,1.3372,1.3467,1.3467,1.3457,1.3705,1.3905,1.3999,1.4129,1.428,1.4466,1.4651,1.488,1.5062,1.5244,1.5468,1.5558,1.5424,1.5392,1.4983,1.4373,1.4082,1.3956,1.3758,1.3569,1.3243,1.2936,1.2725,1.2561,1.2696,1.2832,1.2676,1.2471,1.2166,1.1918,1.1828,1.1543,1.0998,1.0434,0.9931,0.9596,0.9391,0.8836,1.2389,1.2246,1.2029,1.1932,1.1932,1.1796,1.176,1.1697,1.1623,1.1549,1.1426,1.1287,1.1185,1.1185,1.1185,1.1223,1.1185,1.1158,1.1158,1.1195,1.1223,1.1147,1.1185,1.1298,1.1437,1.1452,1.1431,1.1438,1.1278,1.1087,1.0934,1.099,1.1229,1.1307,1.1374,1.1219,1.1119,1.1067,1.0487,1.0105,0.9679,0.9252,0.8733,0.8301,0.8187,0.8086,0.838,0.8598,0.8908,0.9038,0.9636,0.9935,1.0358,1.0707,1.1229,1.186,1.2423,1.2782,1.2843,1.2826,1.2754,1.2468,1.2361,1.2195,1.2015,1.2546,1.2648,1.2436,1.2709,1.3114,1.348,1.3621,1.3678,1.3773,1.3858,1.3894,1.3988,1.4186,1.4326,1.4373,1.4512,1.4697,1.488,1.5062,1.5244,1.5289,1.5513,1.5614,1.5748,1.5836,1.5876,1.5766,1.5097,1.4834,1.4766,1.456,1.4272,1.3835,1.3502,1.3402,1.3338,1.3324,1.3337,1.3113,1.291,1.2676,1.252,1.2344,1.1883,1.1292,1.0702,1.0195,0.9892,0.9622,0.9136,1.2836,1.2603,1.2365,1.2258,1.2258,1.221,1.2128,1.2081,1.1959,1.19,1.1818,1.152,1.1362,1.126,1.1223,1.1223,1.1223,1.1271,1.1233,1.126,1.1335,1.1437,1.1501,1.1549,1.1718,1.1753,1.1733,1.1549,1.1343,1.1155,1.119,1.1634,1.1748,1.1757,1.1814,1.1798,1.1716,1.1453,1.1046,1.0749,1.0161,0.9471,0.9056,0.8728,0.8613,0.8787,0.9098,0.953,1.005,1.0319,1.0563,1.0905,1.1205,1.1532,1.2142,1.2744,1.3216,1.3444,1.3437,1.3301,1.3098,1.2873,1.2803,1.276,1.2596,1.2604,1.272,1.2915,1.3201,1.3331,1.3715,1.3915,1.402,1.4067,1.4197,1.4222,1.4373,1.4512,1.4605,1.4662,1.4846,1.4971,1.5198,1.5379,1.5468,1.5558,1.5647,1.5748,1.5792,1.5836,1.5872,1.5897,1.5671,1.5513,1.5513,1.5266,1.4926,1.4767,1.4448,1.4261,1.4014,1.3721,1.3494,1.342,1.3218,1.3035,1.2793,1.2541,1.2053,1.1582,1.115,1.066,1.0479,1.0169,0.957,1.3378,1.331,1.3079,1.2963,1.2928,1.2777,1.2489,1.2164,1.2503,1.2454,1.2043,1.213,1.2004,1.1437,1.1448,1.1448,1.1373,1.141,1.141,1.1448,1.1575,1.1766,1.1945,1.2116,1.2083,1.1937,1.1766,1.1711,1.1311,1.1065,1.1099,1.1436,1.1677,1.1769,1.1868,1.1961,1.2245,1.1987,1.1495,1.1103,1.1166,1.0671,1.0238,1.0077,1.0098,1.0035,1.0091,1.0365,1.0583,1.0821,1.1169,1.1638,1.2001,1.2338,1.2902,1.3535,1.4023,1.3925,1.3893,1.3883,1.3644,1.3275,1.3302,1.3541,1.3471,1.3501,1.3656,1.391,1.4016,1.3723,1.3946,1.4097,1.4197,1.4244,1.4326,1.4326,1.4419,1.4466,1.4558,1.4662,1.48,1.4971,1.5198,1.5379,1.5558,1.5647,1.5748,1.5792,1.5792,1.5836,1.5881,1.5957,1.6001,1.6057,1.6013,1.5901,1.5656,1.5522,1.5344,1.4971,1.4481,1.385,1.3674,1.3794,1.3569,1.3321,1.3012,1.2847,1.242,1.1998,1.1582,1.1213,1.0988,1.0721,1.0241]}]]